[[{"header":{"parameterUnit":"m.s-1","parameterCategory":1,"la1":31.0,"la2":29.5877,"lo1":-88.7671,"lo2":-86.6584,"dy":0.0162,"dx":0.0185,"nx":115,"ny":88,"refTime":"2024-02-08T06:00:00:Z","depth":0,"parameterNumber":2,"parameterNumberName":"U-component_of_WINDS"},"data":[0.0,0.0,0.0,0.0,0.0,0.0,0.0,0.0,0.0,0.0,0.0,0.0,0.0,0.0,0.0,0.0,0.0,0.0,0.0,0.0,0.0,0.0,0.0,0.0,0.0,0.0,0.0,0.0,0.0,0.0,0.0,0.0,0.0,0.0,0.0,0.0,0.0,0.0,0.0,0.0,0.0,0.0,0.0,0.0,0.0,0.0,0.0,0.0,0.0,0.0,0.0,0.0,0.0,0.0,0.0,0.0,0.0,0.0,0.0,0.0,0.0,0.0,0.0,0.0,0.0,0.0,0.0,0.0,0.0,0.0,0.0,0.0,0.0,0.0,0.0,0.0,0.0,0.0,0.0,0.0,0.0,0.0,0.0,0.0,0.0,0.0,0.0,0.0,0.0,0.0,0.0,0.0,0.0,0.0,0.0,0.0,0.0,0.0,0.0,0.0,0.0,0.0,0.0,0.0,0.0,0.0,0.0,0.0,0.0,0.0,0.0,0.0,0.0,0.0,0.0,0.0,0.0,0.0,0.0,0.0,0.0,0.0,0.0,0.0,0.0,0.0,0.0,0.0,0.0,0.0,0.0,0.0,0.0,0.0,0.0,0.0,0.0,0.0,0.0,0.0,0.0,0.0,0.0,0.0,0.0,0.0,0.0,0.0,0.0,0.0,0.0,0.0,0.0,0.0,0.0,0.0,0.0,0.0,0.0,0.0,0.0,0.0,0.0,0.0,0.0,0.0,0.0,0.0,0.0,0.0,0.0,0.0,0.0,0.0,0.0,0.0,0.0,0.0,0.0,0.0,0.0,0.0,0.0,0.0,0.0,0.0,0.0,0.0,0.0,0.0,0.0,0.0,0.0,0.0,0.0,0.0,0.0,0.0,0.0,0.0,0.0,0.0,0.0,0.0,0.0,0.0,0.0,0.0,0.0,0.0,0.0,0.0,0.0,0.0,0.0,0.0,0.0,0.0,0.0,0.0,0.0,0.0,0.0,0.0,0.0,0.0,0.0,0.0,0.0,0.0,0.0,0.0,0.0,0.0,0.0,0.0,0.0,0.0,0.0,0.0,0.0,0.0,0.0,0.0,0.0,0.0,0.0,0.0,0.0,0.0,0.0,0.0,0.0,0.0,0.0,0.0,0.0,0.0,0.0,0.0,0.0,0.0,0.0,0.0,0.0,0.0,0.0,0.0,0.0,0.0,0.0,0.0,0.0,0.0,0.0,0.0,0.0,0.0,0.0,0.0,0.0,0.0,0.0,0.0,0.0,0.0,0.0,0.0,0.0,0.0,0.0,0.0,0.0,0.0,0.0,0.0,0.0,0.0,0.0,0.0,0.0,0.0,0.0,0.0,0.0,0.0,0.0,0.0,0.0,0.0,0.0,0.0,0.0,0.0,0.0,0.0,0.0,0.0,0.0,0.0,0.0,0.0,0.0,0.0,0.0,0.0,0.0,0.0,0.0,0.0,0.0,0.0,0.0,0.0,0.0,0.0,0.0,0.0,0.0,0.0,0.0,0.0,0.0,0.0,0.0,0.0,0.0,0.0,0.0,0.0,0.0,0.0,0.0,0.0,0.0,0.0,0.0,0.0,0.0,0.0,0.0,0.0,0.0,0.0,0.0,0.0,0.0,0.0,0.0,0.0,0.0,0.0,0.0,0.0,0.0,0.0,0.0,0.0,0.0,0.0,0.0,0.0,0.0,0.0,0.0,0.0,0.0,0.0,0.0,0.0,0.0,0.0,0.0,0.0,0.0,0.0,0.0,0.0,0.0,0.0,0.0,0.0,0.0,0.0,0.0,0.0,0.0,0.0,0.0,0.0,0.0,0.0,0.0,0.0,0.0,0.0,0.0,0.0,0.0,0.0,0.0,0.0,0.0,0.0,0.0,0.0,0.0,0.0,0.0,0.0,0.0,0.0,0.0,0.0,0.0,0.0,0.0,0.0,0.0,0.0,0.0,0.0,0.0,0.0,0.0,0.0,0.0,0.0,0.0,0.0,0.0,0.0,0.0,0.0,0.0,0.0,0.0,0.0,0.0,0.0,0.0,0.0,0.0,0.0,0.0,0.0,0.0,0.0,0.0,0.0,0.0,0.0,0.0,0.0,0.0,0.0,0.0,0.0,0.0,0.0,0.0,0.0,0.0,0.0,0.0,0.0,0.0,0.0,0.0,0.0,0.0,0.0,0.0,0.0,0.0,0.0,0.0,0.0,0.0,0.0,0.0,0.0,0.0,0.0,0.0,0.0,0.0,0.0,0.0,0.0,0.0,0.0,0.0,0.0,0.0,0.0,0.0,0.0,0.0,0.0,0.0,0.0,0.0,0.0,0.0,0.0,0.0,0.0,0.0,0.0,0.0,0.0,0.0,0.0,0.0,0.0,0.0,0.0,0.0,0.0,0.0,0.0,0.0,0.0,0.0,0.0,0.0,0.0,0.0,0.0,0.0,0.0,0.0,0.0,0.0,0.0,0.0,0.0,0.0,0.0,0.0,0.0,0.0,0.0,0.0,0.0,0.0,0.0,0.0,0.0,0.0,0.0,0.0,0.0,0.0,0.0,0.0,0.0,0.0,0.0,0.0,0.0,0.0,0.0,0.0,0.0,0.0,0.0,0.0,0.0,0.0,0.0,0.0,0.0,0.0,0.0,0.0,0.0,0.0,0.0,0.0,0.0,0.0,0.0,0.0,0.0,0.0,0.0,0.0,0.0,0.0,0.0,0.0,0.0,0.0,0.0,0.0,0.0,0.0,0.0,0.0,0.0,0.0,0.0,0.0,0.0,0.0,0.0,0.0,0.0,0.0,0.0,0.0,0.0,0.0,0.0,0.0,0.0,0.0,0.0,0.0,0.0,0.0,0.0,0.0,0.0,0.0,0.0,0.0,0.0,0.0,0.0,0.0,0.0,0.0,0.0,0.0,0.0,0.0,0.0,0.0,0.0,0.0,0.0,0.0,0.0,0.0,0.0,0.0,0.0,0.0,0.0,0.0,0.0,0.0,0.0,0.0,0.0,0.0,0.0,0.0,0.0,0.0,0.0,0.0,0.0,0.0,0.0,0.0,0.0,0.0,0.0,0.0,0.0,0.0,0.0,0.0,0.0,0.0,0.0,0.0,0.0,0.0,0.0,0.0,0.0,0.0,0.0,0.0,0.0,0.0,0.0,0.0,0.0,0.0,0.0,0.0,0.0,0.0,0.0,0.0,0.0,0.0,0.0,0.0,0.0,0.0,0.0,0.0,0.0,0.0,0.0,0.0,0.0,0.0,0.0,0.0,0.0,0.0,0.0,0.0,0.0,0.0,0.0,0.0,0.0,0.0,0.0,0.0,0.0,0.0,0.0,0.0,0.0,0.0,0.0,0.0,0.0,0.0,0.0,0.0,0.0,0.0,0.0,0.0,0.0,0.0,0.0,0.0,0.0,0.0,0.0,0.0,0.0,0.0,0.0,0.0,0.0,0.0,0.0,0.0,0.0,0.0,0.0,0.0,0.0,0.0,0.0,0.0,0.0,0.0,0.0,0.0,0.0,0.0,0.0,0.0,0.0,0.0,0.0,0.0,0.0,0.0,0.0,0.0,0.0,0.0,0.0,0.0,0.0,0.0,0.0,0.0,0.0,0.0,0.0,0.0,0.0,0.0,0.0,0.0,0.0,0.0,0.0,0.0,0.0,0.0,0.0,0.0,0.0,0.0,0.0,0.0,0.0,0.0,0.0,0.0,0.0,0.0,0.0,0.0,0.0,0.0,0.0,0.0,0.0,0.0,0.0,0.0,0.0,0.0,0.0,0.0,0.0,0.0,0.0,0.0,0.0,0.0,0.0,0.0,0.0,0.0,0.0,0.0,0.0,0.0,0.0,0.0,0.0,0.0,0.0,0.0,0.0,0.0,0.0,0.0,0.0,0.0,0.0,0.0,0.0,0.0,0.0,0.0,0.0,0.0,0.0,0.0,0.0,0.0,0.0,0.0,0.0,0.0,0.0,0.0,0.0,0.0,0.0,0.0,0.0,0.0,0.0,0.0,0.0,0.0,0.0,0.0,0.0,0.0,0.0,0.0,0.0,0.0,0.0,0.0,0.0,0.0,0.0,0.0,0.0,0.0,0.0,0.0,0.0,0.0,0.0,0.0,0.0,0.0,0.0,0.0,0.0,0.0,0.0,0.0,0.0,0.0,0.0,0.0,0.0,0.0,0.0,0.0,0.0,0.0,0.0,0.0,0.0,0.0,0.0,0.0,0.0,0.0,0.0,0.0,0.0,0.0,0.0,0.0,0.0,0.0,0.0,0.0,0.0,-4.1302,0.0,0.0,0.0,0.0,0.0,0.0,0.0,0.0,0.0,0.0,0.0,0.0,0.0,0.0,0.0,0.0,0.0,0.0,0.0,0.0,0.0,0.0,0.0,0.0,0.0,0.0,0.0,0.0,0.0,0.0,0.0,0.0,0.0,0.0,0.0,0.0,0.0,0.0,0.0,0.0,0.0,0.0,0.0,0.0,0.0,0.0,0.0,0.0,0.0,0.0,0.0,0.0,0.0,0.0,0.0,0.0,0.0,0.0,0.0,0.0,0.0,0.0,0.0,0.0,0.0,0.0,0.0,0.0,0.0,0.0,0.0,0.0,0.0,0.0,0.0,0.0,0.0,0.0,0.0,0.0,0.0,0.0,0.0,0.0,0.0,0.0,0.0,0.0,0.0,0.0,0.0,0.0,0.0,0.0,0.0,0.0,0.0,0.0,0.0,0.0,0.0,0.0,0.0,0.0,0.0,0.0,0.0,0.0,0.0,0.0,-4.1458,-4.1107,-4.1458,-4.1458,-4.1107,0.0,0.0,0.0,0.0,0.0,0.0,0.0,0.0,0.0,0.0,0.0,0.0,0.0,0.0,0.0,0.0,0.0,0.0,0.0,0.0,0.0,0.0,0.0,0.0,0.0,0.0,0.0,0.0,0.0,0.0,0.0,0.0,0.0,0.0,0.0,0.0,0.0,0.0,0.0,0.0,0.0,0.0,0.0,0.0,0.0,0.0,0.0,0.0,0.0,0.0,0.0,0.0,0.0,0.0,0.0,0.0,0.0,0.0,0.0,0.0,0.0,0.0,0.0,0.0,0.0,0.0,0.0,0.0,0.0,0.0,0.0,0.0,0.0,0.0,0.0,0.0,0.0,0.0,0.0,0.0,0.0,0.0,0.0,0.0,0.0,0.0,0.0,0.0,0.0,0.0,0.0,0.0,0.0,0.0,0.0,0.0,0.0,0.0,0.0,0.0,0.0,0.0,0.0,0.0,0.0,0.0,0.0,0.0,0.0,0.0,0.0,0.0,-4.138,-4.138,-4.138,0.0,0.0,0.0,0.0,0.0,0.0,0.0,0.0,0.0,0.0,0.0,0.0,0.0,0.0,0.0,0.0,0.0,0.0,0.0,0.0,0.0,0.0,0.0,0.0,0.0,0.0,0.0,0.0,0.0,0.0,0.0,0.0,0.0,0.0,0.0,0.0,0.0,0.0,0.0,0.0,0.0,0.0,0.0,0.0,0.0,0.0,0.0,0.0,0.0,0.0,0.0,0.0,0.0,0.0,0.0,0.0,0.0,0.0,0.0,0.0,0.0,0.0,0.0,0.0,0.0,0.0,0.0,0.0,0.0,0.0,0.0,0.0,0.0,0.0,0.0,0.0,0.0,0.0,0.0,0.0,0.0,0.0,0.0,0.0,0.0,0.0,0.0,0.0,0.0,0.0,0.0,0.0,0.0,0.0,0.0,0.0,0.0,0.0,0.0,0.0,0.0,0.0,0.0,0.0,0.0,0.0,0.0,0.0,0.0,0.0,-4.0643,-4.212,-4.2198,0.0,-4.2159,0.0,0.0,0.0,0.0,0.0,0.0,0.0,0.0,0.0,0.0,0.0,0.0,0.0,0.0,0.0,0.0,0.0,0.0,0.0,0.0,0.0,0.0,0.0,0.0,0.0,0.0,0.0,0.0,0.0,0.0,0.0,0.0,0.0,0.0,0.0,0.0,0.0,0.0,0.0,0.0,0.0,0.0,0.0,0.0,0.0,0.0,0.0,0.0,0.0,0.0,0.0,0.0,0.0,0.0,0.0,0.0,0.0,0.0,0.0,0.0,0.0,0.0,0.0,0.0,0.0,0.0,0.0,0.0,0.0,0.0,0.0,0.0,0.0,0.0,0.0,0.0,0.0,0.0,0.0,0.0,0.0,0.0,0.0,0.0,0.0,0.0,0.0,0.0,0.0,0.0,0.0,0.0,0.0,0.0,0.0,0.0,0.0,0.0,0.0,0.0,0.0,0.0,0.0,0.0,0.0,0.0,0.0,0.0,0.0,0.0,-3.9825,-4.1536,-4.1575,-4.1107,0.0,0.0,0.0,0.0,0.0,0.0,0.0,0.0,0.0,0.0,0.0,0.0,0.0,0.0,0.0,0.0,0.0,0.0,0.0,0.0,0.0,0.0,0.0,0.0,0.0,0.0,0.0,0.0,0.0,0.0,0.0,0.0,0.0,0.0,0.0,0.0,0.0,0.0,0.0,0.0,0.0,0.0,0.0,0.0,0.0,0.0,0.0,0.0,0.0,0.0,0.0,0.0,0.0,0.0,0.0,0.0,0.0,0.0,0.0,0.0,0.0,0.0,0.0,0.0,0.0,0.0,0.0,0.0,0.0,0.0,0.0,0.0,0.0,0.0,0.0,0.0,0.0,0.0,0.0,0.0,0.0,0.0,0.0,0.0,0.0,0.0,0.0,0.0,0.0,0.0,0.0,0.0,0.0,0.0,0.0,0.0,0.0,0.0,0.0,0.0,0.0,0.0,0.0,0.0,0.0,0.0,0.0,0.0,0.0,0.0,-3.8967,-3.9705,-4.1305,-4.099,-4.0136,-3.8928,0.0,0.0,0.0,0.0,0.0,0.0,0.0,0.0,0.0,0.0,0.0,0.0,0.0,0.0,0.0,0.0,0.0,0.0,0.0,0.0,0.0,0.0,0.0,0.0,0.0,0.0,0.0,0.0,0.0,0.0,0.0,0.0,0.0,0.0,0.0,0.0,0.0,0.0,0.0,0.0,0.0,0.0,0.0,0.0,0.0,0.0,0.0,0.0,0.0,0.0,0.0,0.0,0.0,0.0,0.0,0.0,0.0,0.0,0.0,0.0,0.0,0.0,0.0,0.0,0.0,0.0,0.0,0.0,0.0,0.0,0.0,0.0,0.0,0.0,0.0,0.0,0.0,0.0,0.0,0.0,0.0,0.0,0.0,0.0,0.0,0.0,0.0,0.0,0.0,0.0,0.0,0.0,0.0,0.0,0.0,0.0,0.0,0.0,0.0,0.0,0.0,0.0,0.0,0.0,0.0,0.0,0.0,0.0,-4.0718,-4.0097,-4.0523,-4.2081,-4.0679,-3.9821,0.0,0.0,0.0,0.0,0.0,0.0,0.0,0.0,0.0,0.0,0.0,0.0,0.0,0.0,0.0,0.0,0.0,0.0,0.0,0.0,0.0,0.0,0.0,0.0,0.0,0.0,0.0,0.0,0.0,0.0,0.0,0.0,0.0,0.0,0.0,0.0,0.0,0.0,0.0,0.0,0.0,0.0,0.0,0.0,0.0,0.0,0.0,0.0,0.0,0.0,0.0,0.0,0.0,0.0,0.0,0.0,0.0,0.0,0.0,0.0,0.0,0.0,0.0,0.0,0.0,0.0,0.0,0.0,0.0,0.0,0.0,0.0,0.0,0.0,0.0,0.0,0.0,0.0,0.0,0.0,0.0,0.0,0.0,0.0,0.0,0.0,0.0,0.0,0.0,0.0,0.0,0.0,0.0,0.0,0.0,0.0,0.0,0.0,0.0,0.0,0.0,0.0,0.0,0.0,0.0,0.0,0.0,0.0,0.0,-3.772,-3.8539,-3.9513,-4.0604,-3.9552,-3.8967,0.0,0.0,0.0,0.0,0.0,0.0,0.0,0.0,0.0,0.0,0.0,0.0,0.0,0.0,0.0,0.0,0.0,0.0,0.0,0.0,0.0,0.0,0.0,0.0,0.0,0.0,0.0,0.0,0.0,0.0,0.0,0.0,0.0,0.0,0.0,0.0,0.0,0.0,0.0,0.0,0.0,0.0,0.0,0.0,0.0,0.0,0.0,0.0,0.0,0.0,0.0,0.0,0.0,0.0,0.0,0.0,0.0,0.0,0.0,0.0,0.0,0.0,0.0,0.0,0.0,0.0,0.0,0.0,0.0,0.0,0.0,0.0,0.0,0.0,0.0,0.0,0.0,0.0,0.0,0.0,0.0,0.0,0.0,0.0,0.0,0.0,0.0,0.0,0.0,0.0,0.0,0.0,0.0,0.0,0.0,0.0,0.0,0.0,0.0,0.0,0.0,0.0,0.0,0.0,0.0,0.0,0.0,0.0,0.0,-3.7175,0.0,-3.9513,-3.9744,-3.8967,-3.8227,0.0,0.0,0.0,0.0,0.0,0.0,0.0,0.0,0.0,0.0,0.0,0.0,0.0,0.0,0.0,0.0,0.0,0.0,0.0,0.0,0.0,0.0,0.0,0.0,0.0,0.0,0.0,0.0,0.0,0.0,0.0,0.0,0.0,0.0,0.0,0.0,0.0,0.0,0.0,0.0,0.0,0.0,0.0,0.0,0.0,0.0,0.0,0.0,0.0,0.0,0.0,0.0,0.0,0.0,0.0,0.0,0.0,0.0,0.0,0.0,0.0,0.0,0.0,0.0,0.0,0.0,0.0,0.0,0.0,0.0,0.0,0.0,0.0,0.0,0.0,0.0,0.0,0.0,0.0,0.0,0.0,0.0,0.0,0.0,0.0,0.0,0.0,0.0,0.0,0.0,0.0,0.0,0.0,0.0,0.0,0.0,0.0,0.0,0.0,0.0,0.0,0.0,0.0,0.0,0.0,0.0,0.0,0.0,-3.7136,-3.9588,-4.0484,-4.0523,-3.9821,-3.8928,-3.772,0.0,0.0,0.0,0.0,0.0,0.0,0.0,0.0,0.0,0.0,0.0,0.0,0.0,0.0,0.0,0.0,0.0,0.0,0.0,0.0,0.0,0.0,0.0,0.0,0.0,0.0,0.0,0.0,0.0,0.0,0.0,0.0,0.0,0.0,0.0,0.0,0.0,0.0,0.0,0.0,0.0,0.0,0.0,0.0,0.0,0.0,0.0,0.0,0.0,0.0,0.0,0.0,0.0,0.0,0.0,0.0,0.0,0.0,0.0,0.0,0.0,0.0,0.0,0.0,0.0,0.0,0.0,0.0,0.0,0.0,0.0,0.0,0.0,0.0,0.0,0.0,0.0,0.0,0.0,0.0,0.0,0.0,0.0,0.0,0.0,0.0,0.0,0.0,0.0,0.0,0.0,0.0,0.0,0.0,0.0,0.0,0.0,0.0,0.0,0.0,0.0,0.0,0.0,0.0,0.0,0.0,0.0,0.0,0.0,-3.7136,-3.8578,-3.9474,-3.9744,-3.8383,-3.7915,0.0,0.0,0.0,0.0,0.0,0.0,0.0,0.0,0.0,0.0,0.0,0.0,0.0,0.0,0.0,0.0,0.0,0.0,0.0,0.0,0.0,0.0,0.0,0.0,0.0,0.0,0.0,0.0,0.0,0.0,0.0,0.0,0.0,0.0,0.0,0.0,0.0,0.0,0.0,0.0,0.0,0.0,0.0,0.0,0.0,0.0,0.0,0.0,0.0,0.0,0.0,0.0,0.0,0.0,0.0,0.0,0.0,0.0,0.0,0.0,0.0,0.0,0.0,0.0,0.0,0.0,0.0,0.0,0.0,0.0,0.0,0.0,0.0,0.0,0.0,0.0,0.0,0.0,0.0,0.0,0.0,0.0,0.0,0.0,0.0,0.0,0.0,0.0,0.0,0.0,0.0,0.0,0.0,0.0,0.0,0.0,0.0,0.0,0.0,0.0,0.0,0.0,0.0,0.0,0.0,0.0,0.0,0.0,0.0,-3.7954,-3.9201,-4.0016,-4.0292,-3.8889,-3.8383,-3.8772,0.0,0.0,0.0,0.0,0.0,0.0,0.0,0.0,0.0,0.0,0.0,0.0,0.0,0.0,0.0,0.0,0.0,0.0,0.0,0.0,0.0,0.0,0.0,0.0,0.0,0.0,0.0,0.0,0.0,0.0,0.0,0.0,0.0,0.0,0.0,0.0,0.0,0.0,0.0,0.0,0.0,0.0,0.0,0.0,0.0,0.0,0.0,0.0,0.0,0.0,0.0,0.0,0.0,0.0,0.0,0.0,0.0,0.0,0.0,0.0,0.0,0.0,0.0,0.0,0.0,0.0,0.0,0.0,0.0,0.0,0.0,0.0,0.0,0.0,0.0,0.0,0.0,0.0,0.0,0.0,0.0,0.0,0.0,0.0,0.0,0.0,0.0,0.0,0.0,0.0,0.0,0.0,0.0,0.0,0.0,0.0,0.0,0.0,0.0,0.0,0.0,0.0,0.0,0.0,0.0,0.0,0.0,0.0,-4.1224,-4.212,-4.2198,-4.1341,-4.0331,-3.9045,0.0,0.0,0.0,0.0,0.0,0.0,0.0,0.0,0.0,0.0,0.0,0.0,0.0,0.0,0.0,0.0,0.0,0.0,0.0,0.0,0.0,0.0,0.0,0.0,0.0,0.0,0.0,0.0,0.0,0.0,0.0,0.0,0.0,0.0,0.0,0.0,0.0,0.0,0.0,0.0,0.0,0.0,0.0,0.0,0.0,0.0,0.0,0.0,0.0,0.0,0.0,0.0,0.0,0.0,0.0,0.0,0.0,0.0,0.0,0.0,0.0,0.0,0.0,0.0,0.0,0.0,0.0,0.0,0.0,0.0,0.0,0.0,0.0,0.0,0.0,0.0,0.0,0.0,0.0,0.0,0.0,0.0,0.0,0.0,0.0,0.0,0.0,0.0,0.0,0.0,0.0,0.0,0.0,0.0,0.0,0.0,0.0,0.0,0.0,0.0,0.0,0.0,0.0,0.0,0.0,0.0,0.0,0.0,0.0,-4.2939,-4.5046,-4.5436,-4.3916,-4.1227,-3.9902,0.0,0.0,0.0,0.0,0.0,0.0,0.0,0.0,0.0,0.0,0.0,0.0,0.0,0.0,0.0,0.0,0.0,0.0,0.0,0.0,0.0,0.0,0.0,0.0,0.0,0.0,0.0,0.0,0.0,0.0,0.0,0.0,0.0,0.0,0.0,0.0,0.0,0.0,0.0,0.0,0.0,0.0,0.0,0.0,0.0,0.0,0.0,0.0,0.0,0.0,0.0,0.0,0.0,0.0,0.0,0.0,0.0,0.0,0.0,0.0,0.0,0.0,0.0,0.0,0.0,0.0,0.0,0.0,0.0,0.0,0.0,0.0,0.0,0.0,0.0,0.0,0.0,0.0,0.0,0.0,0.0,0.0,0.0,0.0,0.0,0.0,0.0,0.0,0.0,0.0,0.0,0.0,0.0,0.0,0.0,0.0,0.0,0.0,0.0,0.0,0.0,0.0,0.0,0.0,0.0,0.0,0.0,0.0,-4.2432,-4.4111,-4.6683,-4.7579,-4.6566,-4.3565,-4.1656,0.0,0.0,0.0,0.0,0.0,0.0,0.0,0.0,0.0,0.0,0.0,0.0,0.0,0.0,0.0,0.0,0.0,0.0,0.0,0.0,0.0,0.0,0.0,0.0,0.0,0.0,0.0,0.0,0.0,0.0,0.0,0.0,0.0,0.0,0.0,0.0,0.0,0.0,0.0,0.0,0.0,0.0,0.0,0.0,0.0,0.0,0.0,0.0,0.0,0.0,0.0,0.0,0.0,0.0,0.0,0.0,0.0,0.0,0.0,0.0,0.0,0.0,0.0,0.0,0.0,0.0,0.0,0.0,0.0,0.0,0.0,0.0,0.0,0.0,0.0,0.0,0.0,0.0,0.0,0.0,0.0,0.0,0.0,0.0,0.0,0.0,0.0,0.0,0.0,0.0,0.0,0.0,0.0,0.0,0.0,0.0,0.0,0.0,0.0,0.0,0.0,0.0,0.0,0.0,0.0,0.0,0.0,0.0,-4.3293,-4.5011,-4.7579,-4.8943,-4.8826,-4.6336,-4.3803,0.0,0.0,0.0,0.0,0.0,0.0,0.0,0.0,0.0,0.0,0.0,0.0,0.0,0.0,0.0,0.0,0.0,0.0,0.0,0.0,0.0,0.0,0.0,0.0,0.0,0.0,0.0,0.0,0.0,0.0,0.0,0.0,0.0,0.0,0.0,0.0,0.0,0.0,0.0,0.0,0.0,0.0,0.0,0.0,0.0,0.0,0.0,0.0,0.0,0.0,0.0,0.0,0.0,0.0,0.0,0.0,0.0,0.0,0.0,0.0,0.0,0.0,0.0,0.0,0.0,0.0,0.0,0.0,0.0,0.0,0.0,0.0,0.0,0.0,0.0,0.0,0.0,0.0,0.0,0.0,0.0,0.0,0.0,0.0,0.0,0.0,0.0,0.0,0.0,0.0,0.0,0.0,0.0,0.0,0.0,0.0,0.0,0.0,0.0,0.0,0.0,0.0,0.0,0.0,0.0,0.0,0.0,0.0,-4.4147,-4.5907,-4.8436,-4.9722,-4.9722,-4.6608,-4.4306,0.0,0.0,0.0,0.0,0.0,0.0,0.0,0.0,0.0,0.0,0.0,0.0,0.0,0.0,0.0,0.0,0.0,0.0,0.0,0.0,0.0,0.0,0.0,0.0,0.0,0.0,0.0,0.0,0.0,0.0,0.0,0.0,0.0,0.0,0.0,0.0,0.0,0.0,0.0,0.0,0.0,0.0,0.0,0.0,0.0,0.0,0.0,0.0,-4.8372,0.0,0.0,0.0,0.0,0.0,0.0,0.0,0.0,0.0,0.0,0.0,0.0,0.0,0.0,0.0,0.0,0.0,0.0,0.0,0.0,0.0,0.0,0.0,0.0,0.0,0.0,0.0,0.0,0.0,0.0,0.0,0.0,0.0,0.0,0.0,0.0,0.0,0.0,0.0,0.0,0.0,0.0,0.0,0.0,0.0,0.0,0.0,0.0,0.0,0.0,0.0,0.0,0.0,0.0,0.0,0.0,0.0,0.0,0.0,-4.3838,-4.5592,-4.8086,-4.9449,-4.9372,-4.8047,-4.6332,0.0,0.0,0.0,0.0,0.0,0.0,0.0,0.0,0.0,0.0,0.0,0.0,0.0,0.0,0.0,0.0,0.0,0.0,0.0,0.0,0.0,0.0,0.0,0.0,0.0,0.0,0.0,0.0,0.0,0.0,0.0,0.0,0.0,0.0,0.0,0.0,0.0,0.0,0.0,0.0,0.0,0.0,0.0,0.0,0.0,0.0,0.0,0.0,0.0,0.0,0.0,0.0,0.0,0.0,0.0,0.0,0.0,0.0,0.0,0.0,0.0,0.0,0.0,0.0,0.0,0.0,0.0,0.0,0.0,0.0,0.0,0.0,0.0,0.0,0.0,0.0,0.0,0.0,0.0,0.0,0.0,0.0,0.0,0.0,0.0,0.0,0.0,0.0,0.0,0.0,0.0,0.0,0.0,0.0,0.0,0.0,0.0,0.0,0.0,0.0,0.0,0.0,0.0,0.0,0.0,0.0,0.0,-4.1653,-4.3215,-4.5089,-4.7384,-4.867,-4.8787,-4.9449,-4.8241,-4.5011,0.0,0.0,0.0,0.0,0.0,0.0,0.0,0.0,0.0,0.0,0.0,0.0,0.0,0.0,0.0,0.0,0.0,0.0,0.0,0.0,0.0,0.0,0.0,0.0,0.0,0.0,0.0,0.0,0.0,0.0,0.0,0.0,0.0,0.0,0.0,0.0,0.0,0.0,-4.6077,-4.6685,0.0,0.0,0.0,0.0,0.0,0.0,0.0,0.0,-5.0206,0.0,0.0,0.0,0.0,0.0,0.0,0.0,0.0,0.0,0.0,0.0,0.0,0.0,0.0,0.0,0.0,0.0,0.0,0.0,0.0,0.0,0.0,0.0,0.0,0.0,0.0,0.0,0.0,0.0,0.0,0.0,0.0,0.0,0.0,0.0,0.0,0.0,0.0,0.0,0.0,0.0,0.0,0.0,0.0,0.0,0.0,0.0,0.0,0.0,0.0,0.0,0.0,0.0,0.0,0.0,0.0,-4.29,-4.2549,-4.3487,-4.5942,-4.7111,-4.8047,-4.8748,-4.8943,-4.7696,-4.5011,0.0,0.0,0.0,0.0,0.0,0.0,0.0,0.0,0.0,0.0,0.0,0.0,0.0,0.0,0.0,0.0,0.0,0.0,0.0,0.0,0.0,0.0,0.0,0.0,0.0,0.0,0.0,0.0,0.0,0.0,0.0,0.0,0.0,0.0,0.0,0.0,0.0,0.0,0.0,-4.9595,-5.0092,0.0,0.0,0.0,0.0,0.0,0.0,0.0,0.0,-4.9633,0.0,0.0,0.0,0.0,0.0,0.0,0.0,0.0,0.0,0.0,0.0,0.0,0.0,0.0,0.0,0.0,0.0,0.0,0.0,0.0,0.0,0.0,0.0,0.0,0.0,0.0,0.0,0.0,0.0,0.0,0.0,0.0,0.0,0.0,0.0,0.0,0.0,0.0,0.0,0.0,0.0,0.0,0.0,0.0,0.0,0.0,0.0,0.0,0.0,0.0,0.0,0.0,0.0,0.0,0.0,-4.2198,-4.3176,-4.4462,-4.6141,-4.7033,-4.7696,-4.8086,-4.77,-4.6449,0.0,0.0,0.0,0.0,0.0,0.0,0.0,0.0,0.0,0.0,0.0,0.0,0.0,0.0,0.0,0.0,0.0,0.0,0.0,0.0,0.0,0.0,0.0,0.0,0.0,0.0,0.0,0.0,0.0,0.0,0.0,0.0,0.0,0.0,0.0,0.0,0.0,0.0,0.0,0.0,-5.1314,-5.2079,-5.3378,0.0,0.0,0.0,0.0,0.0,0.0,-5.0741,-4.9786,0.0,0.0,0.0,0.0,0.0,0.0,0.0,0.0,0.0,0.0,0.0,0.0,0.0,0.0,0.0,0.0,0.0,0.0,0.0,0.0,0.0,0.0,0.0,0.0,0.0,0.0,0.0,0.0,0.0,0.0,0.0,0.0,0.0,0.0,0.0,0.0,0.0,0.0,0.0,0.0,0.0,0.0,0.0,0.0,0.0,0.0,0.0,0.0,0.0,0.0,0.0,0.0,0.0,0.0,0.0,-4.1149,-4.3448,-4.5127,-4.6176,-4.6878,-4.7345,-4.7462,-4.6488,-4.5124,0.0,0.0,0.0,0.0,0.0,0.0,0.0,0.0,0.0,0.0,0.0,0.0,0.0,0.0,0.0,0.0,0.0,0.0,0.0,0.0,0.0,0.0,0.0,0.0,0.0,0.0,0.0,0.0,0.0,0.0,0.0,0.0,0.0,0.0,0.0,0.0,0.0,0.0,0.0,0.0,0.0,-5.4218,-5.525,-5.4486,0.0,0.0,0.0,0.0,-5.4142,-5.2805,0.0,0.0,0.0,0.0,0.0,0.0,0.0,0.0,0.0,0.0,0.0,0.0,0.0,0.0,0.0,0.0,0.0,0.0,0.0,0.0,0.0,0.0,0.0,0.0,0.0,0.0,0.0,0.0,0.0,0.0,0.0,0.0,0.0,0.0,0.0,0.0,0.0,0.0,0.0,0.0,0.0,0.0,0.0,0.0,0.0,0.0,0.0,0.0,0.0,0.0,0.0,0.0,0.0,0.0,0.0,0.0,-4.1107,-4.2861,-4.4575,-4.6098,-4.6297,-4.6725,-4.7423,-4.5907,-4.4228,0.0,0.0,0.0,0.0,0.0,0.0,0.0,0.0,0.0,0.0,0.0,0.0,0.0,0.0,0.0,0.0,0.0,0.0,0.0,0.0,0.0,0.0,0.0,0.0,0.0,0.0,0.0,0.0,0.0,0.0,0.0,0.0,0.0,0.0,0.0,0.0,0.0,0.0,0.0,0.0,0.0,-5.6855,-5.5594,-5.6511,-5.6473,0.0,0.0,-5.739,-5.5556,-5.8001,0.0,0.0,0.0,0.0,0.0,0.0,0.0,0.0,0.0,0.0,0.0,0.0,0.0,0.0,0.0,0.0,0.0,0.0,0.0,0.0,0.0,0.0,0.0,0.0,0.0,0.0,0.0,0.0,0.0,0.0,0.0,0.0,0.0,0.0,0.0,0.0,0.0,0.0,0.0,0.0,0.0,0.0,0.0,0.0,0.0,0.0,0.0,0.0,0.0,0.0,0.0,0.0,0.0,0.0,0.0,-3.9753,-4.096,-4.3155,-4.4872,-4.6031,-4.6134,-4.6349,-4.6764,-4.4618,-4.2864,0.0,0.0,0.0,0.0,0.0,0.0,0.0,0.0,0.0,0.0,0.0,0.0,0.0,0.0,0.0,0.0,0.0,0.0,0.0,0.0,0.0,0.0,0.0,0.0,0.0,0.0,0.0,0.0,0.0,0.0,0.0,0.0,0.0,0.0,0.0,0.0,0.0,0.0,0.0,0.0,0.0,0.0,-5.7453,-5.7734,0.0,0.0,0.0,-5.8039,-5.6969,0.0,0.0,0.0,0.0,0.0,0.0,0.0,0.0,0.0,0.0,0.0,0.0,0.0,0.0,0.0,0.0,0.0,0.0,0.0,0.0,0.0,0.0,0.0,0.0,0.0,0.0,0.0,0.0,0.0,0.0,0.0,0.0,0.0,0.0,0.0,0.0,0.0,0.0,0.0,0.0,0.0,0.0,0.0,0.0,0.0,0.0,0.0,0.0,0.0,0.0,0.0,0.0,0.0,0.0,0.0,0.0,0.0,-4.0849,-4.3573,-4.5326,-4.5942,-4.6022,-4.6069,-4.6123,-4.4058,0.0,0.0,0.0,0.0,0.0,0.0,0.0,0.0,0.0,0.0,0.0,0.0,0.0,0.0,0.0,0.0,0.0,0.0,0.0,0.0,0.0,0.0,0.0,0.0,0.0,0.0,0.0,-4.0653,0.0,0.0,0.0,0.0,0.0,0.0,0.0,0.0,0.0,0.0,0.0,0.0,0.0,0.0,-5.7619,-5.8651,-5.8994,-5.9376,0.0,0.0,-5.8842,-5.8842,-5.972,-5.9033,0.0,0.0,0.0,0.0,0.0,0.0,0.0,0.0,0.0,0.0,0.0,0.0,0.0,0.0,0.0,0.0,0.0,0.0,0.0,0.0,0.0,0.0,0.0,0.0,0.0,0.0,0.0,0.0,0.0,0.0,0.0,0.0,0.0,0.0,0.0,0.0,0.0,0.0,0.0,0.0,0.0,0.0,0.0,0.0,0.0,0.0,0.0,0.0,0.0,0.0,0.0,0.0,0.0,0.0,0.0,-4.0922,-4.4014,-4.5699,-4.5911,-4.5923,-4.598,-4.6078,-4.5144,-4.3491,0.0,0.0,0.0,0.0,0.0,0.0,0.0,0.0,0.0,0.0,0.0,0.0,0.0,0.0,0.0,0.0,0.0,0.0,0.0,0.0,0.0,0.0,0.0,0.0,0.0,0.0,0.0,0.0,0.0,0.0,0.0,0.0,0.0,0.0,0.0,0.0,0.0,0.0,0.0,0.0,0.0,-5.8675,-5.8077,-6.0599,-6.2586,0.0,0.0,-6.1363,-6.1325,-6.4611,-6.4535,-5.6625,0.0,0.0,0.0,0.0,0.0,0.0,0.0,0.0,0.0,0.0,0.0,0.0,0.0,0.0,0.0,0.0,0.0,0.0,0.0,0.0,0.0,0.0,0.0,0.0,0.0,0.0,0.0,0.0,0.0,0.0,0.0,0.0,0.0,0.0,0.0,0.0,0.0,0.0,0.0,0.0,0.0,0.0,0.0,0.0,0.0,0.0,0.0,0.0,0.0,0.0,0.0,0.0,0.0,-3.9746,-4.0686,-4.2922,-4.4616,-4.5588,-4.5761,-4.5893,-4.598,-4.5225,-4.3618,0.0,0.0,0.0,0.0,0.0,0.0,0.0,0.0,0.0,0.0,0.0,0.0,0.0,0.0,0.0,0.0,0.0,0.0,0.0,0.0,0.0,0.0,0.0,0.0,0.0,0.0,0.0,0.0,-4.4021,-4.4264,-4.4285,0.0,0.0,0.0,0.0,0.0,0.0,0.0,0.0,0.0,0.0,-5.9554,-6.079,-6.2089,0.0,0.0,-6.2968,-6.2395,-6.2395,-6.3274,-6.2395,-5.7695,-5.5441,0.0,0.0,0.0,0.0,0.0,0.0,0.0,0.0,0.0,0.0,0.0,0.0,0.0,0.0,0.0,0.0,0.0,0.0,0.0,0.0,0.0,0.0,0.0,0.0,0.0,0.0,0.0,0.0,0.0,0.0,0.0,0.0,0.0,0.0,0.0,0.0,0.0,0.0,0.0,0.0,0.0,0.0,0.0,0.0,0.0,0.0,0.0,0.0,0.0,0.0,0.0,0.0,-3.9524,-4.0597,-4.2664,-4.432,-4.5435,-4.5371,-4.5479,-4.5809,-4.5087,-4.3723,0.0,0.0,0.0,0.0,0.0,0.0,0.0,0.0,0.0,0.0,0.0,0.0,0.0,0.0,0.0,0.0,0.0,0.0,0.0,0.0,0.0,0.0,0.0,0.0,0.0,0.0,0.0,0.0,-4.4888,-4.4545,-4.4267,0.0,0.0,0.0,0.0,0.0,0.0,0.0,0.0,0.0,0.0,-6.0026,-6.154,-6.2166,-6.2662,-6.3021,-6.2128,-6.1554,-6.2089,-6.1822,-6.0676,-5.7963,0.0,0.0,0.0,0.0,0.0,0.0,0.0,0.0,0.0,0.0,0.0,0.0,0.0,0.0,0.0,0.0,0.0,0.0,0.0,0.0,0.0,0.0,0.0,0.0,0.0,0.0,0.0,0.0,0.0,0.0,-3.445,0.0,0.0,0.0,0.0,0.0,0.0,0.0,0.0,0.0,0.0,0.0,0.0,0.0,0.0,0.0,0.0,0.0,0.0,0.0,0.0,0.0,0.0,-4.0526,-4.0674,-4.3625,-4.5273,-4.5362,-4.4643,-4.4743,-4.5603,-4.4886,-4.4056,-4.3245,0.0,0.0,0.0,0.0,0.0,0.0,0.0,0.0,0.0,0.0,0.0,0.0,0.0,0.0,0.0,0.0,0.0,0.0,0.0,0.0,0.0,0.0,0.0,0.0,0.0,0.0,-4.447,-4.5042,-4.5111,0.0,0.0,0.0,0.0,0.0,0.0,0.0,0.0,0.0,0.0,-5.7734,-6.0064,-5.9363,-6.0599,-6.1478,-6.0714,-5.9224,-5.8689,-6.0332,-6.1096,-6.0485,0.0,0.0,0.0,0.0,0.0,0.0,0.0,0.0,0.0,0.0,0.0,0.0,0.0,0.0,0.0,0.0,0.0,0.0,0.0,0.0,0.0,0.0,0.0,0.0,0.0,0.0,0.0,-3.6464,-3.6149,0.0,0.0,0.0,0.0,0.0,0.0,0.0,0.0,0.0,0.0,0.0,-4.0688,-4.2033,0.0,0.0,0.0,0.0,0.0,0.0,0.0,0.0,0.0,0.0,0.0,0.0,-4.0254,-4.1386,-4.336,-4.4447,-4.4488,-4.4825,-4.4901,-4.4734,-4.5046,-4.4607,-4.326,0.0,0.0,0.0,0.0,0.0,0.0,0.0,0.0,0.0,0.0,0.0,0.0,0.0,0.0,0.0,0.0,0.0,0.0,0.0,0.0,0.0,0.0,0.0,0.0,0.0,-4.538,0.0,0.0,0.0,0.0,0.0,0.0,0.0,0.0,0.0,0.0,0.0,-5.2551,-5.5403,-5.7963,-5.9644,-5.9911,-6.1402,-6.2357,0.0,0.0,0.0,0.0,0.0,0.0,0.0,0.0,0.0,0.0,0.0,0.0,0.0,0.0,-5.7772,-5.2451,-5.1993,-5.2469,-5.259,0.0,0.0,0.0,0.0,0.0,0.0,0.0,0.0,0.0,0.0,0.0,0.0,0.0,0.0,-3.7903,0.0,-3.7394,0.0,0.0,0.0,0.0,0.0,0.0,0.0,0.0,-4.1538,-4.2502,-4.2263,-4.361,-4.3841,0.0,-4.2725,-4.0315,0.0,0.0,0.0,0.0,0.0,0.0,0.0,0.0,-4.0229,-4.1275,-4.3379,-4.4437,-4.4475,-4.4737,-4.4815,-4.4585,-4.5243,-4.5084,-4.4021,-4.2865,-4.1654,0.0,0.0,0.0,0.0,0.0,0.0,0.0,0.0,0.0,0.0,0.0,0.0,0.0,0.0,0.0,0.0,0.0,0.0,0.0,0.0,0.0,0.0,0.0,-4.6474,0.0,0.0,0.0,0.0,0.0,0.0,0.0,0.0,0.0,-4.9411,-5.1684,-5.4015,-5.6282,-5.8536,-5.9759,-5.9147,0.0,0.0,0.0,0.0,0.0,0.0,0.0,-5.9453,-6.0269,-5.9338,-5.9144,-6.1164,-6.2085,-6.252,-6.2421,0.0,0.0,-5.6349,-5.5734,-5.6052,-5.586,-5.563,-5.5379,-5.5212,-5.5154,-5.4981,0.0,0.0,0.0,0.0,0.0,0.0,0.0,0.0,-4.0629,-3.9786,0.0,-3.994,0.0,0.0,0.0,0.0,0.0,-4.1338,0.0,0.0,-4.4489,-4.5163,-4.3071,-4.3787,-4.3749,-4.3023,-4.3749,-4.2412,-3.9382,-3.9398,0.0,0.0,0.0,0.0,0.0,0.0,-4.0438,-4.0652,-4.3685,-4.5288,-4.5201,-4.4475,-4.4437,-4.525,-4.5351,-4.5429,-4.5399,-4.4025,-4.3559,-4.4253,-4.0558,0.0,0.0,0.0,0.0,0.0,0.0,0.0,0.0,0.0,0.0,0.0,0.0,0.0,0.0,0.0,0.0,0.0,0.0,0.0,0.0,-4.7597,0.0,0.0,0.0,0.0,0.0,0.0,0.0,0.0,0.0,0.0,-5.283,-5.3633,-5.4753,-5.6396,0.0,0.0,0.0,0.0,-6.0676,-5.8459,-5.8727,-5.9606,-6.046,-6.1096,-6.1287,-6.0676,0.0,0.0,-6.4214,-6.3356,-6.2669,-6.2593,-6.3671,-6.3707,-6.1427,-6.0151,-5.9272,-5.8521,-5.8031,-5.7641,-5.758,-5.7491,-5.7206,-4.079,0.0,0.0,0.0,0.0,-3.9876,-4.0781,-4.2263,-4.2225,-4.1994,-4.157,-4.2032,0.0,0.0,0.0,0.0,0.0,0.0,-4.1514,-4.2228,-4.3943,-4.4961,-4.5468,-4.6298,-4.6604,-4.6347,-4.5955,-4.5277,-4.4322,-4.2622,-4.0205,-3.714,0.0,0.0,0.0,0.0,-4.1225,-4.2939,-4.4496,-4.501,-4.4388,-4.4743,-4.5048,-4.5277,-4.5309,-4.5339,-4.535,-4.5456,-4.5093,-4.4154,-4.3649,0.0,0.0,0.0,0.0,0.0,0.0,0.0,0.0,0.0,0.0,0.0,0.0,0.0,0.0,0.0,0.0,0.0,0.0,0.0,-4.5802,-4.7712,-4.8318,0.0,0.0,0.0,0.0,0.0,0.0,0.0,0.0,0.0,-5.5832,-5.5383,-5.5151,0.0,0.0,-5.7046,-5.6664,-5.8459,-5.9988,-6.0446,-6.1249,0.0,0.0,-6.1784,-6.1287,-6.283,-6.4581,-6.5743,-6.5677,-6.5859,-6.6038,-6.593,-6.6256,-6.6012,-6.4595,-6.3851,-6.316,-6.2429,-6.2039,-6.1825,-6.1559,-6.1505,-6.1375,-4.3886,-4.3176,-4.1591,-4.1554,-4.2393,-4.2124,-4.3064,-4.4777,-4.4135,-4.3866,-4.3866,-4.3866,-4.2586,-4.05,-4.0454,0.0,0.0,0.0,-4.2563,-4.3866,-4.4296,-4.4857,-4.5534,-4.6031,-4.6298,-4.626,-4.5764,-4.5698,-4.6003,-4.4169,-4.1887,-3.9166,0.0,0.0,-3.9128,-4.0616,-4.2057,-4.3482,-4.4704,-4.5048,-4.4551,-4.501,-4.5277,-4.5277,-4.5277,-4.543,-4.5774,-4.6233,-4.6347,-4.6042,-4.5648,-4.4394,0.0,0.0,0.0,0.0,0.0,0.0,0.0,0.0,0.0,0.0,0.0,-4.0253,-3.8673,0.0,0.0,0.0,-4.6176,-4.6932,-4.6932,-4.8335,0.0,0.0,0.0,0.0,0.0,0.0,0.0,-5.1488,-5.287,-5.4829,-5.7657,-5.7156,-5.6966,-5.8234,-5.8335,-5.8266,-5.8075,0.0,-6.1745,-6.2089,-6.3121,-6.4076,-6.4573,-6.3388,-6.293,-6.442,-6.5413,-6.6118,-6.6395,-6.6802,-6.7151,-6.7385,-6.7278,-6.6804,-6.574,-6.5261,-6.4793,-6.3973,-6.3654,-6.3451,-6.3218,-6.3171,-6.3075,-4.7101,-4.757,-4.3634,-4.3329,-4.5288,-4.4513,-4.5496,-4.7444,-4.5965,-4.5277,-4.5277,-4.5277,-4.3578,-4.071,-4.0701,0.0,-4.3133,-4.3781,-4.4513,-4.5277,-4.525,-4.4781,-4.4006,-4.3968,-4.393,-4.4006,-4.4006,-4.4437,-4.5239,-4.4437,-4.3586,-4.2756,-4.1266,-4.0081,-3.9393,-4.1533,-4.2756,-4.2908,-4.4437,-4.525,-4.5277,-4.5277,-4.5277,-4.5277,-4.5277,-4.566,-4.6347,-4.6462,-4.7264,-4.8804,-4.6768,-4.5812,-4.6309,0.0,0.0,0.0,0.0,0.0,0.0,0.0,0.0,0.0,0.0,0.0,0.0,0.0,0.0,0.0,-4.8833,0.0,-4.9409,-4.9409,0.0,0.0,0.0,-5.0141,-5.1815,-5.3441,-5.4712,-5.5248,0.0,0.0,-5.872,0.0,-5.9741,-6.1491,-6.2231,-6.2063,-6.0599,-6.2924,-6.4573,-6.3006,-6.4191,-6.5146,-6.4955,-6.4955,-6.5031,-6.5261,-6.5413,-6.5704,-6.6284,-6.6303,-6.6531,-6.6975,-6.6749,-6.607,-6.5278,-6.4769,-6.4382,-6.3645,-6.3373,-6.3231,-6.316,-6.2978,-6.283,-4.799,-4.864,-4.6997,-4.6271,-4.6194,-4.5993,-4.5889,-4.5851,-4.5479,-4.5277,-4.5277,-4.5277,-4.4868,-4.4113,-4.4113,-4.4353,-4.4727,-4.4916,-4.5086,-4.525,-4.4628,-4.4197,-4.3968,-4.3357,-4.3405,-4.3968,-4.4006,-4.4475,-4.5211,-4.4427,-4.3586,-4.2794,-4.2412,-4.1762,-4.096,-4.1495,-4.245,-4.3701,-4.4083,-4.4628,-4.5277,-4.5277,-4.5277,-4.5277,-4.5277,-4.5403,-4.5594,-4.6194,-4.6997,-4.8028,-4.7532,-4.6997,-4.65,-4.2947,0.0,0.0,0.0,0.0,0.0,0.0,0.0,0.0,0.0,-4.1187,-3.7968,0.0,-4.5083,0.0,-4.9381,-5.1687,-5.043,-5.0891,0.0,0.0,-5.0947,-5.1896,-5.3596,-5.5205,-5.6192,-5.6333,-5.7592,-5.9072,-6.0609,-6.1245,-6.2222,-6.4003,-6.2353,-6.1043,-6.1258,-6.1922,-6.2624,-6.293,-6.3312,-6.3465,-6.3618,-6.4076,-6.4688,-6.5299,-6.5375,-6.5475,-6.5588,-6.5023,-6.4584,-6.4516,-6.3944,-6.3408,-6.3231,-6.3093,-6.3074,-6.3012,-6.3075,-6.3123,-6.2929,-6.283,-6.2805,-4.8525,-4.9519,-4.8323,-4.7521,-4.7024,-4.6653,-4.6462,-4.6347,-4.5621,-4.5507,-4.5812,-4.5468,-4.5277,-4.5277,-4.5277,-4.5277,-4.5277,-4.5277,-4.5086,-4.4704,-4.4197,-4.3624,-4.2908,-4.2832,-4.2832,-4.2908,-4.3624,-4.4236,-4.4704,-4.4628,-4.436,-4.3902,-4.3902,-4.3673,-4.3186,-4.245,-4.2526,-4.3443,-4.3815,-4.4437,-4.5239,-4.5277,-4.4944,-4.4208,-4.4513,-4.436,-4.3645,-4.4743,-4.5611,-4.6107,-4.65,-4.6615,-4.6462,-4.3329,-4.1266,0.0,0.0,0.0,0.0,0.0,0.0,0.0,0.0,0.0,0.0,0.0,-4.6761,-4.5956,-5.0246,-5.2274,-5.0218,-5.116,-5.2005,-5.2214,-5.3009,-5.4292,-5.6328,-5.7302,-5.7966,-5.8268,-5.9007,-5.9946,-6.1286,-6.1758,-6.2525,-6.3953,-6.2971,-6.2395,-6.3115,-6.3588,-6.3923,-6.4,-6.4,-6.3732,-6.3045,-6.3618,-6.4359,-6.4764,-6.4879,-6.494,-6.5238,-6.4306,-6.3558,-6.3617,-6.2811,-6.2071,-6.1994,-6.1722,-6.1703,-6.2144,-6.2414,-6.2401,-6.2279,-6.2254,-6.2254,-4.8869,-5.013,-4.8525,-4.7788,-4.775,-4.6871,-4.6871,-4.7379,-4.5927,-4.5698,-4.6309,-4.5468,-4.5135,-4.5135,-4.525,-4.525,-4.5125,-4.5125,-4.4743,-4.4006,-4.3777,-4.2947,-4.1686,-4.2297,-4.2335,-4.1877,-4.3329,-4.4045,-4.4159,-4.4934,-4.525,-4.5125,-4.525,-4.525,-4.5097,-4.3787,-4.3023,-4.2832,-4.3673,-4.4475,-4.5086,-4.501,-4.4294,-4.2908,-4.3395,-4.3051,-4.1762,-4.3061,-4.3892,-4.4006,-4.4743,-4.5621,-4.6538,-4.352,-4.2192,0.0,-4.1772,0.0,0.0,0.0,0.0,0.0,0.0,0.0,0.0,-4.8718,-4.9092,-4.868,-5.1446,-5.2444,-5.0434,-5.1743,-5.324,-5.4614,-5.557,-5.6928,-5.891,-5.928,-5.9622,-6.0261,-6.037,-6.0722,-6.1355,-6.1575,-6.1972,-6.2818,-6.3435,-6.3908,-6.4787,-6.5368,-6.549,-6.5031,-6.4802,-6.377,-6.2968,-6.3312,-6.3809,-6.3962,-6.4053,-6.4344,-6.507,-6.3847,-6.2947,-6.3426,-6.2549,-6.1581,-6.1307,-6.09,-6.0943,-6.1545,-6.1802,-6.1875,-6.1851,-6.1741,-6.163,-4.9442,-5.013,-4.8487,-4.7788,-4.7712,-4.6871,-4.6194,-4.5736,-4.543,-4.5403,-4.5468,-4.4628,-4.4246,-4.4312,-4.4972,-4.4934,-4.4236,-4.4236,-4.4159,-4.393,-4.2603,-4.2183,-4.2488,-4.1991,-4.2374,-4.351,-4.3854,-4.435,-4.5048,-4.5211,-4.4934,-4.4274,-4.4934,-4.4934,-4.4322,0.0,0.0,0.0,-4.4284,-4.4781,-4.4236,-4.3596,-4.3138,-4.2794,-4.2259,0.0,-4.2526,-4.287,-4.3329,-4.3968,-4.4159,0.0,0.0,0.0,0.0,0.0,0.0,0.0,0.0,0.0,0.0,0.0,-4.8094,-4.7941,-4.7079,-4.8373,-5.0089,-5.1891,-5.3283,-5.4434,-5.5293,-5.6302,-5.7031,-5.7364,-5.8092,-5.8757,-5.9216,-5.9829,-6.0313,-6.0439,-6.0939,-6.1382,-6.1652,-6.2204,-6.2604,-6.282,-6.3035,-6.3183,-6.3282,-6.3565,-6.3297,-6.2471,-6.2051,-6.1631,-6.1784,-6.2013,-6.251,-6.293,-6.3159,-6.3465,-6.4114,-6.3006,-6.2107,-6.268,-6.1961,-6.0994,-6.0447,-6.1177,-6.1638,-6.1654,-6.2071,-6.2585,-6.2548,-6.2034,-6.1777,-4.9557,0.0,-4.8028,-4.7406,0.0,-4.6462,-4.543,-4.4666,-4.4666,-4.4666,-4.459,-4.3787,-4.3854,-4.4628,-4.4666,-4.4666,-4.4628,-4.4197,-4.3777,-4.3357,-4.2526,-4.2144,-4.2183,-4.2565,-4.2947,-4.3443,-4.4246,-4.4628,-4.4666,-4.5086,-4.5277,-4.5229,-4.566,-4.6118,-4.6538,-4.7341,-4.6729,-4.4666,-4.5086,-4.5277,-4.5229,-4.4857,-4.4246,-4.3433,0.0,0.0,0.0,0.0,0.0,0.0,0.0,0.0,0.0,0.0,0.0,-4.828,-4.6939,-4.6789,-4.8528,-4.9411,-5.042,-5.1718,-5.2218,-5.1698,-4.9987,-5.1436,-5.3114,-5.4764,-5.5316,-5.606,-5.7287,-5.7862,-5.8272,-5.8617,-5.9026,-5.9344,-5.975,-6.0223,-6.048,-6.0518,-6.0822,-6.1117,-6.1185,-6.1461,-6.1673,-6.1767,-6.2056,-6.1975,-6.1325,-6.2128,-6.2586,-6.1745,-6.1287,-6.0981,-6.1019,-6.1402,-6.1707,-6.2166,-6.2242,-6.2624,-6.3427,-6.2128,-6.1177,-6.1673,-6.1006,-6.0128,-5.96,-5.994,-6.0344,-6.0478,-6.108,-6.1777,-6.2071,-6.1557,-6.1117,-4.9557,-5.0054,-4.7723,-4.7139,-4.7674,-4.6156,-4.4934,-4.4006,0.0,0.0,0.0,-4.3367,-4.3787,-4.501,-4.4312,-4.4399,-4.501,-4.4169,-4.351,-4.3023,-4.2842,-4.2498,-4.203,-4.3367,-4.3749,-4.3329,-4.4628,-4.4934,-4.4274,-4.4972,-4.5698,-4.6462,-4.6642,-4.7608,-4.9263,-4.9977,-4.9251,-4.7226,-4.6233,-4.5965,-4.65,-4.6385,-4.5621,-4.4274,-4.542,-4.5163,-4.3329,-4.4437,-4.4513,-4.3367,-4.4551,-4.5823,-4.6855,-4.633,-4.7253,-4.9844,-4.9307,-4.9859,-5.2179,-5.2986,-5.4007,-5.5588,-5.5703,-5.5077,-5.364,-5.482,-5.5873,-5.6591,-5.6839,-5.7301,-5.8017,-5.8362,-5.8719,-5.9356,-5.9433,-5.9687,-6.0297,-6.0491,-6.0506,-6.052,-6.0597,-6.0636,-6.0661,-6.0609,-6.048,-6.0594,-6.1075,-6.0867,-5.9745,-6.0828,-6.1745,-6.1134,-6.1019,-6.1096,-6.0714,-6.0905,-6.1363,-6.1363,-6.1402,-6.1745,-6.2357,-6.1488,-6.0722,-6.1435,-6.0488,-5.9627,-5.892,-5.9128,-5.9013,-5.9181,-5.9979,-6.075,-6.1153,-6.075,-6.0419,-4.9557,-5.013,-4.8361,-4.7674,-4.7712,-4.6768,-4.5468,-4.3968,-4.3291,-4.3787,-4.5048,-4.4208,-4.3968,-4.4159,-4.4045,-4.4083,-4.4121,-4.3329,-4.3281,0.0,-4.3111,-4.3101,-4.3663,-4.3942,-4.4401,-4.4944,-4.5163,-4.525,-4.5125,-4.5239,-4.5698,-4.6538,-4.7253,-4.8449,-5.0015,-5.0245,-5.013,-4.9748,-4.8246,-4.7139,-4.65,-4.5812,-4.5354,-4.5125,-4.4666,-4.459,-4.4934,-4.4513,-4.4437,-4.4895,-4.5173,-4.6379,-4.8613,-4.8701,-5.0161,-5.3289,-5.2839,-5.2899,-5.4038,-5.4231,-5.4692,-5.5588,-5.5703,-5.5588,-5.5385,-5.5495,-5.5631,-5.5765,-5.697,-5.7864,-5.8003,-5.9188,-5.9991,-6.0168,-6.0261,-6.0351,-6.0428,-6.0533,-6.0585,-6.0648,-6.0649,-6.0635,-6.0748,-6.0597,-6.0558,-6.0571,-6.0453,-6.0141,-5.93,-5.9376,-5.9592,-5.9606,-6.0102,-6.0446,-6.046,-6.046,-6.0637,-6.0575,-6.0599,-6.1096,-6.2471,-6.1376,-6.0738,-6.2062,-6.1186,-6.0153,-5.9171,-6.0465,-6.047,-5.9632,-6.0236,-6.1067,-6.0676,-6.0015,-6.0089,-4.9977,-5.0092,-4.8476,-4.7788,-4.7674,-4.5916,-4.5,-4.4628,-4.3815,-4.3854,-4.4475,-4.3711,-4.3586,-4.4006,-4.4006,-4.4006,-4.4006,-4.3665,-4.3713,-4.4019,-4.3733,-4.3743,-4.4135,-4.4556,-4.5005,-4.5367,-4.5337,-4.5507,-4.5927,-4.5965,-4.6615,-4.7876,-4.8754,-4.9545,-5.0245,-5.0283,-5.0283,-5.0283,-4.9137,-4.8296,-4.7914,-4.757,-4.7352,-4.7352,-4.7341,-4.7608,-4.799,-4.7646,-4.7417,-4.739,-4.7832,-4.8821,-5.0424,-5.061,-5.193,-5.477,-5.4282,-5.4188,-5.5088,-5.5126,-5.528,-5.5665,-5.5643,-5.566,-5.5621,-5.5604,-5.57,-5.6089,-5.6869,-5.762,-5.8421,-5.9262,-5.972,-5.9682,-6.0171,-6.0288,-5.9957,-6.0355,-6.066,-6.0685,-6.0697,-6.0722,-6.0781,-6.0685,-6.0585,-6.0533,-5.9816,-5.8765,-5.7925,-5.8192,-5.8612,-5.9033,-5.9453,-5.9873,-6.0307,-6.0384,-6.0384,-6.0384,-6.0384,-6.0714,-6.1464,-6.0927,-6.1028,-6.1133,-6.0884,-6.0473,-5.97,-5.9885,-5.9915,-5.9785,-5.9779,-6.0147,-5.9819,-5.9758,-6.0138,-5.0206,-4.9901,-4.8449,-4.7597,-4.7062,-4.5114,-4.4666,-4.5211,-4.4551,-4.4197,-4.3968,-4.352,-4.3711,-4.4236,-4.4083,-4.4131,-4.4266,-4.4153,-4.4211,-4.4384,-4.447,-4.4489,-4.4518,-4.5141,-4.5428,-4.5436,-4.551,-4.5899,-4.6462,-4.668,-4.757,-4.9033,-4.9901,-5.0283,-5.0283,-5.0283,-5.0283,-5.0245,-4.9671,-4.9377,-4.9366,-4.9366,-4.9377,-4.9404,-4.9939,-5.0283,-5.0283,-5.0333,-5.0038,-4.9465,-5.0057,-5.0894,-5.1913,-5.2072,-5.3163,-5.5242,-5.5023,-5.4968,-5.5588,-5.5703,-5.5703,-5.5682,-5.5599,-5.5604,-5.557,-5.5485,-5.5705,-5.632,-5.6524,-5.716,-5.8192,-5.8741,-5.8855,-5.8907,-5.9509,-5.9728,-5.9435,-5.9957,-6.0517,-6.0683,-6.0757,-6.0781,-6.0769,-6.0734,-6.0584,-6.0112,-5.891,-5.7645,-5.6881,-5.7097,-5.7619,-5.8383,-5.8994,-5.9682,-6.0307,-6.0384,-6.0384,-6.0384,-6.0384,-6.0547,-6.0733,-6.1012,-6.1149,-6.0767,-6.0488,-6.0378,-6.0227,-5.9706,-5.9223,-5.9153,-5.932,-5.9348,-5.9048,-5.9318,-5.9722,-4.9901,-4.9098,-4.822,-4.692,-4.5621,-4.5277,-4.5201,-4.5288,-4.5201,-4.4704,-4.4131,-4.4743,-4.5059,-4.5048,-4.436,-4.4457,-4.5082,-4.4469,-4.4547,-4.5208,-4.5332,-4.5332,-4.5218,-4.5409,-4.5458,-4.5495,-4.6087,-4.6439,-4.6615,-4.7379,-4.8181,-4.906,-4.9901,-5.0283,-5.0283,-5.0283,-5.0283,-5.0283,-5.0206,-5.0206,-5.0206,-5.0206,-5.0206,-5.0168,-5.0245,-5.0283,-5.0283,-5.0367,-5.0363,-5.0286,-5.038,-5.125,-5.2713,-5.2965,-5.3793,-5.5538,-5.5588,-5.5626,-5.5703,-5.5703,-5.5682,-5.5626,-5.5615,-5.557,-5.5425,-5.5401,-5.5427,-5.5644,-5.6206,-5.6625,-5.6868,-5.7595,-5.8093,-5.8106,-5.8437,-5.8626,-5.9252,-5.9542,-5.9923,-6.0704,-6.0781,-6.0781,-6.0781,-6.0734,-6.0327,-5.9524,-5.8643,-5.7596,-5.6703,-5.6282,-5.6256,-5.716,-5.8664,-6.0026,-6.0346,-6.0384,-6.0384,-6.0384,-6.0384,-6.0571,-6.0866,-6.0677,-6.0509,-6.1099,-6.0516,-5.9853,-6.019,-6.0024,-5.9372,-5.8903,-5.8952,-5.909,-5.841,-5.8364,-5.8621,-5.013,-4.9748,-4.8907,-4.757,-4.6042,-4.5507,-4.5277,-4.5277,-4.5277,-4.5107,-4.4908,-4.5214,-4.4812,-4.3874,-4.4516,-4.4766,-4.4642,-4.4854,-4.5083,-4.5419,-4.5003,-4.4781,-4.4764,-4.4784,-4.4766,-4.4882,-4.6032,-4.6901,-4.7499,-4.8651,-4.948,-4.9786,-5.0168,-5.0283,-5.0283,-5.0283,-5.0283,-5.0283,-5.0283,-5.0283,-5.0283,-5.0283,-5.0283,-5.0245,-4.9862,-4.9824,-5.0206,-4.9881,-4.9865,-5.0336,-5.05,-5.1331,-5.3014,-5.3112,-5.3913,-5.5511,-5.5703,-5.5703,-5.5703,-5.5703,-5.5682,-5.5626,-5.5543,-5.5523,-5.5401,-5.539,-5.5403,-5.5441,-5.5721,-5.6065,-5.6575,-5.6984,-5.7239,-5.7404,-5.8206,-5.8842,-5.8688,-5.9631,-6.0435,-6.0742,-6.0781,-6.0781,-6.0769,-6.0734,-6.0109,-5.8985,-5.8246,-5.7583,-5.6243,-5.6053,-5.6295,-5.6753,-5.8345,-5.9453,-5.9682,-6.0102,-6.0346,-6.0384,-6.0384,-6.0571,-6.059,-6.0487,-6.0357,-6.1033,-6.0025,-5.9665,-6.0341,-5.9709,-5.9059,-5.8762,-5.8465,-5.8433,-5.8093,-5.84,-5.8694,-5.0168,-4.9824,-4.8831,-4.7532,-4.6156,-4.5555,-4.5298,-4.5347,-4.5347,-4.5225,-4.5122,-4.5313,-4.4566,-4.3541,-4.4757,-4.5045,-4.4605,-4.5179,-4.5378,-4.5118,-4.4577,-4.4201,-4.4008,-4.4205,-4.4303,-4.4592,-4.6206,-4.7604,-4.8613,-4.9679,-5.0294,-5.0283,-5.0294,-5.0333,-5.0283,-5.0283,-5.0294,-5.0306,-5.0306,-5.023,-5.0,-4.9962,-4.995,-4.9901,-4.9415,-4.9377,-4.9924,-4.9444,-4.9526,-5.0418,-5.0591,-5.1257,-5.2651,-5.3067,-5.3972,-5.5472,-5.5703,-5.5703,-5.5703,-5.5703,-5.5682,-5.5615,-5.552,-5.5488,-5.5427,-5.5403,-5.5377,-5.539,-5.539,-5.5721,-5.618,-5.6383,-5.6419,-5.6544,-5.7678,-5.825,-5.8339,-5.945,-6.0204,-6.0704,-6.0781,-6.0781,-6.0781,-6.0707,-6.0145,-5.8635,-5.8153,-5.7479,-5.5961,-5.5937,-5.6282,-5.6333,-5.7504,-5.8498,-5.9033,-5.9835,-6.0307,-6.0384,-6.0384,-6.0279,-6.0113,-5.9869,-6.0023,-6.0304,-5.9534,-5.9513,-6.0229,-5.9736,-5.8784,-5.8976,-5.8643,-5.8079,-5.7997,-5.8547,-5.8657,-4.9824,-4.8984,-4.7341,-4.6271,-4.5403,-4.5326,-4.5347,-4.5398,-4.5398,-4.5007,-4.4547,-4.5093,-4.494,-4.4202,-4.5055,-4.5429,-4.5389,-4.5437,-4.5118,-4.4462,-4.4355,-4.3893,-4.3239,-4.3932,-4.4329,-4.4601,-4.6743,-4.8642,-5.0106,-5.0325,-5.0379,-5.0283,-5.0379,-5.034,-5.0333,-5.0283,-5.0344,-5.039,-5.0313,-4.998,-4.9291,-4.9188,-4.9155,-4.9083,-4.9071,-4.9017,-4.9177,-4.9203,-4.9601,-5.0525,-5.0663,-5.1087,-5.1923,-5.2769,-5.401,-5.5472,-5.5703,-5.5703,-5.5703,-5.5703,-5.5682,-5.5615,-5.552,-5.5449,-5.5415,-5.539,-5.539,-5.5415,-5.5415,-5.5465,-5.5566,-5.5727,-5.5746,-5.5769,-5.589,-5.6769,-5.8154,-5.8462,-5.9204,-6.0396,-6.0781,-6.0781,-6.0781,-6.0781,-6.0,-5.8796,-5.825,-5.7539,-5.5983,-5.5502,-5.5555,-5.5734,-5.6396,-5.7313,-5.8765,-5.9644,-6.0141,-6.0384,-6.0332,-6.0113,-5.9469,-5.9121,-5.9526,-5.9627,-5.9041,-5.9125,-6.0073,-5.9928,-5.8967,-5.865,-5.8511,-5.8156,-5.8323,-5.813,-5.84,-4.9824,-4.8995,-4.7837,-4.6844,-4.6042,-4.5587,-4.5388,-4.5408,-4.54,-4.5256,-4.5102,-4.5342,-4.5313,-4.5118,-4.5387,-4.5225,-4.4832,-4.532,-4.5115,-4.4393,-4.4316,-4.4162,-4.3932,-4.4162,-4.4624,-4.5376,-4.7135,-4.8884,-5.0325,-5.0468,-5.0435,-5.039,-5.0435,-5.0435,-5.0379,-5.0379,-5.0379,-5.0325,-4.9877,-4.9428,-4.9116,-4.8656,-4.8158,-4.7601,-4.7488,-4.7936,-4.9062,-4.8677,-4.9074,-5.0535,-5.0644,-5.1048,-5.1923,-5.3241,-5.4511,-5.5549,-5.5703,-5.5703,-5.5703,-5.5703,-5.566,-5.5531,-5.5497,-5.5476,-5.5415,-5.5377,-5.539,-5.5415,-5.5425,-5.5499,-5.5508,-5.5593,-5.5588,-5.5709,-5.6192,-5.6934,-5.7973,-5.8319,-5.8934,-6.0358,-6.0781,-6.0781,-6.0781,-6.0781,-6.0127,-5.8665,-5.8258,-5.7394,-5.6045,-5.5499,-5.5451,-5.5658,-5.6549,-5.7619,-5.8077,-5.9033,-5.9682,-6.0193,-6.0293,-5.9897,-5.9359,-5.9001,-5.9269,-5.9186,-5.8608,-5.8679,-5.9515,-5.9474,-5.8677,-5.8529,-5.8356,-5.8489,-5.8819,-5.8846,-5.9315,-4.9824,-4.9033,-4.8192,-4.7324,-4.6456,-4.5704,-4.54,-4.5419,-4.5419,-4.5457,-4.5541,-4.5541,-4.5559,-4.5586,-4.5594,-4.5115,-4.4465,-4.5192,-4.5133,-4.4355,-4.4316,-4.4162,-4.4047,-4.447,-4.5009,-4.5817,-4.7606,-4.9211,-5.0378,-5.0532,-5.05,-5.0446,-5.05,-5.0489,-5.0424,-5.0424,-5.0435,-5.0281,-4.9614,-4.9109,-4.8795,-4.8028,-4.7174,-4.6426,-4.6212,-4.7006,-4.8705,-4.8286,-4.8825,-5.0335,-5.0692,-5.1164,-5.2308,-5.3433,-5.4587,-5.5549,-5.5703,-5.5703,-5.5703,-5.5703,-5.566,-5.557,-5.5497,-5.5476,-5.5428,-5.5441,-5.544,-5.5476,-5.5485,-5.5543,-5.5626,-5.5649,-5.5621,-5.5742,-5.6252,-5.6945,-5.7742,-5.7857,-5.8665,-5.9935,-6.0319,-6.0473,-6.0704,-6.0512,-5.9742,-5.8473,-5.8088,-5.7197,-5.5903,-5.5511,-5.5629,-5.5811,-5.6664,-5.7581,-5.8268,-5.9033,-5.9644,-6.0141,-6.0064,-5.9682,-5.9376,-5.9071,-5.8859,-5.8722,-5.8623,-5.8612,-5.867,-5.875,-5.8661,-5.8572,-5.8502,-5.86,-5.9102,-5.9711,-6.0047,-4.9824,-4.9033,-4.8236,-4.7378,-4.6546,-4.5764,-4.5438,-4.5505,-4.5485,-4.5541,-4.5586,-4.5594,-4.5586,-4.5594,-4.5594,-4.5124,-4.4701,-4.524,-4.5133,-4.4355,-4.4393,-4.4085,-4.3662,-4.497,-4.5778,-4.6086,-4.8183,-4.9739,-5.0535,-5.0573,-5.0553,-5.0521,-5.0591,-5.0532,-5.0412,-5.0402,-5.0423,-5.0204,-4.9496,-4.8769,-4.8126,-4.7242,-4.6378,-4.5611,-4.5486,-4.635,-4.8049,-4.8126,-4.8913,-5.0423,-5.0702,-5.1471,-5.2818,-5.328,-5.3972,-5.5395,-5.5703,-5.5703,-5.5703,-5.5703,-5.5682,-5.5604,-5.5558,-5.5523,-5.5488,-5.5451,-5.5437,-5.557,-5.5604,-5.5599,-5.5682,-5.5692,-5.5703,-5.5703,-5.5818,-5.6214,-5.6868,-5.7099,-5.7665,-5.9165,-5.9665,-5.9935,-6.0358,-6.0165,-5.9319,-5.8473,-5.7627,-5.6786,-5.575,-5.5535,-5.582,-5.6257,-5.6843,-5.7569,-5.8397,-5.9172,-5.9682,-6.0064,-5.9759,-5.9415,-5.9262,-5.8981,-5.9001,-5.8859,-5.8873,-5.8869,-5.8802,-5.8865,-5.8784,-5.8681,-5.8688,-5.8857,-5.962,-6.0231,-6.0434,-4.9824,-4.9033,-4.8236,-4.7378,-4.6557,-4.5803,-4.5466,-4.5523,-4.5559,-4.5577,-4.5594,-4.5594,-4.5594,-4.5594,-4.5594,-4.5441,-4.5248,-4.5479,-4.5124,-4.4509,-4.4902,-4.5355,-4.574,-4.624,-4.7086,-4.824,-4.9577,-5.0355,-5.0556,-5.0663,-5.0653,-5.0573,-5.0614,-5.0604,-5.0445,-4.9967,-4.967,-4.9516,-4.826,-4.7482,-4.7212,-4.6414,-4.5828,-4.5589,-4.555,-4.6357,-4.7981,-4.8107,-4.8962,-5.0587,-5.0702,-5.1471,-5.2818,-5.3203,-5.401,-5.5434,-5.5703,-5.5703,-5.5703,-5.5703,-5.566,-5.5581,-5.5531,-5.5535,-5.5476,-5.5437,-5.5485,-5.5604,-5.5615,-5.5638,-5.5692,-5.5703,-5.5703,-5.5703,-5.5703,-5.606,-5.6907,-5.7907,-5.8588,-5.8742,-5.9665,-6.0435,-6.055,-6.0012,-5.9127,-5.8319,-5.7473,-5.6593,-5.58,-5.552,-5.5535,-5.581,-5.6639,-5.7723,-5.8615,-5.939,-5.9988,-6.0141,-5.9797,-5.9568,-5.9338,-5.9133,-5.9102,-5.9147,-5.9127,-5.9087,-5.9047,-5.8967,-5.8927,-5.8784,-5.8714,-5.9313,-6.0226,-6.0618,-6.0725,-5.0061,-4.9483,-4.8416,-4.7632,-4.7001,-4.6013,-4.555,-4.555,-4.5577,-4.5594,-4.5594,-4.5594,-4.5594,-4.5594,-4.5594,-4.5594,-4.5594,-4.5594,-4.5287,-4.4893,-4.5287,-4.6086,-4.6932,-4.7625,-4.8509,-4.974,-5.0442,-5.0692,-5.0663,-5.0682,-5.0692,-5.0624,-5.0385,-5.0173,-5.0046,-4.9326,-4.8837,-4.8625,-4.7559,-4.6857,-4.6731,-4.6047,-4.574,-4.6009,-4.6086,-4.6932,-4.8432,-4.8596,-4.925,-5.0471,-5.0971,-5.1818,-5.3087,-5.351,-5.4318,-5.5357,-5.5703,-5.5703,-5.5703,-5.5703,-5.5621,-5.5558,-5.5581,-5.557,-5.5499,-5.5485,-5.5543,-5.5638,-5.5649,-5.5632,-5.5703,-5.5703,-5.5703,-5.5703,-5.5703,-5.6099,-5.6945,-5.7896,-5.8665,-5.8858,-5.9665,-6.0204,-6.0165,-5.9588,-5.8742,-5.7934,-5.7049,-5.6412,-5.5708,-5.5593,-5.5727,-5.6165,-5.7188,-5.8157,-5.8909,-5.9609,-6.0269,-6.0193,-5.995,-5.9835,-5.9682,-5.9439,-5.9283,-5.952,-5.9608,-5.9462,-5.9361,-5.927,-5.9197,-5.8986,-5.8781,-5.9287,-5.9959,-6.0566,-6.0896,-5.0446,-5.0281,-4.8672,-4.7962,-4.7703,-4.6251,-4.5586,-4.5594,-4.5594,-4.5594,-4.5594,-4.5594,-4.5594,-4.5594,-4.5594,-4.5594,-4.5594,-4.5594,-4.5594,-4.5556,-4.5748,-4.6317,-4.7385,-4.8702,-4.974,-5.0481,-5.0664,-5.0702,-5.0702,-5.0702,-5.0702,-5.0625,-5.0048,-4.9519,-4.949,-4.8596,-4.8174,-4.803,-4.7212,-4.6731,-4.6701,-4.6009,-4.597,-4.6778,-4.6846,-4.7586,-4.9009,-4.9385,-4.9856,-5.0664,-5.1395,-5.2192,-5.3164,-5.401,-5.4818,-5.5626,-5.5703,-5.5703,-5.5703,-5.5703,-5.5621,-5.5558,-5.5593,-5.5631,-5.57,-5.5658,-5.5714,-5.5885,-5.5769,-5.5703,-5.5703,-5.5703,-5.5703,-5.5703,-5.5703,-5.6088,-5.6868,-5.7176,-5.7973,-5.9127,-5.9511,-5.9588,-5.9627,-5.8896,-5.8088,-5.7203,-5.6395,-5.5863,-5.5676,-5.5796,-5.6402,-5.7006,-5.7621,-5.8387,-5.9102,-5.98,-6.0384,-6.0307,-6.0102,-6.0064,-6.0026,-5.9797,-5.9668,-5.9869,-5.9962,-5.982,-5.9656,-5.952,-5.9325,-5.9102,-5.9054,-5.9227,-5.9807,-6.0589,-6.1328,-5.0489,-5.0319,-4.872,-4.801,-4.779,-4.626,-4.5594,-4.5594,-4.5594,-4.5594,-4.5594,-4.5594,-4.5594,-4.5594,-4.5594,-4.5594,-4.5633,-4.5594,-4.5594,-4.571,-4.6278,-4.7394,-4.8663,-4.9779,-5.0433,-5.0673,-5.0702,-5.0702,-5.0702,-5.0702,-5.0702,-5.0702,-5.0404,-5.0279,-5.0154,-4.8808,-4.8154,-4.7875,-4.6654,-4.6056,-4.6018,-4.5864,-4.6047,-4.6817,-4.6962,-4.7778,-4.9317,-5.001,-5.0433,-5.0712,-5.1471,-5.2269,-5.3164,-5.4049,-5.4895,-5.5511,-5.5703,-5.5703,-5.5703,-5.5742,-5.5671,-5.5615,-5.5791,-5.5929,-5.6487,-5.5995,-5.6077,-5.6329,-5.6137,-5.5703,-5.5703,-5.5703,-5.5703,-5.5703,-5.5742,-5.6126,-5.6945,-5.7588,-5.8396,-5.9319,-6.005,-6.0012,-5.9435,-5.8704,-5.7896,-5.7049,-5.628,-5.5692,-5.5649,-5.5687,-5.6164,-5.6925,-5.7618,-5.8451,-5.9243,-5.9928,-6.0346,-6.0384,-6.0346,-6.0307,-6.0269,-6.0179,-6.0179,-6.0275,-6.0217,-6.0114,-5.9874,-5.9694,-5.9452,-5.9234,-5.9059,-5.9119,-6.0315,-6.1279,-6.1834,-5.0322,-4.9921,-4.8606,-4.7847,-4.7386,-4.6154,-4.5594,-4.5594,-4.5594,-4.5594,-4.5594,-4.5594,-4.5594,-4.5594,-4.5594,-4.5825,-4.6086,-4.5787,-4.5787,-4.6278,-4.7009,-4.8125,-4.9317,-5.0279,-5.0702,-5.0702,-5.0702,-5.0702,-5.0702,-5.0702,-5.0702,-5.0596,-5.0327,-5.0173,-4.9971,-4.8856,-4.8115,-4.7923,-4.7086,-4.6663,-4.6663,-4.6663,-4.7124,-4.7778,-4.7971,-4.8625,-4.9856,-5.0433,-5.0702,-5.0933,-5.1779,-5.2664,-5.3241,-5.4357,-5.5203,-5.5665,-5.5703,-5.5703,-5.578,-5.6011,-5.622,-5.6264,-5.6478,-5.6978,-5.7213,-5.6747,-5.6637,-5.7319,-5.6395,-5.6011,-5.6126,-5.5934,-5.5742,-5.5742,-5.6011,-5.6599,-5.7434,-5.7973,-5.8819,-5.9665,-6.0127,-5.9935,-5.9127,-5.8319,-5.7434,-5.6637,-5.6049,-5.5769,-5.5671,-5.5731,-5.6143,-5.7075,-5.7822,-5.8642,-5.9421,-6.0158,-6.036,-6.0398,-6.0384,-6.0384,-6.0384,-6.0384,-6.037,-6.037,-6.037,-6.0328,-6.0099,-5.9896,-5.9643,-5.9381,-5.9064,-5.9393,-6.0556,-6.1429,-6.2066,-5.0191,-4.9433,-4.8625,-4.7817,-4.7154,-4.6163,-4.5825,-4.5748,-4.5671,-4.5594,-4.5594,-4.5594,-4.5594,-4.5594,-4.5594,-4.6047,-4.6778,-4.597,-4.6317,-4.6932,-4.7731,-4.8586,-4.9663,-5.0356,-5.0664,-5.0702,-5.0702,-5.0702,-5.0702,-5.0702,-5.0702,-5.0596,-4.9971,-4.9663,-4.9663,-4.8779,-4.8317,-4.8317,-4.8009,-4.7778,-4.7778,-4.7817,-4.8202,-4.8933,-4.9356,-4.9702,-5.0356,-5.0702,-5.075,-5.0818,-5.2356,-5.3049,-5.3395,-5.478,-5.5588,-5.5665,-5.5703,-5.5703,-5.5818,-5.6406,-5.6923,-5.6928,-5.7681,-5.8258,-5.7955,-5.7335,-5.7137,-5.778,-5.6588,-5.6165,-5.6406,-5.6137,-5.6022,-5.6088,-5.6676,-5.7473,-5.8165,-5.8434,-5.905,-6.0473,-6.005,-5.9358,-5.8434,-5.7588,-5.683,-5.6242,-5.578,-5.5742,-5.5808,-5.6049,-5.6698,-5.7731,-5.8322,-5.8847,-5.9637,-6.0412,-6.0412,-6.0412,-6.0384,-6.0384,-6.0384,-6.0384,-6.0384,-6.0384,-6.0384,-6.0408,-6.0328,-6.0084,-5.9885,-5.9643,-5.9399,-5.9853,-6.0529,-6.1215,-6.1857,-5.0587,-5.0366,-4.951,-4.9009,-4.8625,-4.7278,-4.6624,-4.6547,-4.5893,-4.571,-4.5594,-4.5594,-4.5633,-4.5594,-4.5633,-4.6086,-4.674,-4.6201,-4.6394,-4.7778,-4.7971,-4.9048,-5.0096,-5.0635,-5.0664,-5.0702,-5.0702,-5.0702,-5.0702,-5.0702,-5.0702,-5.0635,-5.0481,-5.0404,-5.024,-4.9548,-4.9125,-4.9009,-4.8509,-4.8279,-4.8279,-4.8279,-4.8663,-4.9433,-5.0048,-5.0433,-5.0635,-5.0702,-5.101,-5.1702,-5.2626,-5.3318,-5.3587,-5.4818,-5.5626,-5.5703,-5.5742,-5.5742,-5.5857,-5.656,-5.706,-5.7231,-5.7962,-5.8269,-5.8219,-5.7538,-5.7176,-5.7126,-5.6319,-5.5934,-5.6137,-5.6522,-5.6599,-5.6791,-5.7473,-5.8319,-5.9011,-5.9204,-5.9704,-6.0396,-6.0512,-5.9935,-5.8511,-5.8127,-5.7203,-5.6088,-5.5742,-5.5703,-5.5934,-5.6252,-5.7071,-5.8026,-5.8692,-5.9192,-5.9855,-6.0439,-6.0425,-6.0412,-6.0384,-6.0384,-6.0384,-6.0384,-6.0384,-6.0384,-6.0384,-6.0408,-6.0408,-6.0349,-6.0086,-5.989,-5.9879,-6.0571,-6.1164,-6.1525,-6.198,-5.0432,-4.991,-4.9558,-4.9163,-4.8702,-4.7855,-4.7231,-4.6962,-4.6855,-4.6326,-4.5825,-4.597,-4.597,-4.5633,-4.5633,-4.6047,-4.6778,-4.6894,-4.7201,-4.8086,-4.8509,-4.9433,-5.0394,-5.0702,-5.0702,-5.0702,-5.0702,-5.0702,-5.0702,-5.0702,-5.0702,-5.0702,-5.0702,-5.0635,-5.0702,-5.0202,-5.0048,-4.9981,-4.9586,-4.9317,-4.9317,-4.9317,-4.9471,-4.9933,-5.0471,-5.0702,-5.0702,-5.1087,-5.1471,-5.2077,-5.3087,-5.3818,-5.3972,-5.4972,-5.5626,-5.5742,-5.6126,-5.6291,-5.656,-5.7396,-5.8204,-5.8165,-5.8973,-5.9319,-5.9127,-5.8357,-5.8165,-5.8176,-5.7484,-5.6319,-5.6329,-5.6637,-5.6983,-5.7253,-5.8165,-5.9011,-5.9396,-5.9511,-5.9819,-6.0358,-6.0012,-5.9281,-5.855,-5.8204,-5.7242,-5.5934,-5.6291,-5.6291,-5.5945,-5.6319,-5.7136,-5.8011,-5.8844,-5.9536,-6.015,-6.048,-6.0453,-6.0425,-6.0384,-6.0384,-6.0384,-6.0384,-6.0384,-6.0384,-6.0384,-6.0384,-6.038,-6.0357,-6.0395,-6.0373,-6.0608,-6.1365,-6.1957,-6.2258,-6.2802,-5.0141,-4.9346,-4.9508,-4.9144,-4.8548,-4.8355,-4.7971,-4.7509,-4.7855,-4.724,-4.6317,-4.6817,-4.674,-4.6172,-4.5902,-4.6278,-4.6932,-4.7663,-4.8086,-4.8471,-4.8971,-4.9779,-5.051,-5.0702,-5.0702,-5.0702,-5.0702,-5.0702,-5.0702,-5.0702,-5.0702,-5.0702,-5.0702,-5.0702,-5.0702,-5.0702,-5.0587,-5.0519,-5.0481,-5.0442,-5.0471,-5.0471,-5.0519,-5.0596,-5.0635,-5.0856,-5.1048,-5.151,-5.2,-5.2346,-5.3818,-5.4587,-5.5011,-5.5241,-5.5818,-5.5906,-5.6549,-5.6934,-5.7396,-5.8434,-5.9358,-5.955,-6.0242,-6.0435,-5.9973,-5.9165,-5.8934,-5.8781,-5.8215,-5.7291,-5.7357,-5.7588,-5.7638,-5.7945,-5.9011,-5.9588,-5.9704,-5.9704,-6.0165,-6.0435,-6.0127,-5.9435,-5.855,-5.7934,-5.6857,-5.6126,-5.6599,-5.6791,-5.6406,-5.6615,-5.7559,-5.8395,-5.9305,-5.9779,-6.0367,-6.0533,-6.0493,-6.0425,-6.0398,-6.0384,-6.0384,-6.0384,-6.0384,-6.0384,-6.0384,-6.0422,-6.0432,-6.0484,-6.0584,-6.0748,-6.1186,-6.1811,-6.2395,-6.2965,-6.3484,-5.0455,-5.0432,-5.0281,-5.0235,-5.0154,-4.951,-4.9086,-4.8894,-4.8394,-4.8009,-4.7702,-4.7817,-4.774,-4.7471,-4.6894,-4.6817,-4.7154,-4.7778,-4.8471,-4.8971,-4.9433,-4.9971,-5.0548,-5.0702,-5.0702,-5.0702,-5.0702,-5.0702,-5.0702,-5.0702,-5.0702,-5.0702,-5.0702,-5.0702,-5.0702,-5.0702,-5.0702,-5.0702,-5.0702,-5.0702,-5.0702,-5.0702,-5.0702,-5.0702,-5.0789,-5.1087,-5.1587,-5.1885,-5.2549,-5.3972,-5.4972,-5.5829,-5.6242,-5.6088,-5.6214,-5.6676,-5.706,-5.755,-5.8127,-5.8934,-5.9473,-5.9704,-6.0319,-6.0012,-5.9358,-5.905,-5.8934,-5.828,-5.8357,-5.8319,-5.9011,-5.8896,-5.9396,-5.9896,-6.0165,-6.0512,-6.0512,-6.0512,-6.0512,-6.0666,-6.0281,-5.9819,-5.8934,-5.8127,-5.7357,-5.678,-5.6857,-5.6983,-5.6791,-5.7346,-5.83,-5.911,-5.9919,-6.0278,-6.0585,-6.0572,-6.0546,-6.0453,-6.045,-6.0384,-6.0384,-6.0384,-6.0422,-6.0613,-6.0537,-6.046,-6.0533,-6.0733,-6.1039,-6.1425,-6.1826,-6.2262,-6.2889,-6.3507,-6.3559,-5.0294,-5.0236,-5.0329,-5.0468,-5.0476,-5.0211,-4.9779,-4.9433,-4.9394,-4.8933,-4.8317,-4.8077,-4.8077,-4.7885,-4.7269,-4.7077,-4.7586,-4.7894,-4.8586,-4.9279,-4.9856,-5.025,-5.0712,-5.0702,-5.0702,-5.0702,-5.0702,-5.0712,-5.0702,-5.0702,-5.0702,-5.0702,-5.0702,-5.0702,-5.0702,-5.0702,-5.0702,-5.0702,-5.0702,-5.0702,-5.0702,-5.0702,-5.0712,-5.0789,-5.1125,-5.151,-5.1923,-5.2972,-5.3818,-5.4972,-5.5945,-5.6791,-5.7242,-5.7396,-5.7203,-5.7665,-5.8011,-5.8396,-5.8973,-5.9665,-6.0165,-6.0204,-6.0589,-6.0435,-5.9781,-5.955,-5.9088,-5.8704,-5.8511,-5.9242,-6.0012,-5.9819,-5.9973,-6.055,-6.0781,-6.0781,-6.0781,-6.0781,-6.0781,-6.0742,-6.0204,-5.9704,-5.9358,-5.8588,-5.7934,-5.755,-5.728,-5.728,-5.7291,-5.8115,-5.9119,-5.9518,-6.0174,-6.0444,-6.0597,-6.0585,-6.0533,-6.0466,-6.045,-6.0384,-6.0384,-6.0384,-6.0714,-6.1058,-6.0905,-6.0637,-6.1172,-6.1564,-6.1846,-6.2242,-6.3053,-6.368,-6.3769,-6.3972,-6.403,-5.0076,-4.9903,-5.0151,-5.0317,-5.0446,-5.0563,-5.0259,-4.9894,-5.0356,-4.9904,-4.874,-4.8663,-4.874,-4.8394,-4.7817,-4.7586,-4.8279,-4.824,-4.8702,-4.9711,-5.0317,-5.0673,-5.0673,-5.0712,-5.0827,-5.1087,-5.1048,-5.0866,-5.0712,-5.0702,-5.0702,-5.0779,-5.0779,-5.0779,-5.075,-5.0933,-5.0856,-5.0712,-5.0702,-5.0702,-5.0712,-5.0856,-5.0933,-5.101,-5.1741,-5.2308,-5.3038,-5.3972,-5.5164,-5.6165,-5.7088,-5.7819,-5.8434,-5.8704,-5.8819,-5.8896,-5.9281,-5.9511,-5.9935,-6.0242,-6.0666,-6.0666,-6.0742,-6.0666,-6.0319,-5.9781,-5.955,-5.9704,-6.005,-6.0473,-6.1166,-6.0589,-6.0627,-6.105,-6.1127,-6.0781,-6.0781,-6.0781,-6.0781,-6.055,-6.005,-5.9742,-5.9511,-5.9204,-5.855,-5.8242,-5.7973,-5.8627,-5.8704,-5.9165,-5.9873,-5.9915,-6.0224,-6.0494,-6.061,-6.0623,-6.052,-6.0425,-6.0398,-6.0384,-6.0384,-6.0384,-6.0828,-6.1287,-6.1172,-6.1058,-6.1745,-6.2395,-6.2624,-6.3236,-6.4382,-6.4802,-6.4498,-6.4368,-6.4406,-5.0038,-5.0063,-4.9906,-5.0063,-5.0352,-5.0435,-5.0504,-5.0538,-5.0615,-5.0635,-5.0164,-5.0289,-5.0164,-4.9817,-4.8586,-4.8509,-4.8817,-4.874,-4.9202,-5.0442,-5.0741,-5.0894,-5.0779,-5.0702,-5.1279,-5.1664,-5.1769,-5.1318,-5.1125,-5.0971,-5.0818,-5.101,-5.1471,-5.1471,-5.1125,-5.1548,-5.1356,-5.0856,-5.0741,-5.0702,-5.0818,-5.1318,-5.1625,-5.1895,-5.2664,-5.3664,-5.4664,-5.5434,-5.6357,-5.778,-5.8665,-5.9165,-5.9473,-6.0127,-6.0435,-6.0281,-6.005,-5.9858,-6.0435,-6.0704,-6.0781,-6.0781,-6.0781,-6.0396,-6.0127,-6.0012,-6.0089,-6.0666,-6.1243,-6.1897,-6.2397,-6.2089,-6.2281,-6.1935,-6.1473,-6.1012,-6.0781,-6.0781,-6.0781,-6.0781,-6.0396,-6.0127,-5.9858,-5.955,-5.9204,-5.8934,-5.8896,-5.9511,-5.9896,-6.0127,-6.0358,-6.0373,-6.0402,-6.066,-6.0943,-6.0878,-6.0761,-6.0589,-6.0575,-6.0537,-6.0384,-6.0499,-6.0943,-6.1249,-6.1287,-6.186,-6.2777,-6.3312,-6.3427,-6.3923,-6.4726,-6.4931,-6.4888,-6.4848,-6.4705,-4.9674,-4.9655,-4.9683,-4.9838,-5.005,-5.0163,-5.0329,-5.0511,-5.0532,-5.0584,-5.0577,-5.0125,-4.9971,-4.9779,-4.9048,-4.9356,-4.9894,-4.9625,-5.0202,-5.1125,-5.1395,-5.1625,-5.1933,-5.1702,-5.1856,-5.2472,-5.2615,-5.2549,-5.2164,-5.2125,-5.2125,-5.2125,-5.2395,-5.2549,-5.1972,-5.2433,-5.2433,-5.2087,-5.1664,-5.1164,-5.1048,-5.1433,-5.1923,-5.2038,-5.3664,-5.4895,-5.5742,-5.6819,-5.7665,-5.8858,-5.9396,-5.9742,-6.0127,-6.055,-6.0781,-6.0742,-6.0473,-6.0435,-6.0704,-6.0781,-6.0781,-6.0781,-6.0781,-6.0627,-6.0396,-6.0666,-6.1012,-6.1485,-6.2281,-6.2935,-6.3089,-6.2551,-6.2447,-6.2127,-6.1589,-6.1204,-6.0858,-6.0781,-6.0781,-6.0781,-6.0858,-6.0781,-6.0704,-6.0512,-6.0281,-5.9896,-5.9973,-6.0512,-6.0512,-6.0281,-6.0512,-6.0704,-6.0722,-6.0814,-6.1211,-6.1389,-6.1283,-6.1162,-6.1134,-6.0981,-6.0499,-6.0613,-6.1249,-6.186,-6.2242,-6.2968,-6.3885,-6.4076,-6.4038,-6.442,-6.4879,-6.5,-6.5117,-6.4968,-6.4815,-4.9368,-4.9289,-4.9469,-4.9655,-4.9821,-4.9959,-5.0151,-5.0329,-5.0435,-5.0521,-5.046,-5.0038,-4.9663,-4.9317,-4.9202,-4.9356,-5.024,-5.0366,-5.1048,-5.1615,-5.2192,-5.2538,-5.2702,-5.251,-5.2702,-5.351,-5.3549,-5.3626,-5.3818,-5.378,-5.3626,-5.328,-5.3356,-5.328,-5.3241,-5.3318,-5.328,-5.251,-5.2038,-5.1587,-5.1318,-5.1856,-5.2462,-5.3395,-5.4741,-5.6214,-5.678,-5.7742,-5.8934,-5.9665,-5.9858,-6.0204,-6.0627,-6.0742,-6.0781,-6.0781,-6.0666,-6.0704,-6.0781,-6.0781,-6.0781,-6.0781,-6.0858,-6.0858,-6.1204,-6.1793,-6.2293,-6.2358,-6.3166,-6.3551,-6.3474,-6.2935,-6.2666,-6.2243,-6.155,-6.1243,-6.1089,-6.1243,-6.155,-6.1897,-6.2012,-6.2012,-6.1897,-6.1666,-6.1358,-6.0896,-6.1089,-6.1473,-6.1281,-6.0808,-6.0642,-6.0861,-6.0798,-6.0955,-6.1364,-6.1642,-6.1625,-6.1736,-6.176,-6.1516,-6.1058,-6.1287,-6.1975,-6.2548,-6.3083,-6.3809,-6.4573,-6.4611,-6.4649,-6.4917,-6.5146,-6.5261,-6.5298,-6.5139,-6.4955,-4.9148,-4.923,-4.9443,-4.9642,-4.9792,-4.9866,-5.0025,-5.0212,-5.0412,-5.05,-5.0563,-5.0509,-5.0096,-4.951,-4.9009,-4.9048,-4.9586,-4.951,-5.0702,-5.1895,-5.2654,-5.3126,-5.3318,-5.3433,-5.3549,-5.428,-5.4395,-5.478,-5.5241,-5.5088,-5.4395,-5.351,-5.4126,-5.3818,-5.3818,-5.4087,-5.3626,-5.2895,-5.2346,-5.2154,-5.2164,-5.2779,-5.3818,-5.5126,-5.6357,-5.7588,-5.905,-5.9319,-5.9704,-6.0512,-6.0512,-6.0512,-6.0742,-6.0781,-6.0781,-6.0781,-6.0781,-6.0858,-6.0973,-6.0858,-6.0781,-6.0781,-6.0935,-6.1243,-6.1716,-6.2024,-6.2474,-6.3243,-6.4012,-6.4359,-6.4205,-6.3782,-6.3089,-6.2666,-6.205,-6.1743,-6.1743,-6.1973,-6.232,-6.2935,-6.3051,-6.2858,-6.2858,-6.2627,-6.2435,-6.2012,-6.168,-6.2065,-6.2014,-6.1668,-6.1094,-6.0966,-6.0839,-6.1045,-6.154,-6.1792,-6.2146,-6.2309,-6.2371,-6.2051,-6.1669,-6.2128,-6.2548,-6.3274,-6.3809,-6.4535,-6.5108,-6.5031,-6.507,-6.5261,-6.5413,-6.5413,-6.5383,-6.522,-6.509,-4.9115,-4.9214,-4.9327,-4.9452,-4.9642,-4.9692,-4.9848,-5.0025,-5.0224,-5.0418,-5.0604,-5.0654,-5.0519,-5.0125,-4.9971,-4.9856,-5.024,-5.0779,-5.1625,-5.2395,-5.3087,-5.378,-5.4126,-5.4357,-5.4434,-5.5049,-5.5241,-5.5318,-5.5588,-5.5703,-5.5472,-5.5011,-5.5011,-5.5049,-5.5011,-5.4895,-5.4357,-5.3818,-5.3395,-5.328,-5.301,-5.4049,-5.5049,-5.5626,-5.778,-5.8665,-5.9473,-6.005,-6.0435,-6.0704,-6.0781,-6.0781,-6.0781,-6.0781,-6.0781,-6.0819,-6.0819,-6.1089,-6.1358,-6.1177,-6.0819,-6.0935,-6.1281,-6.1781,-6.2332,-6.2935,-6.3589,-6.4282,-6.482,-6.5166,-6.4551,-6.3858,-6.3205,-6.2974,-6.2666,-6.2243,-6.2474,-6.2743,-6.3089,-6.3628,-6.3589,-6.3385,-6.3462,-6.3551,-6.3346,-6.3115,-6.2822,-6.2489,-6.2336,-6.2016,-6.1287,-6.1058,-6.1007,-6.1658,-6.224,-6.2543,-6.2782,-6.2997,-6.3159,-6.2892,-6.2662,-6.2471,-6.2968,-6.3732,-6.4344,-6.4726,-6.507,-6.5299,-6.5413,-6.5413,-6.5413,-6.5413,-6.5368,-6.5305,-6.5188,-4.8907,-4.9209,-4.9289,-4.9406,-4.9536,-4.9597,-4.9736,-4.9933,-5.0126,-5.0374,-5.0702,-5.0702,-5.0519,-5.0404,-5.0279,-5.0202,-5.0356,-5.101,-5.2087,-5.2895,-5.3587,-5.4434,-5.5049,-5.528,-5.5126,-5.5626,-5.5703,-5.5703,-5.5703,-5.5703,-5.5588,-5.5588,-5.5703,-5.5626,-5.5626,-5.5665,-5.528,-5.4703,-5.4434,-5.4472,-5.4126,-5.4972,-5.6395,-5.6819,-5.8627,-5.9473,-5.9935,-6.0435,-6.0666,-6.0781,-6.0781,-6.0781,-6.0781,-6.0781,-6.0781,-6.0858,-6.1089,-6.1473,-6.1755,-6.1897,-6.1512,-6.1858,-6.2127,-6.2551,-6.3089,-6.3935,-6.4397,-6.5013,-6.5551,-6.5628,-6.4859,-6.4089,-6.3692,-6.3512,-6.2551,-6.2216,-6.3205,-6.3705,-6.3974,-6.432,-6.4282,-6.4436,-6.4512,-6.4538,-6.3911,-6.3591,-6.3104,-6.2592,-6.2093,-6.1633,-6.093,-6.0943,-6.121,-6.2153,-6.3131,-6.3408,-6.38,-6.4626,-6.4649,-6.4191,-6.3923,-6.3618,-6.3618,-6.442,-6.484,-6.4917,-6.507,-6.5337,-6.5413,-6.5413,-6.5413,-6.5413,-6.5413,-6.5368,-6.5321,-4.8455,-4.9289,-4.9368,-4.9446,-4.9574,-4.9589,-4.9764,-5.0011,-5.0151,-5.0424,-5.0692,-5.0702,-5.0327,-4.9827,-4.9856,-4.9971,-5.0202,-5.0741,-5.1818,-5.3203,-5.3972,-5.4857,-5.5357,-5.5588,-5.5511,-5.5626,-5.5703,-5.5703,-5.5703,-5.5703,-5.5703,-5.5703,-5.5703,-5.5703,-5.5703,-5.5703,-5.528,-5.4703,-5.4703,-5.5088,-5.5626,-5.6088,-5.7319,-5.8473,-5.9358,-6.0012,-6.0473,-6.0666,-6.0781,-6.0781,-6.0781,-6.0781,-6.0781,-6.0781,-6.0819,-6.0973,-6.1589,-6.2024,-6.2216,-6.2858,-6.3128,-6.2974,-6.3051,-6.3512,-6.4205,-6.4705,-6.4974,-6.5513,-6.582,-6.5936,-6.5282,-6.4589,-6.4397,-6.4166,-6.332,-6.3063,-6.4089,-6.4589,-6.482,-6.4974,-6.5436,-6.5782,-6.5782,-6.5538,-6.4654,-6.4027,-6.3425,-6.2759,-6.1991,-6.1557,-6.0993,-6.144,-6.1898,-6.3016,-6.4006,-6.4297,-6.4817,-6.5757,-6.5987,-6.5413,-6.5108,-6.484,-6.4993,-6.5299,-6.5222,-6.5146,-6.5261,-6.5413,-6.5413,-6.5413,-6.5413,-6.5413,-6.5413,-6.5413,-6.5368,-4.882,-4.9246,-4.9241,-4.9406,-4.9589,-4.9648,-4.9741,-4.9959,-5.0248,-5.0511,-5.0682,-5.0702,-5.0596,-5.0327,-5.0289,-5.0471,-5.1048,-5.1231,-5.2395,-5.3933,-5.4395,-5.4934,-5.5472,-5.5703,-5.5703,-5.5703,-5.5703,-5.5703,-5.5703,-5.5703,-5.5703,-5.5703,-5.5703,-5.5703,-5.5703,-5.5742,-5.5714,-5.6099,-5.6291,-5.656,-5.7357,-5.7896,-5.855,-5.955,-6.0012,-6.0435,-6.0781,-6.0781,-6.0781,-6.0781,-6.0781,-6.0819,-6.0858,-6.0896,-6.1127,-6.1473,-6.2139,-6.2678,-6.3551,-6.4397,-6.4359,-6.3974,-6.3897,-6.4282,-6.4589,-6.5205,-6.559,-6.5782,-6.5859,-6.609,-6.6244,-6.5667,-6.5513,-6.5936,-6.5474,-6.5051,-6.5436,-6.5436,-6.5551,-6.559,-6.5859,-6.5936,-6.5974,-6.5833,-6.5141,-6.4437,-6.3847,-6.2606,-6.1684,-6.171,-6.1477,-6.2243,-6.2943,-6.402,-6.4932,-6.562,-6.6155,-6.698,-6.6904,-6.633,-6.6063,-6.5796,-6.549,-6.5375,-6.5375,-6.5413,-6.5413,-6.5413,-6.5413,-6.5413,-6.5413,-6.5413,-6.5413,-6.5413,-6.5398,-4.8667,-4.8835,-4.9214,-4.9498,-4.9692,-4.9721,-4.9876,-5.0101,-5.0435,-5.0604,-5.0702,-5.0702,-5.0664,-5.0664,-5.075,-5.1125,-5.1846,-5.1923,-5.2808,-5.4318,-5.4511,-5.5011,-5.5472,-5.5703,-5.5703,-5.5703,-5.5703,-5.5703,-5.5703,-5.5703,-5.5703,-5.5703,-5.5703,-5.5703,-5.5703,-5.578,-5.6088,-5.656,-5.6868,-5.7434,-5.8357,-5.9088,-5.955,-6.005,-6.0435,-6.0781,-6.0781,-6.0781,-6.0781,-6.0781,-6.0819,-6.0973,-6.11,-6.1331,-6.1704,-6.2243,-6.2974,-6.3666,-6.482,-6.5359,-6.5128,-6.4551,-6.482,-6.5013,-6.5089,-6.5551,-6.5743,-6.5859,-6.5897,-6.6397,-6.6821,-6.632,-6.6359,-6.6744,-6.6551,-6.609,-6.582,-6.582,-6.582,-6.5859,-6.5897,-6.5974,-6.6167,-6.5846,-6.5499,-6.4885,-6.4219,-6.2938,-6.1812,-6.2003,-6.2369,-6.3135,-6.4039,-6.5115,-6.6254,-6.7324,-6.7859,-6.8279,-6.7821,-6.7171,-6.6598,-6.6254,-6.5872,-6.549,-6.5452,-6.5413,-6.5413,-6.5413,-6.5413,-6.5413,-6.5413,-6.5413,-6.5413,-6.5413,-6.5413,-4.7991,-4.8234,-4.9138,-4.9655,-4.9838,-4.9835,-5.0025,-5.0385,-5.0594,-5.0702,-5.0702,-5.0702,-5.0702,-5.0712,-5.0741,-5.1279,-5.2038,-5.2154,-5.328,-5.4241,-5.4741,-5.5203,-5.5511,-5.5703,-5.5703,-5.5703,-5.5703,-5.5703,-5.5703,-5.5703,-5.5703,-5.5703,-5.5703,-5.5818,-5.5868,-5.6049,-5.6472,-5.706,-5.7396,-5.8165,-5.9319,-5.9627,-6.005,-6.0435,-6.0742,-6.0781,-6.0781,-6.0781,-6.0781,-6.0819,-6.0896,-6.1408,-6.1793,-6.2101,-6.2627,-6.3281,-6.4089,-6.4936,-6.5513,-6.582,-6.582,-6.5436,-6.5628,-6.582,-6.582,-6.582,-6.5859,-6.5897,-6.5897,-6.6513,-6.6936,-6.6782,-6.6628,-6.6705,-6.6667,-6.6282,-6.5974,-6.5859,-6.5859,-6.5897,-6.5897,-6.6051,-6.6577,-6.6423,-6.6087,-6.5807,-6.5256,-6.4498,-6.3487,-6.2989,-6.3444,-6.414,-6.5106,-6.6246,-6.7362,-6.8508,-6.8967,-6.9196,-6.8585,-6.7973,-6.7362,-6.6522,-6.591,-6.5528,-6.5452,-6.5413,-6.5413,-6.5413,-6.5413,-6.5413,-6.5413,-6.5413,-6.5413,-6.5413,-6.5413,-4.7473,-4.8183,-4.843,-4.8987,-4.9669,-4.9906,-5.0151,-5.0435,-5.0604,-5.0702,-5.0702,-5.0702,-5.0827,-5.0741,-5.1279,-5.2049,-5.2779,-5.3549,-5.4395,-5.5011,-5.5241,-5.5472,-5.5626,-5.5703,-5.5703,-5.5703,-5.5703,-5.5703,-5.5703,-5.5703,-5.5703,-5.5703,-5.5703,-5.5983,-5.6368,-5.6588,-5.7165,-5.7665,-5.7896,-5.8896,-5.9896,-6.0281,-6.0589,-6.0704,-6.0781,-6.0781,-6.0781,-6.0781,-6.0781,-6.0819,-6.1396,-6.1947,-6.2024,-6.2627,-6.332,-6.4205,-6.4974,-6.5667,-6.5859,-6.5897,-6.5897,-6.5897,-6.5897,-6.5897,-6.5897,-6.5897,-6.5897,-6.5897,-6.609,-6.6667,-6.7513,-6.7628,-6.759,-6.7628,-6.7436,-6.6974,-6.6551,-6.5936,-6.5936,-6.5936,-6.5936,-6.6462,-6.6949,-6.7036,-6.6713,-6.66,-6.6241,-6.552,-6.489,-6.4329,-6.4594,-6.5288,-6.6085,-6.7187,-6.8317,-6.9425,-6.9769,-6.996,-6.9311,-6.8508,-6.7553,-6.6713,-6.5948,-6.5528,-6.5413,-6.5413,-6.5413,-6.5413,-6.5413,-6.5413,-6.5413,-6.5413,-6.5413,-6.5413,-6.5413,-4.6853,-4.7267,-4.795,-4.8828,-4.979,-5.0188,-5.0435,-5.057,-5.097,-5.1048,-5.0789,-5.1443,-5.151,-5.1356,-5.2049,-5.2895,-5.3741,-5.4126,-5.4818,-5.5434,-5.5703,-5.5665,-5.5703,-5.5703,-5.5703,-5.5703,-5.5703,-5.5703,-5.5703,-5.5703,-5.5703,-5.5703,-5.5703,-5.6242,-5.6714,-5.7022,-5.7665,-5.8319,-5.8973,-5.9627,-6.0242,-6.0781,-6.0781,-6.0781,-6.0781,-6.0781,-6.0781,-6.0781,-6.0819,-6.0935,-6.1639,-6.2281,-6.2704,-6.3628,-6.4397,-6.5166,-6.5474,-6.582,-6.5897,-6.5897,-6.5897,-6.5897,-6.5897,-6.5897,-6.5897,-6.5897,-6.5897,-6.5897,-6.632,-6.6859,-6.7859,-6.8667,-6.8783,-6.8898,-6.8321,-6.7744,-6.7013,-6.6167,-6.6013,-6.5974,-6.6308,-6.6833,-6.7178,-6.7341,-6.7414,-6.7313,-6.6877,-6.6092,-6.5552,-6.5039,-6.5623,-6.6506,-6.724,-6.8088,-6.9158,-6.9922,-6.996,-7.0075,-6.9846,-6.8967,-6.7859,-6.7095,-6.6483,-6.591,-6.5413,-6.5413,-6.5413,-6.5413,-6.5413,-6.5452,-6.549,-6.5452,-6.5452,-6.5413,-6.5413,-4.6158,-4.5813,-4.757,-4.8932,-5.0071,-5.0368,-5.0557,-5.0818,-5.1615,-5.1587,-5.1241,-5.2356,-5.2472,-5.2202,-5.2923,-5.3664,-5.4241,-5.4626,-5.5088,-5.5703,-5.5703,-5.5703,-5.5703,-5.5703,-5.5703,-5.5703,-5.5703,-5.5703,-5.5703,-5.5703,-5.5703,-5.5703,-5.5895,-5.6434,-5.7203,-5.7511,-5.8319,-5.9396,-5.9704,-6.005,-6.0512,-6.0781,-6.0781,-6.0781,-6.0781,-6.0781,-6.0781,-6.0819,-6.0819,-6.1166,-6.1743,-6.2589,-6.382,-6.4743,-6.5513,-6.5743,-6.5859,-6.5859,-6.5897,-6.5897,-6.5897,-6.5897,-6.5897,-6.5897,-6.5897,-6.5897,-6.5897,-6.6244,-6.6667,-6.7475,-6.8436,-6.9052,-6.9321,-6.9129,-6.8667,-6.7975,-6.7128,-6.6436,-6.609,-6.6205,-6.659,-6.7231,-6.8125,-6.8339,-6.8311,-6.8143,-6.7587,-6.6778,-6.6289,-6.5853,-6.6383,-6.7393,-6.776,-6.8432,-6.9616,-7.0151,-6.996,-6.9922,-6.9846,-6.912,-6.7782,-6.7286,-6.7056,-6.6216,-6.5413,-6.5413,-6.5413,-6.5413,-6.549,-6.5719,-6.5719,-6.5566,-6.5566,-6.5719,-6.549,-4.5177,-4.5772,-4.7092,-4.8314,-4.9323,-4.945,-4.9949,-5.0818,-5.2279,-5.2318,-5.1818,-5.2077,-5.2577,-5.3049,-5.378,-5.4434,-5.4587,-5.5049,-5.5483,-5.5665,-5.5703,-5.5703,-5.5703,-5.5703,-5.5703,-5.5703,-5.5703,-5.5703,-5.5703,-5.5703,-5.5703,-5.578,-5.6165,-5.6983,-5.7857,-5.828,-5.9242,-6.0242,-6.0358,-6.0435,-6.0704,-6.0781,-6.0781,-6.0819,-6.0858,-6.0935,-6.0935,-6.0935,-6.1281,-6.1743,-6.2589,-6.3743,-6.5205,-6.5667,-6.5859,-6.5897,-6.5897,-6.5897,-6.5897,-6.5897,-6.5897,-6.5897,-6.5897,-6.5897,-6.5897,-6.5897,-6.6128,-6.659,-6.7282,-6.8205,-6.8898,-6.9398,-6.9744,-6.9398,-6.9013,-6.8129,-6.7282,-6.6782,-6.632,-6.6628,-6.6974,-6.782,-6.8803,-6.9198,-6.9169,-6.8805,-6.8248,-6.7653,-6.7278,-6.6904,-6.6965,-6.7683,-6.7798,-6.8508,-6.9769,-7.0364,-7.0135,-6.9693,-6.9425,-6.8585,-6.7668,-6.6904,-6.6292,-6.5872,-6.5413,-6.5413,-6.5413,-6.5452,-6.5566,-6.5948,-6.6216,-6.6178,-6.6522,-6.6751,-6.6101,-4.463,-4.5386,-4.6543,-4.7629,-4.8482,-4.8621,-4.9009,-4.9769,-5.1356,-5.2049,-5.2192,-5.2962,-5.3664,-5.3972,-5.4664,-5.4972,-5.5049,-5.5444,-5.5626,-5.5665,-5.5703,-5.5703,-5.5703,-5.5703,-5.5703,-5.5703,-5.5703,-5.5703,-5.5703,-5.5703,-5.5742,-5.5895,-5.6599,-5.7484,-5.8319,-5.9127,-6.0012,-6.0704,-6.0858,-6.0896,-6.0896,-6.0858,-6.1089,-6.1166,-6.1408,-6.1473,-6.1858,-6.1897,-6.2166,-6.2743,-6.3435,-6.4397,-6.5436,-6.582,-6.5897,-6.5897,-6.5897,-6.5897,-6.5897,-6.5936,-6.5936,-6.5897,-6.5936,-6.5974,-6.6513,-6.6551,-6.659,-6.7103,-6.8244,-6.9167,-6.9475,-6.9898,-7.0244,-7.0167,-6.9552,-6.8783,-6.7936,-6.7205,-6.7205,-6.759,-6.8038,-6.8666,-6.9509,-6.9942,-6.9822,-6.9244,-6.8686,-6.8311,-6.7959,-6.7829,-6.7951,-6.8126,-6.8356,-6.8852,-6.9999,-7.0402,-7.0364,-6.9807,-6.9273,-6.8585,-6.7859,-6.6445,-6.5452,-6.5757,-6.5796,-6.5413,-6.5413,-6.5757,-6.5987,-6.6369,-6.6674,-6.6904,-6.7324,-6.7706,-6.7209,-4.4374,-4.4865,-4.5977,-4.6855,-4.7606,-4.8001,-4.8086,-4.8355,-5.0048,-5.1241,-5.2,-5.428,-5.4972,-5.5126,-5.5318,-5.5549,-5.5665,-5.5665,-5.5703,-5.5703,-5.5703,-5.5703,-5.5703,-5.5703,-5.5703,-5.5703,-5.5703,-5.5703,-5.5703,-5.5703,-5.578,-5.5972,-5.6742,-5.7665,-5.855,-5.9473,-6.0512,-6.1243,-6.1473,-6.1281,-6.1127,-6.1012,-6.1435,-6.187,-6.2255,-6.2627,-6.3089,-6.3269,-6.3269,-6.382,-6.4282,-6.5051,-6.5551,-6.5897,-6.5897,-6.5897,-6.5897,-6.5897,-6.5936,-6.609,-6.6013,-6.5974,-6.6051,-6.6436,-6.7051,-6.7359,-6.7411,-6.8013,-6.9129,-6.9744,-7.0052,-7.0475,-7.0821,-7.0744,-7.0052,-6.936,-6.8513,-6.7782,-6.8052,-6.8436,-6.8987,-6.955,-7.0022,-7.0493,-7.0215,-6.9651,-6.9192,-6.8801,-6.854,-6.854,-6.8601,-6.8929,-6.9273,-6.9846,-7.0364,-7.0402,-7.0402,-7.0211,-6.9693,-6.8967,-6.8165,-6.7133,-6.6522,-6.6598,-6.6483,-6.6178,-6.6216,-6.656,-6.6751,-6.7056,-6.7133,-6.7515,-6.8317,-6.8585,-6.8356,-4.45,-4.4898,-4.5371,-4.5745,-4.6242,-4.75,-4.774,-4.7702,-5.0308,-5.1433,-5.1779,-5.351,-5.4895,-5.5472,-5.5588,-5.5703,-5.5703,-5.5703,-5.5703,-5.5703,-5.5703,-5.5703,-5.5703,-5.5703,-5.5703,-5.5703,-5.5703,-5.5703,-5.5703,-5.5742,-5.6099,-5.6676,-5.7627,-5.8781,-6.0204,-6.105,-6.1781,-6.232,-6.2551,-6.2512,-6.2474,-6.2281,-6.1947,-6.2281,-6.2743,-6.3012,-6.3269,-6.3269,-6.3743,-6.4359,-6.5089,-6.559,-6.5782,-6.5897,-6.5936,-6.609,-6.609,-6.6167,-6.632,-6.6667,-6.6705,-6.6436,-6.6705,-6.7398,-6.8013,-6.8552,-6.8706,-6.909,-6.9937,-7.0283,-7.0667,-7.136,-7.1706,-7.1091,-7.0398,-6.9667,-6.8898,-6.859,-6.8629,-6.909,-6.959,-7.005,-7.0469,-7.0695,-7.0637,-7.0072,-6.9613,-6.9314,-6.9518,-6.9425,-6.9273,-6.9578,-6.9999,-7.019,-7.0402,-7.0402,-7.0402,-7.0326,-7.019,-6.9616,-6.8929,-6.8203,-6.7782,-6.763,-6.7553,-6.7362,-6.7439,-6.7324,-6.7859,-6.8088,-6.7821,-6.8088,-6.8967,-6.9425,-6.9196]},{"header":{"parameterUnit":"m.s-1","parameterCategory":1,"la1":31.0,"la2":29.5877,"lo1":-88.7671,"lo2":-86.6584,"dy":0.0162,"dx":0.0185,"nx":115,"ny":88,"refTime":"2024-02-08T06:00:00:Z","depth":0,"parameterNumber":3,"parameterNumberName":"V-component_of_WINDS"},"data":[0.0,0.0,0.0,0.0,0.0,0.0,0.0,0.0,0.0,0.0,0.0,0.0,0.0,0.0,0.0,0.0,0.0,0.0,0.0,0.0,0.0,0.0,0.0,0.0,0.0,0.0,0.0,0.0,0.0,0.0,0.0,0.0,0.0,0.0,0.0,0.0,0.0,0.0,0.0,0.0,0.0,0.0,0.0,0.0,0.0,0.0,0.0,0.0,0.0,0.0,0.0,0.0,0.0,0.0,0.0,0.0,0.0,0.0,0.0,0.0,0.0,0.0,0.0,0.0,0.0,0.0,0.0,0.0,0.0,0.0,0.0,0.0,0.0,0.0,0.0,0.0,0.0,0.0,0.0,0.0,0.0,0.0,0.0,0.0,0.0,0.0,0.0,0.0,0.0,0.0,0.0,0.0,0.0,0.0,0.0,0.0,0.0,0.0,0.0,0.0,0.0,0.0,0.0,0.0,0.0,0.0,0.0,0.0,0.0,0.0,0.0,0.0,0.0,0.0,0.0,0.0,0.0,0.0,0.0,0.0,0.0,0.0,0.0,0.0,0.0,0.0,0.0,0.0,0.0,0.0,0.0,0.0,0.0,0.0,0.0,0.0,0.0,0.0,0.0,0.0,0.0,0.0,0.0,0.0,0.0,0.0,0.0,0.0,0.0,0.0,0.0,0.0,0.0,0.0,0.0,0.0,0.0,0.0,0.0,0.0,0.0,0.0,0.0,0.0,0.0,0.0,0.0,0.0,0.0,0.0,0.0,0.0,0.0,0.0,0.0,0.0,0.0,0.0,0.0,0.0,0.0,0.0,0.0,0.0,0.0,0.0,0.0,0.0,0.0,0.0,0.0,0.0,0.0,0.0,0.0,0.0,0.0,0.0,0.0,0.0,0.0,0.0,0.0,0.0,0.0,0.0,0.0,0.0,0.0,0.0,0.0,0.0,0.0,0.0,0.0,0.0,0.0,0.0,0.0,0.0,0.0,0.0,0.0,0.0,0.0,0.0,0.0,0.0,0.0,0.0,0.0,0.0,0.0,0.0,0.0,0.0,0.0,0.0,0.0,0.0,0.0,0.0,0.0,0.0,0.0,0.0,0.0,0.0,0.0,0.0,0.0,0.0,0.0,0.0,0.0,0.0,0.0,0.0,0.0,0.0,0.0,0.0,0.0,0.0,0.0,0.0,0.0,0.0,0.0,0.0,0.0,0.0,0.0,0.0,0.0,0.0,0.0,0.0,0.0,0.0,0.0,0.0,0.0,0.0,0.0,0.0,0.0,0.0,0.0,0.0,0.0,0.0,0.0,0.0,0.0,0.0,0.0,0.0,0.0,0.0,0.0,0.0,0.0,0.0,0.0,0.0,0.0,0.0,0.0,0.0,0.0,0.0,0.0,0.0,0.0,0.0,0.0,0.0,0.0,0.0,0.0,0.0,0.0,0.0,0.0,0.0,0.0,0.0,0.0,0.0,0.0,0.0,0.0,0.0,0.0,0.0,0.0,0.0,0.0,0.0,0.0,0.0,0.0,0.0,0.0,0.0,0.0,0.0,0.0,0.0,0.0,0.0,0.0,0.0,0.0,0.0,0.0,0.0,0.0,0.0,0.0,0.0,0.0,0.0,0.0,0.0,0.0,0.0,0.0,0.0,0.0,0.0,0.0,0.0,0.0,0.0,0.0,0.0,0.0,0.0,0.0,0.0,0.0,0.0,0.0,0.0,0.0,0.0,0.0,0.0,0.0,0.0,0.0,0.0,0.0,0.0,0.0,0.0,0.0,0.0,0.0,0.0,0.0,0.0,0.0,0.0,0.0,0.0,0.0,0.0,0.0,0.0,0.0,0.0,0.0,0.0,0.0,0.0,0.0,0.0,0.0,0.0,0.0,0.0,0.0,0.0,0.0,0.0,0.0,0.0,0.0,0.0,0.0,0.0,0.0,0.0,0.0,0.0,0.0,0.0,0.0,0.0,0.0,0.0,0.0,0.0,0.0,0.0,0.0,0.0,0.0,0.0,0.0,0.0,0.0,0.0,0.0,0.0,0.0,0.0,0.0,0.0,0.0,0.0,0.0,0.0,0.0,0.0,0.0,0.0,0.0,0.0,0.0,0.0,0.0,0.0,0.0,0.0,0.0,0.0,0.0,0.0,0.0,0.0,0.0,0.0,0.0,0.0,0.0,0.0,0.0,0.0,0.0,0.0,0.0,0.0,0.0,0.0,0.0,0.0,0.0,0.0,0.0,0.0,0.0,0.0,0.0,0.0,0.0,0.0,0.0,0.0,0.0,0.0,0.0,0.0,0.0,0.0,0.0,0.0,0.0,0.0,0.0,0.0,0.0,0.0,0.0,0.0,0.0,0.0,0.0,0.0,0.0,0.0,0.0,0.0,0.0,0.0,0.0,0.0,0.0,0.0,0.0,0.0,0.0,0.0,0.0,0.0,0.0,0.0,0.0,0.0,0.0,0.0,0.0,0.0,0.0,0.0,0.0,0.0,0.0,0.0,0.0,0.0,0.0,0.0,0.0,0.0,0.0,0.0,0.0,0.0,0.0,0.0,0.0,0.0,0.0,0.0,0.0,0.0,0.0,0.0,0.0,0.0,0.0,0.0,0.0,0.0,0.0,0.0,0.0,0.0,0.0,0.0,0.0,0.0,0.0,0.0,0.0,0.0,0.0,0.0,0.0,0.0,0.0,0.0,0.0,0.0,0.0,0.0,0.0,0.0,0.0,0.0,0.0,0.0,0.0,0.0,0.0,0.0,0.0,0.0,0.0,0.0,0.0,0.0,0.0,0.0,0.0,0.0,0.0,0.0,0.0,0.0,0.0,0.0,0.0,0.0,0.0,0.0,0.0,0.0,0.0,0.0,0.0,0.0,0.0,0.0,0.0,0.0,0.0,0.0,0.0,0.0,0.0,0.0,0.0,0.0,0.0,0.0,0.0,0.0,0.0,0.0,0.0,0.0,0.0,0.0,0.0,0.0,0.0,0.0,0.0,0.0,0.0,0.0,0.0,0.0,0.0,0.0,0.0,0.0,0.0,0.0,0.0,0.0,0.0,0.0,0.0,0.0,0.0,0.0,0.0,0.0,0.0,0.0,0.0,0.0,0.0,0.0,0.0,0.0,0.0,0.0,0.0,0.0,0.0,0.0,0.0,0.0,0.0,0.0,0.0,0.0,0.0,0.0,0.0,0.0,0.0,0.0,0.0,0.0,0.0,0.0,0.0,0.0,0.0,0.0,0.0,0.0,0.0,0.0,0.0,0.0,0.0,0.0,0.0,0.0,0.0,0.0,0.0,0.0,0.0,0.0,0.0,0.0,0.0,0.0,0.0,0.0,0.0,0.0,0.0,0.0,0.0,0.0,0.0,0.0,0.0,0.0,0.0,0.0,0.0,0.0,0.0,0.0,0.0,0.0,0.0,0.0,0.0,0.0,0.0,0.0,0.0,0.0,0.0,0.0,0.0,0.0,0.0,0.0,0.0,0.0,0.0,0.0,0.0,0.0,0.0,0.0,0.0,0.0,0.0,0.0,0.0,0.0,0.0,0.0,0.0,0.0,0.0,0.0,0.0,0.0,0.0,0.0,0.0,0.0,0.0,0.0,0.0,0.0,0.0,0.0,0.0,0.0,0.0,0.0,0.0,0.0,0.0,0.0,0.0,0.0,0.0,0.0,0.0,0.0,0.0,0.0,0.0,0.0,0.0,0.0,0.0,0.0,0.0,0.0,0.0,0.0,0.0,0.0,0.0,0.0,0.0,0.0,0.0,0.0,0.0,0.0,0.0,0.0,0.0,0.0,0.0,0.0,0.0,0.0,0.0,0.0,0.0,0.0,0.0,0.0,0.0,0.0,0.0,0.0,0.0,0.0,0.0,0.0,0.0,0.0,0.0,0.0,0.0,0.0,0.0,0.0,0.0,0.0,0.0,0.0,0.0,0.0,0.0,0.0,0.0,0.0,0.0,0.0,0.0,0.0,0.0,0.0,0.0,0.0,0.0,0.0,0.0,0.0,0.0,0.0,0.0,0.0,0.0,0.0,0.0,0.0,0.0,0.0,0.0,0.0,0.0,0.0,0.0,0.0,0.0,0.0,0.0,0.0,0.0,0.0,0.0,0.0,0.0,0.0,0.0,0.0,0.0,0.0,0.0,0.0,0.0,0.0,0.0,0.0,0.0,0.0,0.0,0.0,0.0,0.0,0.0,0.0,0.0,0.0,0.0,0.0,0.0,0.0,0.0,0.0,0.0,0.0,0.0,0.0,0.0,0.0,0.0,0.0,0.0,0.0,0.0,0.0,0.2933,0.0,0.0,0.0,0.0,0.0,0.0,0.0,0.0,0.0,0.0,0.0,0.0,0.0,0.0,0.0,0.0,0.0,0.0,0.0,0.0,0.0,0.0,0.0,0.0,0.0,0.0,0.0,0.0,0.0,0.0,0.0,0.0,0.0,0.0,0.0,0.0,0.0,0.0,0.0,0.0,0.0,0.0,0.0,0.0,0.0,0.0,0.0,0.0,0.0,0.0,0.0,0.0,0.0,0.0,0.0,0.0,0.0,0.0,0.0,0.0,0.0,0.0,0.0,0.0,0.0,0.0,0.0,0.0,0.0,0.0,0.0,0.0,0.0,0.0,0.0,0.0,0.0,0.0,0.0,0.0,0.0,0.0,0.0,0.0,0.0,0.0,0.0,0.0,0.0,0.0,0.0,0.0,0.0,0.0,0.0,0.0,0.0,0.0,0.0,0.0,0.0,0.0,0.0,0.0,0.0,0.0,0.0,0.0,0.0,0.0,0.2944,0.292,0.2944,0.2944,0.292,0.0,0.0,0.0,0.0,0.0,0.0,0.0,0.0,0.0,0.0,0.0,0.0,0.0,0.0,0.0,0.0,0.0,0.0,0.0,0.0,0.0,0.0,0.0,0.0,0.0,0.0,0.0,0.0,0.0,0.0,0.0,0.0,0.0,0.0,0.0,0.0,0.0,0.0,0.0,0.0,0.0,0.0,0.0,0.0,0.0,0.0,0.0,0.0,0.0,0.0,0.0,0.0,0.0,0.0,0.0,0.0,0.0,0.0,0.0,0.0,0.0,0.0,0.0,0.0,0.0,0.0,0.0,0.0,0.0,0.0,0.0,0.0,0.0,0.0,0.0,0.0,0.0,0.0,0.0,0.0,0.0,0.0,0.0,0.0,0.0,0.0,0.0,0.0,0.0,0.0,0.0,0.0,0.0,0.0,0.0,0.0,0.0,0.0,0.0,0.0,0.0,0.0,0.0,0.0,0.0,0.0,0.0,0.0,0.0,0.0,0.0,0.0,0.2939,0.2939,0.2939,0.0,0.0,0.0,0.0,0.0,0.0,0.0,0.0,0.0,0.0,0.0,0.0,0.0,0.0,0.0,0.0,0.0,0.0,0.0,0.0,0.0,0.0,0.0,0.0,0.0,0.0,0.0,0.0,0.0,0.0,0.0,0.0,0.0,0.0,0.0,0.0,0.0,0.0,0.0,0.0,0.0,0.0,0.0,0.0,0.0,0.0,0.0,0.0,0.0,0.0,0.0,0.0,0.0,0.0,0.0,0.0,0.0,0.0,0.0,0.0,0.0,0.0,0.0,0.0,0.0,0.0,0.0,0.0,0.0,0.0,0.0,0.0,0.0,0.0,0.0,0.0,0.0,0.0,0.0,0.0,0.0,0.0,0.0,0.0,0.0,0.0,0.0,0.0,0.0,0.0,0.0,0.0,0.0,0.0,0.0,0.0,0.0,0.0,0.0,0.0,0.0,0.0,0.0,0.0,0.0,0.0,0.0,0.0,0.0,0.0,0.2842,0.2992,0.2997,0.0,0.2994,0.0,0.0,0.0,0.0,0.0,0.0,0.0,0.0,0.0,0.0,0.0,0.0,0.0,0.0,0.0,0.0,0.0,0.0,0.0,0.0,0.0,0.0,0.0,0.0,0.0,0.0,0.0,0.0,0.0,0.0,0.0,0.0,0.0,0.0,0.0,0.0,0.0,0.0,0.0,0.0,0.0,0.0,0.0,0.0,0.0,0.0,0.0,0.0,0.0,0.0,0.0,0.0,0.0,0.0,0.0,0.0,0.0,0.0,0.0,0.0,0.0,0.0,0.0,0.0,0.0,0.0,0.0,0.0,0.0,0.0,0.0,0.0,0.0,0.0,0.0,0.0,0.0,0.0,0.0,0.0,0.0,0.0,0.0,0.0,0.0,0.0,0.0,0.0,0.0,0.0,0.0,0.0,0.0,0.0,0.0,0.0,0.0,0.0,0.0,0.0,0.0,0.0,0.0,0.0,0.0,0.0,0.0,0.0,0.0,0.0,0.2785,0.295,0.2953,0.292,0.0,0.0,0.0,0.0,0.0,0.0,0.0,0.0,0.0,0.0,0.0,0.0,0.0,0.0,0.0,0.0,0.0,0.0,0.0,0.0,0.0,0.0,0.0,0.0,0.0,0.0,0.0,0.0,0.0,0.0,0.0,0.0,0.0,0.0,0.0,0.0,0.0,0.0,0.0,0.0,0.0,0.0,0.0,0.0,0.0,0.0,0.0,0.0,0.0,0.0,0.0,0.0,0.0,0.0,0.0,0.0,0.0,0.0,0.0,0.0,0.0,0.0,0.0,0.0,0.0,0.0,0.0,0.0,0.0,0.0,0.0,0.0,0.0,0.0,0.0,0.0,0.0,0.0,0.0,0.0,0.0,0.0,0.0,0.0,0.0,0.0,0.0,0.0,0.0,0.0,0.0,0.0,0.0,0.0,0.0,0.0,0.0,0.0,0.0,0.0,0.0,0.0,0.0,0.0,0.0,0.0,0.0,0.0,0.0,0.0,0.2725,0.282,0.2888,0.2911,0.2807,0.2722,0.0,0.0,0.0,0.0,0.0,0.0,0.0,0.0,0.0,0.0,0.0,0.0,0.0,0.0,0.0,0.0,0.0,0.0,0.0,0.0,0.0,0.0,0.0,0.0,0.0,0.0,0.0,0.0,0.0,0.0,0.0,0.0,0.0,0.0,0.0,0.0,0.0,0.0,0.0,0.0,0.0,0.0,0.0,0.0,0.0,0.0,0.0,0.0,0.0,0.0,0.0,0.0,0.0,0.0,0.0,0.0,0.0,0.0,0.0,0.0,0.0,0.0,0.0,0.0,0.0,0.0,0.0,0.0,0.0,0.0,0.0,0.0,0.0,0.0,0.0,0.0,0.0,0.0,0.0,0.0,0.0,0.0,0.0,0.0,0.0,0.0,0.0,0.0,0.0,0.0,0.0,0.0,0.0,0.0,0.0,0.0,0.0,0.0,0.0,0.0,0.0,0.0,0.0,0.0,0.0,0.0,0.0,0.0,0.2892,0.2804,0.2878,0.2989,0.2889,0.2828,0.0,0.0,0.0,0.0,0.0,0.0,0.0,0.0,0.0,0.0,0.0,0.0,0.0,0.0,0.0,0.0,0.0,0.0,0.0,0.0,0.0,0.0,0.0,0.0,0.0,0.0,0.0,0.0,0.0,0.0,0.0,0.0,0.0,0.0,0.0,0.0,0.0,0.0,0.0,0.0,0.0,0.0,0.0,0.0,0.0,0.0,0.0,0.0,0.0,0.0,0.0,0.0,0.0,0.0,0.0,0.0,0.0,0.0,0.0,0.0,0.0,0.0,0.0,0.0,0.0,0.0,0.0,0.0,0.0,0.0,0.0,0.0,0.0,0.0,0.0,0.0,0.0,0.0,0.0,0.0,0.0,0.0,0.0,0.0,0.0,0.0,0.0,0.0,0.0,0.0,0.0,0.0,0.0,0.0,0.0,0.0,0.0,0.0,0.0,0.0,0.0,0.0,0.0,0.0,0.0,0.0,0.0,0.0,0.0,0.2638,0.2695,0.2763,0.2839,0.2766,0.2725,0.0,0.0,0.0,0.0,0.0,0.0,0.0,0.0,0.0,0.0,0.0,0.0,0.0,0.0,0.0,0.0,0.0,0.0,0.0,0.0,0.0,0.0,0.0,0.0,0.0,0.0,0.0,0.0,0.0,0.0,0.0,0.0,0.0,0.0,0.0,0.0,0.0,0.0,0.0,0.0,0.0,0.0,0.0,0.0,0.0,0.0,0.0,0.0,0.0,0.0,0.0,0.0,0.0,0.0,0.0,0.0,0.0,0.0,0.0,0.0,0.0,0.0,0.0,0.0,0.0,0.0,0.0,0.0,0.0,0.0,0.0,0.0,0.0,0.0,0.0,0.0,0.0,0.0,0.0,0.0,0.0,0.0,0.0,0.0,0.0,0.0,0.0,0.0,0.0,0.0,0.0,0.0,0.0,0.0,0.0,0.0,0.0,0.0,0.0,0.0,0.0,0.0,0.0,0.0,0.0,0.0,0.0,0.0,0.0,0.26,0.0,0.2763,0.2823,0.2725,0.2673,0.0,0.0,0.0,0.0,0.0,0.0,0.0,0.0,0.0,0.0,0.0,0.0,0.0,0.0,0.0,0.0,0.0,0.0,0.0,0.0,0.0,0.0,0.0,0.0,0.0,0.0,0.0,0.0,0.0,0.0,0.0,0.0,0.0,0.0,0.0,0.0,0.0,0.0,0.0,0.0,0.0,0.0,0.0,0.0,0.0,0.0,0.0,0.0,0.0,0.0,0.0,0.0,0.0,0.0,0.0,0.0,0.0,0.0,0.0,0.0,0.0,0.0,0.0,0.0,0.0,0.0,0.0,0.0,0.0,0.0,0.0,0.0,0.0,0.0,0.0,0.0,0.0,0.0,0.0,0.0,0.0,0.0,0.0,0.0,0.0,0.0,0.0,0.0,0.0,0.0,0.0,0.0,0.0,0.0,0.0,0.0,0.0,0.0,0.0,0.0,0.0,0.0,0.0,0.0,0.0,0.0,0.0,0.0,0.2597,0.2812,0.2875,0.2878,0.2828,0.2722,0.2638,0.0,0.0,0.0,0.0,0.0,0.0,0.0,0.0,0.0,0.0,0.0,0.0,0.0,0.0,0.0,0.0,0.0,0.0,0.0,0.0,0.0,0.0,0.0,0.0,0.0,0.0,0.0,0.0,0.0,0.0,0.0,0.0,0.0,0.0,0.0,0.0,0.0,0.0,0.0,0.0,0.0,0.0,0.0,0.0,0.0,0.0,0.0,0.0,0.0,0.0,0.0,0.0,0.0,0.0,0.0,0.0,0.0,0.0,0.0,0.0,0.0,0.0,0.0,0.0,0.0,0.0,0.0,0.0,0.0,0.0,0.0,0.0,0.0,0.0,0.0,0.0,0.0,0.0,0.0,0.0,0.0,0.0,0.0,0.0,0.0,0.0,0.0,0.0,0.0,0.0,0.0,0.0,0.0,0.0,0.0,0.0,0.0,0.0,0.0,0.0,0.0,0.0,0.0,0.0,0.0,0.0,0.0,0.0,0.0,0.2597,0.2698,0.276,0.2823,0.2684,0.2651,0.0,0.0,0.0,0.0,0.0,0.0,0.0,0.0,0.0,0.0,0.0,0.0,0.0,0.0,0.0,0.0,0.0,0.0,0.0,0.0,0.0,0.0,0.0,0.0,0.0,0.0,0.0,0.0,0.0,0.0,0.0,0.0,0.0,0.0,0.0,0.0,0.0,0.0,0.0,0.0,0.0,0.0,0.0,0.0,0.0,0.0,0.0,0.0,0.0,0.0,0.0,0.0,0.0,0.0,0.0,0.0,0.0,0.0,0.0,0.0,0.0,0.0,0.0,0.0,0.0,0.0,0.0,0.0,0.0,0.0,0.0,0.0,0.0,0.0,0.0,0.0,0.0,0.0,0.0,0.0,0.0,0.0,0.0,0.0,0.0,0.0,0.0,0.0,0.0,0.0,0.0,0.0,0.0,0.0,0.0,0.0,0.0,0.0,0.0,0.0,0.0,0.0,0.0,0.0,0.0,0.0,0.0,0.0,0.0,0.2654,0.2741,0.2842,0.2818,0.2719,0.2684,0.2711,0.0,0.0,0.0,0.0,0.0,0.0,0.0,0.0,0.0,0.0,0.0,0.0,0.0,0.0,0.0,0.0,0.0,0.0,0.0,0.0,0.0,0.0,0.0,0.0,0.0,0.0,0.0,0.0,0.0,0.0,0.0,0.0,0.0,0.0,0.0,0.0,0.0,0.0,0.0,0.0,0.0,0.0,0.0,0.0,0.0,0.0,0.0,0.0,0.0,0.0,0.0,0.0,0.0,0.0,0.0,0.0,0.0,0.0,0.0,0.0,0.0,0.0,0.0,0.0,0.0,0.0,0.0,0.0,0.0,0.0,0.0,0.0,0.0,0.0,0.0,0.0,0.0,0.0,0.0,0.0,0.0,0.0,0.0,0.0,0.0,0.0,0.0,0.0,0.0,0.0,0.0,0.0,0.0,0.0,0.0,0.0,0.0,0.0,0.0,0.0,0.0,0.0,0.0,0.0,0.0,0.0,0.0,0.0,0.2928,0.2992,0.2997,0.2936,0.282,0.273,0.0,0.0,0.0,0.0,0.0,0.0,0.0,0.0,0.0,0.0,0.0,0.0,0.0,0.0,0.0,0.0,0.0,0.0,0.0,0.0,0.0,0.0,0.0,0.0,0.0,0.0,0.0,0.0,0.0,0.0,0.0,0.0,0.0,0.0,0.0,0.0,0.0,0.0,0.0,0.0,0.0,0.0,0.0,0.0,0.0,0.0,0.0,0.0,0.0,0.0,0.0,0.0,0.0,0.0,0.0,0.0,0.0,0.0,0.0,0.0,0.0,0.0,0.0,0.0,0.0,0.0,0.0,0.0,0.0,0.0,0.0,0.0,0.0,0.0,0.0,0.0,0.0,0.0,0.0,0.0,0.0,0.0,0.0,0.0,0.0,0.0,0.0,0.0,0.0,0.0,0.0,0.0,0.0,0.0,0.0,0.0,0.0,0.0,0.0,0.0,0.0,0.0,0.0,0.0,0.0,0.0,0.0,0.0,0.0,0.305,0.315,0.3177,0.3071,0.2883,0.279,0.0,0.0,0.0,0.0,0.0,0.0,0.0,0.0,0.0,0.0,0.0,0.0,0.0,0.0,0.0,0.0,0.0,0.0,0.0,0.0,0.0,0.0,0.0,0.0,0.0,0.0,0.0,0.0,0.0,0.0,0.0,0.0,0.0,0.0,0.0,0.0,0.0,0.0,0.0,0.0,0.0,0.0,0.0,0.0,0.0,0.0,0.0,0.0,0.0,0.0,0.0,0.0,0.0,0.0,0.0,0.0,0.0,0.0,0.0,0.0,0.0,0.0,0.0,0.0,0.0,0.0,0.0,0.0,0.0,0.0,0.0,0.0,0.0,0.0,0.0,0.0,0.0,0.0,0.0,0.0,0.0,0.0,0.0,0.0,0.0,0.0,0.0,0.0,0.0,0.0,0.0,0.0,0.0,0.0,0.0,0.0,0.0,0.0,0.0,0.0,0.0,0.0,0.0,0.0,0.0,0.0,0.0,0.0,0.3014,0.3085,0.3264,0.3327,0.3256,0.3046,0.2913,0.0,0.0,0.0,0.0,0.0,0.0,0.0,0.0,0.0,0.0,0.0,0.0,0.0,0.0,0.0,0.0,0.0,0.0,0.0,0.0,0.0,0.0,0.0,0.0,0.0,0.0,0.0,0.0,0.0,0.0,0.0,0.0,0.0,0.0,0.0,0.0,0.0,0.0,0.0,0.0,0.0,0.0,0.0,0.0,0.0,0.0,0.0,0.0,0.0,0.0,0.0,0.0,0.0,0.0,0.0,0.0,0.0,0.0,0.0,0.0,0.0,0.0,0.0,0.0,0.0,0.0,0.0,0.0,0.0,0.0,0.0,0.0,0.0,0.0,0.0,0.0,0.0,0.0,0.0,0.0,0.0,0.0,0.0,0.0,0.0,0.0,0.0,0.0,0.0,0.0,0.0,0.0,0.0,0.0,0.0,0.0,0.0,0.0,0.0,0.0,0.0,0.0,0.0,0.0,0.0,0.0,0.0,0.0,0.3027,0.3098,0.3327,0.3422,0.3414,0.3189,0.3015,0.0,0.0,0.0,0.0,0.0,0.0,0.0,0.0,0.0,0.0,0.0,0.0,0.0,0.0,0.0,0.0,0.0,0.0,0.0,0.0,0.0,0.0,0.0,0.0,0.0,0.0,0.0,0.0,0.0,0.0,0.0,0.0,0.0,0.0,0.0,0.0,0.0,0.0,0.0,0.0,0.0,0.0,0.0,0.0,0.0,0.0,0.0,0.0,0.0,0.0,0.0,0.0,0.0,0.0,0.0,0.0,0.0,0.0,0.0,0.0,0.0,0.0,0.0,0.0,0.0,0.0,0.0,0.0,0.0,0.0,0.0,0.0,0.0,0.0,0.0,0.0,0.0,0.0,0.0,0.0,0.0,0.0,0.0,0.0,0.0,0.0,0.0,0.0,0.0,0.0,0.0,0.0,0.0,0.0,0.0,0.0,0.0,0.0,0.0,0.0,0.0,0.0,0.0,0.0,0.0,0.0,0.0,0.0,0.3135,0.316,0.3387,0.3477,0.3477,0.3208,0.3098,0.0,0.0,0.0,0.0,0.0,0.0,0.0,0.0,0.0,0.0,0.0,0.0,0.0,0.0,0.0,0.0,0.0,0.0,0.0,0.0,0.0,0.0,0.0,0.0,0.0,0.0,0.0,0.0,0.0,0.0,0.0,0.0,0.0,0.0,0.0,0.0,0.0,0.0,0.0,0.0,0.0,0.0,0.0,0.0,0.0,0.0,0.0,0.0,1.0282,0.0,0.0,0.0,0.0,0.0,0.0,0.0,0.0,0.0,0.0,0.0,0.0,0.0,0.0,0.0,0.0,0.0,0.0,0.0,0.0,0.0,0.0,0.0,0.0,0.0,0.0,0.0,0.0,0.0,0.0,0.0,0.0,0.0,0.0,0.0,0.0,0.0,0.0,0.0,0.0,0.0,0.0,0.0,0.0,0.0,0.0,0.0,0.0,0.0,0.0,0.0,0.0,0.0,0.0,0.0,0.0,0.0,0.0,0.0,0.3065,0.3188,0.3362,0.3458,0.3452,0.336,0.324,0.0,0.0,0.0,0.0,0.0,0.0,0.0,0.0,0.0,0.0,0.0,0.0,0.0,0.0,0.0,0.0,0.0,0.0,0.0,0.0,0.0,0.0,0.0,0.0,0.0,0.0,0.0,0.0,0.0,0.0,0.0,0.0,0.0,0.0,0.0,0.0,0.0,0.0,0.0,0.0,0.0,0.0,0.0,0.0,0.0,0.0,0.0,0.0,0.0,0.0,0.0,0.0,0.0,0.0,0.0,0.0,0.0,0.0,0.0,0.0,0.0,0.0,0.0,0.0,0.0,0.0,0.0,0.0,0.0,0.0,0.0,0.0,0.0,0.0,0.0,0.0,0.0,0.0,0.0,0.0,0.0,0.0,0.0,0.0,0.0,0.0,0.0,0.0,0.0,0.0,0.0,0.0,0.0,0.0,0.0,0.0,0.0,0.0,0.0,0.0,0.0,0.0,0.0,0.0,0.0,0.0,0.0,0.2958,0.3022,0.3103,0.3313,0.3403,0.3412,0.3458,0.3373,0.3098,0.0,0.0,0.0,0.0,0.0,0.0,0.0,0.0,0.0,0.0,0.0,0.0,0.0,0.0,0.0,0.0,0.0,0.0,0.0,0.0,0.0,0.0,0.0,0.0,0.0,0.0,0.0,0.0,0.0,0.0,0.0,0.0,0.0,0.0,0.0,0.0,0.0,0.0,0.9427,0.9764,0.0,0.0,0.0,0.0,0.0,0.0,0.0,0.0,1.0672,0.0,0.0,0.0,0.0,0.0,0.0,0.0,0.0,0.0,0.0,0.0,0.0,0.0,0.0,0.0,0.0,0.0,0.0,0.0,0.0,0.0,0.0,0.0,0.0,0.0,0.0,0.0,0.0,0.0,0.0,0.0,0.0,0.0,0.0,0.0,0.0,0.0,0.0,0.0,0.0,0.0,0.0,0.0,0.0,0.0,0.0,0.0,0.0,0.0,0.0,0.0,0.0,0.0,0.0,0.0,0.0,0.3047,0.3022,0.3041,0.3213,0.3294,0.336,0.3409,0.3422,0.3335,0.3098,0.0,0.0,0.0,0.0,0.0,0.0,0.0,0.0,0.0,0.0,0.0,0.0,0.0,0.0,0.0,0.0,0.0,0.0,0.0,0.0,0.0,0.0,0.0,0.0,0.0,0.0,0.0,0.0,0.0,0.0,0.0,0.0,0.0,0.0,0.0,0.0,0.0,0.0,0.0,1.0542,1.0647,0.0,0.0,0.0,0.0,0.0,0.0,0.0,0.0,1.055,0.0,0.0,0.0,0.0,0.0,0.0,0.0,0.0,0.0,0.0,0.0,0.0,0.0,0.0,0.0,0.0,0.0,0.0,0.0,0.0,0.0,0.0,0.0,0.0,0.0,0.0,0.0,0.0,0.0,0.0,0.0,0.0,0.0,0.0,0.0,0.0,0.0,0.0,0.0,0.0,0.0,0.0,0.0,0.0,0.0,0.0,0.0,0.0,0.0,0.0,0.0,0.0,0.0,0.0,0.0,0.2997,0.3019,0.3109,0.3176,0.3289,0.3335,0.3362,0.3283,0.3248,0.0,0.0,0.0,0.0,0.0,0.0,0.0,0.0,0.0,0.0,0.0,0.0,0.0,0.0,0.0,0.0,0.0,0.0,0.0,0.0,0.0,0.0,0.0,0.0,0.0,0.0,0.0,0.0,0.0,0.0,0.0,0.0,0.0,0.0,0.0,0.0,0.0,0.0,0.0,0.0,1.0907,1.107,1.1346,0.0,0.0,0.0,0.0,0.0,0.0,1.0785,1.0582,0.0,0.0,0.0,0.0,0.0,0.0,0.0,0.0,0.0,0.0,0.0,0.0,0.0,0.0,0.0,0.0,0.0,0.0,0.0,0.0,0.0,0.0,0.0,0.0,0.0,0.0,0.0,0.0,0.0,0.0,0.0,0.0,0.0,0.0,0.0,0.0,0.0,0.0,0.0,0.0,0.0,0.0,0.0,0.0,0.0,0.0,0.0,0.0,0.0,0.0,0.0,0.0,0.0,0.0,0.0,0.2877,0.3038,0.3106,0.3229,0.3278,0.3311,0.3319,0.3251,0.3155,0.0,0.0,0.0,0.0,0.0,0.0,0.0,0.0,0.0,0.0,0.0,0.0,0.0,0.0,0.0,0.0,0.0,0.0,0.0,0.0,0.0,0.0,0.0,0.0,0.0,0.0,0.0,0.0,0.0,0.0,0.0,0.0,0.0,0.0,0.0,0.0,0.0,0.0,0.0,0.0,0.0,1.1524,1.1744,1.1581,0.0,0.0,0.0,0.0,1.1508,1.1224,0.0,0.0,0.0,0.0,0.0,0.0,0.0,0.0,0.0,0.0,0.0,0.0,0.0,0.0,0.0,0.0,0.0,0.0,0.0,0.0,0.0,0.0,0.0,0.0,0.0,0.0,0.0,0.0,0.0,0.0,0.0,0.0,0.0,0.0,0.0,0.0,0.0,0.0,0.0,0.0,0.0,0.0,0.0,0.0,0.0,0.0,0.0,0.0,0.0,0.0,0.0,0.0,0.0,0.0,0.0,0.0,0.292,0.3044,0.3166,0.3224,0.3187,0.3216,0.3316,0.316,0.3093,0.0,0.0,0.0,0.0,0.0,0.0,0.0,0.0,0.0,0.0,0.0,0.0,0.0,0.0,0.0,0.0,0.0,0.0,0.0,0.0,0.0,0.0,0.0,0.0,0.0,0.0,0.0,0.0,0.0,0.0,0.0,0.0,0.0,0.0,0.0,0.0,0.0,0.0,0.0,0.0,0.0,1.2085,1.1817,1.2012,1.2004,0.0,0.0,1.2199,1.1809,1.2328,0.0,0.0,0.0,0.0,0.0,0.0,0.0,0.0,0.0,0.0,0.0,0.0,0.0,0.0,0.0,0.0,0.0,0.0,0.0,0.0,0.0,0.0,0.0,0.0,0.0,0.0,0.0,0.0,0.0,0.0,0.0,0.0,0.0,0.0,0.0,0.0,0.0,0.0,0.0,0.0,0.0,0.0,0.0,0.0,0.0,0.0,0.0,0.0,0.0,0.0,0.0,0.0,0.0,0.0,0.0,0.3216,0.3764,0.3776,0.3876,0.4078,0.3783,0.3546,0.3219,0.312,0.2997,0.0,0.0,0.0,0.0,0.0,0.0,0.0,0.0,0.0,0.0,0.0,0.0,0.0,0.0,0.0,0.0,0.0,0.0,0.0,0.0,0.0,0.0,0.0,0.0,0.0,0.0,0.0,0.0,0.0,0.0,0.0,0.0,0.0,0.0,0.0,0.0,0.0,0.0,0.0,0.0,0.0,0.0,1.2277,1.2272,0.0,0.0,0.0,1.2337,1.2109,0.0,0.0,0.0,0.0,0.0,0.0,0.0,0.0,0.0,0.0,0.0,0.0,0.0,0.0,0.0,0.0,0.0,0.0,0.0,0.0,0.0,0.0,0.0,0.0,0.0,0.0,0.0,0.0,0.0,0.0,0.0,0.0,0.0,0.0,0.0,0.0,0.0,0.0,0.0,0.0,0.0,0.0,0.0,0.0,0.0,0.0,0.0,0.0,0.0,0.0,0.0,0.0,0.0,0.0,0.0,0.0,0.0,0.4474,0.4724,0.4864,0.4981,0.4583,0.4081,0.3428,0.3274,0.0,0.0,0.0,0.0,0.0,0.0,0.0,0.0,0.0,0.0,0.0,0.0,0.0,0.0,0.0,0.0,0.0,0.0,0.0,0.0,0.0,0.0,0.0,0.0,0.0,0.0,0.0,0.6757,0.0,0.0,0.0,0.0,0.0,0.0,0.0,0.0,0.0,0.0,0.0,0.0,0.0,0.0,1.2247,1.2467,1.254,1.2621,0.0,0.0,1.2507,1.2507,1.2694,1.2548,0.0,0.0,0.0,0.0,0.0,0.0,0.0,0.0,0.0,0.0,0.0,0.0,0.0,0.0,0.0,0.0,0.0,0.0,0.0,0.0,0.0,0.0,0.0,0.0,0.0,0.0,0.0,0.0,0.0,0.0,0.0,0.0,0.0,0.0,0.0,0.0,0.0,0.0,0.0,0.0,0.0,0.0,0.0,0.0,0.0,0.0,0.0,0.0,0.0,0.0,0.0,0.0,0.0,0.0,0.0,0.4527,0.5648,0.6016,0.5586,0.5486,0.4985,0.3981,0.39,0.3518,0.0,0.0,0.0,0.0,0.0,0.0,0.0,0.0,0.0,0.0,0.0,0.0,0.0,0.0,0.0,0.0,0.0,0.0,0.0,0.0,0.0,0.0,0.0,0.0,0.0,0.0,0.0,0.0,0.0,0.0,0.0,0.0,0.0,0.0,0.0,0.0,0.0,0.0,0.0,0.0,0.0,1.2539,1.2345,1.2881,1.3303,0.0,0.0,1.3043,1.3035,1.3734,1.3717,1.2036,0.0,0.0,0.0,0.0,0.0,0.0,0.0,0.0,0.0,0.0,0.0,0.0,0.0,0.0,0.0,0.0,0.0,0.0,0.0,0.0,0.0,0.0,0.0,0.0,0.0,0.0,0.0,0.0,0.0,0.0,0.0,0.0,0.0,0.0,0.0,0.0,0.0,0.0,0.0,0.0,0.0,0.0,0.0,0.0,0.0,0.0,0.0,0.0,0.0,0.0,0.0,0.0,0.0,0.4836,0.5492,0.6415,0.6967,0.7068,0.6431,0.5737,0.4985,0.4305,0.3864,0.0,0.0,0.0,0.0,0.0,0.0,0.0,0.0,0.0,0.0,0.0,0.0,0.0,0.0,0.0,0.0,0.0,0.0,0.0,0.0,0.0,0.0,0.0,0.0,0.0,0.0,0.0,0.0,0.7911,0.8104,0.8208,0.0,0.0,0.0,0.0,0.0,0.0,0.0,0.0,0.0,0.0,1.2726,1.2921,1.3197,0.0,0.0,1.3384,1.3262,1.3262,1.3449,1.3262,1.2264,1.1784,0.0,0.0,0.0,0.0,0.0,0.0,0.0,0.0,0.0,0.0,0.0,0.0,0.0,0.0,0.0,0.0,0.0,0.0,0.0,0.0,0.0,0.0,0.0,0.0,0.0,0.0,0.0,0.0,0.0,0.0,0.0,0.0,0.0,0.0,0.0,0.0,0.0,0.0,0.0,0.0,0.0,0.0,0.0,0.0,0.0,0.0,0.0,0.0,0.0,0.0,0.0,0.0,0.5335,0.6113,0.7283,0.8014,0.8216,0.744,0.6746,0.6082,0.5237,0.4788,0.0,0.0,0.0,0.0,0.0,0.0,0.0,0.0,0.0,0.0,0.0,0.0,0.0,0.0,0.0,0.0,0.0,0.0,0.0,0.0,0.0,0.0,0.0,0.0,0.0,0.0,0.0,0.0,0.8168,0.8306,0.8304,0.0,0.0,0.0,0.0,0.0,0.0,0.0,0.0,0.0,0.0,1.2759,1.3151,1.3214,1.3319,1.3324,1.3206,1.3084,1.3197,1.3141,1.2897,1.232,0.0,0.0,0.0,0.0,0.0,0.0,0.0,0.0,0.0,0.0,0.0,0.0,0.0,0.0,0.0,0.0,0.0,0.0,0.0,0.0,0.0,0.0,0.0,0.0,0.0,0.0,0.0,0.0,0.0,0.0,0.2371,0.0,0.0,0.0,0.0,0.0,0.0,0.0,0.0,0.0,0.0,0.0,0.0,0.0,0.0,0.0,0.0,0.0,0.0,0.0,0.0,0.0,0.0,0.6057,0.6124,0.8332,0.9262,0.8817,0.8627,0.8091,0.7223,0.7009,0.6486,0.5501,0.0,0.0,0.0,0.0,0.0,0.0,0.0,0.0,0.0,0.0,0.0,0.0,0.0,0.0,0.0,0.0,0.0,0.0,0.0,0.0,0.0,0.0,0.0,0.0,0.0,0.0,0.7841,0.8196,0.8463,0.0,0.0,0.0,0.0,0.0,0.0,0.0,0.0,0.0,0.0,1.2272,1.2767,1.2686,1.2881,1.3068,1.2905,1.2588,1.2475,1.2824,1.2986,1.2856,0.0,0.0,0.0,0.0,0.0,0.0,0.0,0.0,0.0,0.0,0.0,0.0,0.0,0.0,0.0,0.0,0.0,0.0,0.0,0.0,0.0,0.0,0.0,0.0,0.0,0.0,0.0,0.3591,0.36,0.0,0.0,0.0,0.0,0.0,0.0,0.0,0.0,0.0,0.0,0.0,0.6035,0.6282,0.0,0.0,0.0,0.0,0.0,0.0,0.0,0.0,0.0,0.0,0.0,0.0,0.6286,0.7111,0.8674,0.9397,0.9203,0.8916,0.8525,0.814,0.7488,0.6766,0.5984,0.0,0.0,0.0,0.0,0.0,0.0,0.0,0.0,0.0,0.0,0.0,0.0,0.0,0.0,0.0,0.0,0.0,0.0,0.0,0.0,0.0,0.0,0.0,0.0,0.0,0.8513,0.0,0.0,0.0,0.0,0.0,0.0,0.0,0.0,0.0,0.0,0.0,1.129,1.1776,1.232,1.2678,1.2735,1.3051,1.3254,0.0,0.0,0.0,0.0,0.0,0.0,0.0,0.0,0.0,0.0,0.0,0.0,0.0,0.0,1.4203,1.326,1.3628,1.412,1.3969,0.0,0.0,0.0,0.0,0.0,0.0,0.0,0.0,0.0,0.0,0.0,0.0,0.0,0.0,0.478,0.0,0.4757,0.0,0.0,0.0,0.0,0.0,0.0,0.0,0.0,0.6672,0.7303,0.731,0.7543,0.7583,0.0,0.7389,0.6882,0.0,0.0,0.0,0.0,0.0,0.0,0.0,0.0,0.6687,0.751,0.8776,0.9445,0.9453,0.9153,0.8965,0.8919,0.8181,0.7494,0.6972,0.7029,0.669,0.0,0.0,0.0,0.0,0.0,0.0,0.0,0.0,0.0,0.0,0.0,0.0,0.0,0.0,0.0,0.0,0.0,0.0,0.0,0.0,0.0,0.0,0.0,0.8823,0.0,0.0,0.0,0.0,0.0,0.0,0.0,0.0,0.0,1.0278,1.1045,1.1728,1.1963,1.2442,1.2702,1.2572,0.0,0.0,0.0,0.0,0.0,0.0,0.0,1.2637,1.2742,1.2613,1.2774,1.377,1.4476,1.501,1.5419,0.0,0.0,1.4573,1.5064,1.5676,1.5491,1.6017,1.6733,1.7276,1.7589,1.7997,0.0,0.0,0.0,0.0,0.0,0.0,0.0,0.0,0.6163,0.599,0.0,0.6014,0.0,0.0,0.0,0.0,0.0,0.6686,0.0,0.0,0.9001,0.96,0.9106,0.9307,0.9299,0.9145,0.9299,0.9015,0.8236,0.6681,0.0,0.0,0.0,0.0,0.0,0.0,0.7312,0.7443,0.8838,0.9575,0.9608,0.9453,0.9445,0.9567,0.9072,0.8676,0.8414,0.7664,0.7143,0.7009,0.6107,0.0,0.0,0.0,0.0,0.0,0.0,0.0,0.0,0.0,0.0,0.0,0.0,0.0,0.0,0.0,0.0,0.0,0.0,0.0,0.0,0.8768,0.0,0.0,0.0,0.0,0.0,0.0,0.0,0.0,0.0,0.0,1.129,1.1461,1.1638,1.1987,0.0,0.0,0.0,0.0,1.2897,1.2426,1.2483,1.267,1.2782,1.2986,1.3027,1.2897,0.0,0.0,1.3722,1.47,1.5553,1.5534,1.6986,1.7892,1.6459,1.6681,1.7066,1.685,1.7811,1.8659,1.8848,1.9726,2.0539,0.756,0.0,0.0,0.0,0.0,0.5915,0.6459,0.731,0.7303,0.7263,0.719,0.727,0.0,0.0,0.0,0.0,0.0,0.0,0.7507,0.7731,0.894,0.9608,0.9665,0.9894,0.9959,0.9851,0.982,0.9624,0.9421,0.8575,0.7497,0.6215,0.0,0.0,0.0,0.0,0.778,0.8785,0.9356,0.9567,0.9486,0.951,0.9575,0.9624,0.9476,0.9327,0.9278,0.9145,0.897,0.8683,0.7991,0.0,0.0,0.0,0.0,0.0,0.0,0.0,0.0,0.0,0.0,0.0,0.0,0.0,0.0,0.0,0.0,0.0,0.0,0.0,0.9007,0.9005,0.8955,0.0,0.0,0.0,0.0,0.0,0.0,0.0,0.0,0.0,1.2378,1.2595,1.2733,0.0,0.0,1.2125,1.2044,1.2426,1.2751,1.2848,1.3019,0.0,0.0,1.3133,1.3027,1.3283,1.4243,1.4952,1.5238,1.5659,1.6083,1.6362,1.6827,1.7303,1.7611,1.8384,1.8934,1.8789,1.9264,1.9939,2.0747,2.1028,2.1283,0.9028,0.8393,0.7521,0.728,0.7475,0.7428,0.7933,0.8754,0.8579,0.8527,0.8527,0.8527,0.7941,0.6959,0.6997,0.0,0.0,0.0,0.8273,0.8527,0.9163,0.9535,0.9731,0.9837,0.9894,0.9886,0.978,0.9713,0.9778,0.9388,0.8665,0.7525,0.0,0.0,0.7517,0.7849,0.8413,0.9242,0.9502,0.9575,0.947,0.9567,0.9624,0.9624,0.9624,0.9657,0.973,0.9827,0.9851,0.9786,0.9183,0.868,0.0,0.0,0.0,0.0,0.0,0.0,0.0,0.0,0.0,0.0,0.0,0.787,0.8,0.0,0.0,0.0,0.9133,0.9335,0.9335,0.9286,0.0,0.0,0.0,0.0,0.0,0.0,0.0,1.0651,1.1842,1.291,1.351,1.359,1.3545,1.3444,1.2999,1.2584,1.2543,0.0,1.3124,1.3197,1.3417,1.362,1.3725,1.3474,1.3376,1.3693,1.4277,1.4885,1.5252,1.5576,1.5967,1.6333,1.7086,1.7822,1.8309,1.9409,2.0274,2.0017,2.0376,2.1,2.1691,2.1829,2.2104,1.0065,1.0111,0.9275,0.921,0.9575,0.9462,0.9722,1.0139,0.977,0.9624,0.9624,0.9624,0.9163,0.8375,0.8419,0.0,0.7994,0.8957,0.9462,0.9624,0.9567,0.9518,0.9404,0.9396,0.9388,0.9404,0.9404,0.9445,0.9616,0.9445,0.9314,0.9088,0.8771,0.8519,0.8373,0.8828,0.9088,0.912,0.9445,0.9567,0.9624,0.9624,0.9624,0.9624,0.9624,0.9705,0.9851,0.9876,1.0046,1.0318,0.9941,0.9738,0.9843,0.0,0.0,0.0,0.0,0.0,0.0,0.0,0.0,0.0,0.0,0.0,0.0,0.0,0.0,0.0,0.9382,0.0,0.9492,0.9492,0.0,0.0,0.0,0.9406,1.0013,1.0448,1.1069,1.2122,0.0,0.0,1.4437,0.0,1.4205,1.4267,1.401,1.3688,1.3434,1.359,1.3725,1.3392,1.3644,1.3847,1.3807,1.3807,1.3823,1.3872,1.3904,1.4041,1.4316,1.4775,1.536,1.5693,1.7418,1.8867,1.8795,1.9956,2.0919,2.091,2.1358,2.1772,2.1979,2.2379,2.2791,1.0201,1.0339,0.9989,0.9835,0.9819,0.9828,0.9754,0.9746,0.9615,0.9624,0.9624,0.9624,0.9486,0.9276,0.9276,0.9276,0.9202,0.9445,0.9583,0.9567,0.9486,0.9445,0.9396,0.9265,0.9226,0.9396,0.9404,0.9453,0.9558,0.9494,0.9314,0.9096,0.9015,0.8877,0.8706,0.882,0.9023,0.9339,0.942,0.9486,0.9624,0.9624,0.9624,0.9624,0.9624,0.9599,0.9639,0.9819,0.9989,1.0209,1.0103,0.9989,0.9884,0.9129,0.0,0.0,0.0,0.0,0.0,0.0,0.0,0.0,0.0,0.838,0.794,0.0,0.9019,0.0,0.9431,0.9638,0.9347,0.9432,0.0,0.0,0.9557,0.9794,1.0054,1.0793,1.1432,1.1717,1.3098,1.3978,1.3923,1.4633,1.5082,1.485,1.3823,1.3045,1.3161,1.3233,1.3311,1.3376,1.3457,1.349,1.3522,1.362,1.375,1.388,1.3896,1.3992,1.439,1.4415,1.4762,1.5563,1.6091,1.7213,1.9106,1.9818,2.0646,2.1928,2.2104,2.1966,2.2516,2.2791,2.2859,1.0314,1.0526,1.0326,1.0155,1.0049,0.9916,0.9876,0.9851,0.9697,0.9673,0.9738,0.9665,0.9624,0.9624,0.9624,0.9624,0.9624,0.9624,0.9583,0.9502,0.9445,0.9322,0.912,0.9104,0.9104,0.912,0.9322,0.9453,0.9502,0.9486,0.9429,0.9332,0.9332,0.9283,0.913,0.9023,0.9039,0.9234,0.9363,0.9445,0.9616,0.9624,0.9502,0.9397,0.9462,0.9429,0.9227,0.951,0.9747,0.9853,0.9884,0.9908,0.9876,0.921,0.8771,0.0,0.0,0.0,0.0,0.0,0.0,0.0,0.0,0.0,0.0,0.0,0.9195,0.9037,0.9483,0.9688,0.9421,0.9482,0.9639,0.9795,1.0004,1.0369,1.0949,1.1463,1.1925,1.2385,1.3217,1.384,1.3938,1.4329,1.4651,1.4544,1.3744,1.3262,1.3632,1.3661,1.3587,1.3604,1.3604,1.3547,1.3401,1.3522,1.3606,1.3766,1.379,1.3877,1.4164,1.4036,1.4163,1.5126,1.5952,1.7068,1.8879,2.0129,2.1171,2.2159,2.2332,2.2251,2.2591,2.2659,2.2659,1.0387,1.0655,1.0314,1.0212,1.0204,1.0016,1.0016,1.0071,0.9762,0.9713,0.9843,0.9665,0.9542,0.9542,0.9567,0.9567,0.9592,0.9592,0.951,0.9404,0.9355,0.9129,0.8861,0.8991,0.8999,0.8901,0.921,0.9412,0.9437,0.9551,0.9567,0.9592,0.9567,0.9567,0.9534,0.9307,0.9145,0.9104,0.9283,0.9453,0.9583,0.9567,0.9365,0.912,0.9273,0.92,0.8877,0.9153,0.938,0.9404,0.951,0.9697,0.9892,0.925,0.892,0.0,0.8831,0.0,0.0,0.0,0.0,0.0,0.0,0.0,0.0,0.936,0.9487,0.9352,0.9651,0.9838,0.9746,0.9765,1.0048,1.0554,1.055,1.0937,1.1985,1.2128,1.2401,1.3153,1.3384,1.3601,1.3813,1.3721,1.3739,1.3711,1.3628,1.3657,1.4215,1.4118,1.392,1.3823,1.3774,1.3555,1.3384,1.3457,1.3563,1.3595,1.3542,1.3677,1.3831,1.3571,1.3667,1.457,1.6031,1.7513,1.8451,2.0377,2.1806,2.2324,2.2418,2.2444,2.2512,2.2472,2.2432,1.0509,1.0655,1.0306,1.0212,1.0196,1.0016,0.9819,0.9721,0.9657,0.9599,0.9665,0.9486,0.9405,0.9469,0.9559,0.9551,0.9453,0.9453,0.9437,0.9388,0.9056,0.8966,0.9031,0.8926,0.9007,0.9298,0.9371,0.9477,0.9575,0.9558,0.9551,0.9461,0.9551,0.9551,0.9421,0.0,0.0,0.0,0.9413,0.9518,0.9453,0.9267,0.9169,0.9096,0.8982,0.0,0.9039,0.9112,0.921,0.9396,0.9437,0.0,0.0,0.0,0.0,0.0,0.0,0.0,0.0,0.0,0.0,0.0,0.9294,0.9265,0.8991,0.9293,0.968,1.0028,1.0237,1.0458,1.0748,1.088,1.1021,1.115,1.1292,1.1554,1.2048,1.2172,1.2339,1.2503,1.3161,1.3327,1.2613,1.3222,1.3593,1.3138,1.3255,1.3502,1.3595,1.3584,1.3526,1.3279,1.3189,1.31,1.3133,1.3181,1.3287,1.3376,1.3425,1.349,1.3628,1.3392,1.3485,1.4327,1.5162,1.6415,1.8192,1.9657,2.0998,2.2136,2.2592,2.2779,2.2766,2.2579,2.2485,1.0534,0.0,1.0209,1.0131,0.0,0.9876,0.9657,0.9494,0.9494,0.9494,0.9478,0.9307,0.9371,0.9486,0.9494,0.9494,0.9486,0.9445,0.9355,0.9265,0.9039,0.8958,0.8966,0.9047,0.9129,0.9234,0.9405,0.9486,0.9494,0.9583,0.9624,0.9665,0.9705,0.9803,0.9892,1.0063,0.9933,0.9494,0.9583,0.9624,0.9665,0.9535,0.9405,0.9282,0.0,0.0,0.0,0.0,0.0,0.0,0.0,0.0,0.0,0.0,0.0,0.9768,0.9497,0.9254,0.9104,0.9269,0.9402,0.9469,0.956,0.9582,0.9377,0.9707,1.0084,1.0397,1.0627,1.0897,1.1135,1.1247,1.1393,1.166,1.1808,1.2006,1.236,1.2389,1.2305,1.2312,1.2582,1.2504,1.1962,1.2574,1.2898,1.2637,1.2978,1.3173,1.3035,1.3206,1.3303,1.3124,1.3027,1.2962,1.297,1.3051,1.3116,1.3214,1.323,1.3311,1.3482,1.3206,1.3353,1.4522,1.5281,1.6322,1.8293,1.9548,2.0558,2.1714,2.2231,2.2485,2.2592,2.2405,2.2245,1.0534,1.0639,1.0144,1.0073,1.0188,0.9811,0.9551,0.9404,0.0,0.0,0.0,0.9218,0.9307,0.9567,0.9469,0.9437,0.9567,0.9388,0.9298,0.9145,0.9058,0.8985,0.8934,0.9218,0.9299,0.921,0.9486,0.9551,0.9461,0.9559,0.9713,0.9876,0.9967,1.0119,1.0415,1.0623,1.0469,1.0038,0.9827,0.977,0.9884,0.986,0.9697,0.9461,0.9706,0.96,0.921,0.9445,0.9462,0.9218,0.947,0.9688,0.9906,0.9742,0.9721,0.9915,0.9808,0.9635,0.9553,0.9701,0.9766,0.9802,0.9822,0.9774,0.9821,1.0098,1.0418,1.0616,1.0984,1.1268,1.1474,1.1543,1.1747,1.2144,1.2159,1.2279,1.261,1.2444,1.2173,1.2107,1.1916,1.1718,1.1585,1.2056,1.2305,1.2328,1.2704,1.2938,1.2767,1.2929,1.3124,1.2994,1.297,1.2986,1.2905,1.2946,1.3043,1.3043,1.3051,1.3124,1.3254,1.321,1.3601,1.4678,1.5573,1.6817,1.8507,1.9641,2.0464,2.1394,2.183,2.2111,2.2258,2.2111,2.1991,1.0534,1.0655,1.0335,1.0188,1.0196,0.9941,0.9665,0.9396,0.9202,0.9307,0.9575,0.9397,0.9396,0.9437,0.9412,0.942,0.9429,0.921,0.9249,0.0,0.8918,0.8965,0.9331,0.914,0.9235,0.9502,0.96,0.9567,0.9592,0.9616,0.9713,0.9892,1.0098,1.0298,1.0631,1.068,1.0655,1.0574,1.031,1.0073,0.9884,0.9738,0.964,0.9592,0.9494,0.9478,0.9551,0.9462,0.9445,0.9543,0.955,0.97,0.989,0.9853,0.9921,0.9997,0.9853,0.9745,0.9589,0.9623,0.9705,0.9802,0.9822,0.9802,0.9828,1.0098,1.0436,1.0777,1.1332,1.1838,1.2131,1.2379,1.2546,1.2652,1.2397,1.2347,1.2363,1.2041,1.1776,1.1446,1.1652,1.1512,1.1122,1.171,1.2114,1.2048,1.2437,1.2783,1.2605,1.2621,1.2735,1.267,1.2775,1.2848,1.2782,1.2782,1.2889,1.2807,1.2881,1.2986,1.3279,1.3537,1.3883,1.44,1.5682,1.6965,1.809,1.9573,2.0674,2.141,2.1924,2.2151,2.2084,2.1844,2.1871,1.0623,1.0647,1.0359,1.0212,1.0188,0.9812,0.9616,0.9486,0.9363,0.9371,0.9453,0.9291,0.9314,0.9404,0.9404,0.9404,0.9404,0.9132,0.9092,0.9156,0.8798,0.8751,0.8979,0.9065,0.9208,0.9385,0.9533,0.9673,0.9762,0.977,0.9908,1.0176,1.0363,1.0588,1.068,1.0688,1.0688,1.0688,1.0444,1.0266,1.0184,1.0111,1.0011,1.0011,1.0063,1.0119,1.0201,1.0128,1.0079,1.0019,1.0004,1.0044,1.0202,1.0067,1.0035,1.0151,0.9999,0.986,0.9713,0.972,0.9747,0.9815,0.9937,1.0065,1.0058,1.0368,1.0701,1.1157,1.1635,1.2051,1.2418,1.2596,1.2694,1.2686,1.2447,1.2266,1.213,1.1732,1.138,1.1247,1.1181,1.1049,1.0717,1.1247,1.1776,1.1835,1.2238,1.2491,1.2312,1.2369,1.2458,1.2548,1.2637,1.2726,1.275,1.2766,1.2766,1.2766,1.2766,1.2905,1.3135,1.3577,1.4019,1.4254,1.5604,1.6984,1.7826,1.8953,2.012,2.1098,2.1463,2.1595,2.1698,2.175,2.1963,1.0672,1.0607,1.0298,1.0171,1.0057,0.9641,0.9494,0.9558,0.947,0.9445,0.9396,0.925,0.9291,0.9453,0.942,0.938,0.9308,0.9083,0.8995,0.8929,0.8695,0.8597,0.8653,0.8928,0.9088,0.9244,0.9466,0.9704,0.9876,0.9975,1.0111,1.0366,1.0607,1.0688,1.0688,1.0688,1.0688,1.068,1.0558,1.0439,1.0493,1.0493,1.0439,1.0501,1.0615,1.0688,1.0688,1.0641,1.0522,1.0401,1.0241,1.0239,1.0326,1.0122,1.0033,1.0176,1.0074,0.994,0.9802,0.9822,0.9822,0.9943,1.0179,1.0368,1.055,1.0785,1.108,1.1394,1.1757,1.215,1.2369,1.2419,1.2443,1.2387,1.2175,1.1881,1.1755,1.1315,1.108,1.1042,1.085,1.0717,1.0784,1.0982,1.1365,1.1753,1.1985,1.2122,1.1961,1.2071,1.2247,1.241,1.254,1.2686,1.275,1.2766,1.2766,1.2766,1.2766,1.2939,1.3186,1.3736,1.4188,1.4449,1.5573,1.6886,1.7697,1.8611,1.9601,2.0657,2.1006,2.1162,2.1419,2.159,2.1737,1.0607,1.0436,1.0249,0.9973,0.9697,0.9624,0.9608,0.9575,0.9608,0.9502,0.938,0.951,0.9526,0.9575,0.9429,0.9348,0.9223,0.9098,0.8911,0.8788,0.8555,0.8555,0.8738,0.857,0.8733,0.9153,0.9377,0.9606,0.9908,1.0071,1.0241,1.0428,1.0607,1.0688,1.0688,1.0688,1.0688,1.0688,1.0672,1.0672,1.0672,1.0672,1.0672,1.0664,1.068,1.0688,1.0688,1.0476,1.0304,1.0288,1.0021,0.9846,0.9889,0.9816,0.9849,0.9855,0.9802,0.9808,0.9822,0.9822,0.9943,1.0247,1.0308,1.055,1.1088,1.1209,1.1277,1.1384,1.1755,1.2036,1.2023,1.198,1.1885,1.1822,1.1359,1.0998,1.1049,1.0767,1.0633,1.0704,1.0717,1.0717,1.0717,1.0982,1.1249,1.1503,1.1731,1.1783,1.1665,1.1771,1.1894,1.215,1.2403,1.2759,1.2758,1.2766,1.2766,1.2766,1.2766,1.3013,1.3494,1.3799,1.4178,1.4739,1.5932,1.688,1.7686,1.8638,1.965,2.0426,2.0876,2.107,2.1115,2.1243,2.1336,1.0655,1.0574,1.0396,1.0111,0.9786,0.9673,0.9624,0.9624,0.9624,0.9485,0.929,0.9353,0.9372,0.9276,0.9259,0.9209,0.9032,0.8769,0.861,0.852,0.8189,0.8098,0.8195,0.83,0.8398,0.8623,0.9052,0.9489,0.988,1.0286,1.0517,1.0582,1.0664,1.0688,1.0688,1.0688,1.0688,1.0688,1.0688,1.0688,1.0688,1.0688,1.0688,1.068,1.0599,1.059,1.0672,1.0319,1.0202,1.0241,0.9816,0.963,0.9766,0.9664,0.9628,0.9788,0.9822,0.9822,0.9822,0.9822,0.9943,1.0247,1.0482,1.0793,1.1209,1.1458,1.1587,1.1595,1.178,1.1853,1.1703,1.1658,1.158,1.1353,1.1116,1.0906,1.0877,1.0716,1.0656,1.0711,1.0717,1.0717,1.0784,1.0982,1.1141,1.1199,1.1322,1.1454,1.1379,1.1531,1.1709,1.1999,1.2402,1.2637,1.2686,1.2775,1.2758,1.2766,1.2766,1.3013,1.3294,1.3756,1.4143,1.4512,1.5803,1.6827,1.7445,1.8469,1.9475,2.0234,2.0847,2.1052,2.1072,2.1256,2.1363,1.0664,1.059,1.0379,1.0103,0.9811,0.9631,0.9525,0.9484,0.9484,0.9304,0.9026,0.9065,0.9016,0.8958,0.9055,0.9011,0.8822,0.8526,0.8308,0.821,0.791,0.7794,0.776,0.7994,0.8111,0.8265,0.8772,0.9361,0.989,1.0333,1.0633,1.0688,1.0633,1.0641,1.0688,1.0688,1.0633,1.0578,1.0578,1.0562,1.0514,1.0506,1.056,1.0607,1.0447,1.0439,1.0498,1.0116,0.9908,1.0029,0.9548,0.9384,0.958,0.9476,0.9517,0.9781,0.9822,0.9822,0.9822,0.9822,0.9943,1.0308,1.0604,1.0974,1.1277,1.1587,1.1708,1.1647,1.1647,1.159,1.1494,1.1279,1.1095,1.0863,1.0755,1.0665,1.0615,1.0616,1.0616,1.0704,1.0717,1.0717,1.0717,1.0909,1.0944,1.0735,1.0975,1.1173,1.1195,1.1317,1.1579,1.191,1.2223,1.2434,1.2548,1.2718,1.275,1.2766,1.2766,1.2882,1.2914,1.3478,1.3857,1.42,1.5674,1.6644,1.6986,1.7978,1.9313,2.0091,2.0695,2.0996,2.1109,2.1309,2.1349,1.059,1.0412,1.0063,0.9835,0.9599,0.9583,0.9484,0.9236,0.9236,0.9003,0.871,0.8765,0.8735,0.8642,0.8758,0.8676,0.8464,0.8421,0.821,0.789,0.7821,0.774,0.7624,0.7746,0.7966,0.8216,0.8663,0.9345,1.0194,1.0296,1.0421,1.0688,1.0421,1.0414,1.0641,1.0688,1.0586,1.0366,1.0351,1.0225,1.0084,1.0007,1.0168,1.0321,1.0375,1.0251,1.0061,0.9731,0.9529,0.9478,0.9161,0.9008,0.9214,0.9364,0.9523,0.9781,0.9822,0.9822,0.9822,0.9822,0.9943,1.0308,1.0604,1.0967,1.1337,1.1647,1.1647,1.1337,1.1337,1.1285,1.1179,1.0769,1.0458,1.0336,1.0107,1.0074,1.032,1.0374,1.0439,1.0649,1.0717,1.0717,1.0717,1.0717,1.0647,1.05,1.0665,1.0859,1.0882,1.1103,1.1429,1.172,1.1987,1.2182,1.2491,1.2678,1.2783,1.2766,1.2824,1.2914,1.3116,1.3242,1.3401,1.3834,1.4926,1.5843,1.6378,1.7467,1.8875,1.9838,2.0362,2.0666,2.1012,2.1086,2.1256,1.059,1.0358,1.0168,0.9957,0.9786,0.9482,0.9286,0.9187,0.9031,0.8746,0.8512,0.8506,0.8449,0.821,0.8259,0.828,0.8258,0.8195,0.8006,0.7828,0.7814,0.7787,0.7746,0.7787,0.7868,0.8103,0.847,0.9115,0.9896,0.9981,1.0147,1.0366,1.0147,1.0147,1.0421,1.0421,1.0421,1.0296,1.0147,1.0,0.977,0.9678,0.9579,0.9576,0.9932,1.008,1.0037,0.9572,0.9372,0.9423,0.9044,0.9001,0.9214,0.9388,0.9612,0.9795,0.9822,0.9822,0.9822,0.9822,1.0065,1.0543,1.0725,1.1035,1.1526,1.1708,1.1647,1.1337,1.1088,1.0914,1.0664,1.0429,1.024,1.0011,0.9971,1.0039,1.0222,1.0283,1.0392,1.0643,1.0717,1.0717,1.0717,1.0717,1.0602,1.0344,1.0404,1.0573,1.0767,1.0914,1.1156,1.1704,1.202,1.2247,1.2345,1.2548,1.2686,1.2726,1.2816,1.28,1.2888,1.2878,1.2936,1.4005,1.4885,1.5998,1.6925,1.79,1.9136,1.9584,2.0094,2.0425,2.0901,2.1056,2.1369,1.059,1.0366,1.0189,0.9951,0.9716,0.9299,0.9031,0.8931,0.8726,0.8528,0.8287,0.8287,0.8187,0.8038,0.7988,0.8006,0.8091,0.8019,0.7907,0.7821,0.7814,0.7787,0.7767,0.7841,0.7936,0.8079,0.8501,0.9065,0.9622,0.9651,0.9816,1.0091,0.9816,0.9871,1.0202,1.0202,1.0147,1.0116,0.9869,0.9601,0.9374,0.9227,0.9116,0.9077,0.9349,0.9563,0.9633,0.9331,0.9215,0.9216,0.8995,0.9022,0.9282,0.9422,0.9625,0.9795,0.9822,0.9822,0.9822,0.9822,1.0065,1.055,1.0725,1.1035,1.1466,1.1595,1.1405,1.1035,1.0785,1.0482,1.0247,1.0126,1.0058,0.9829,0.9856,0.9977,1.0181,1.0202,1.0344,1.0568,1.0636,1.0663,1.0704,1.067,1.0534,1.031,1.0243,1.0343,1.0677,1.0853,1.1065,1.1736,1.2044,1.2239,1.2385,1.2548,1.2678,1.2783,1.2767,1.2686,1.2621,1.2556,1.2981,1.4098,1.5297,1.653,1.7588,1.8524,1.906,1.9456,1.9788,2.0106,2.0567,2.1072,2.1411,1.059,1.0366,0.9978,0.9693,0.947,0.8999,0.8627,0.8485,0.8379,0.8287,0.8038,0.7988,0.8038,0.7988,0.7988,0.7957,0.7882,0.7977,0.7907,0.7821,0.7828,0.7773,0.7699,0.7929,0.8072,0.8126,0.8822,0.9219,0.9423,0.943,0.9541,0.9706,0.9548,0.9651,1.0257,0.9911,0.9801,0.9702,0.9453,0.9094,0.892,0.8756,0.87,0.8763,0.879,0.8852,0.8905,0.892,0.8955,0.8948,0.894,0.9076,0.9313,0.9395,0.9517,0.9768,0.9822,0.9822,0.9822,0.9822,0.9943,1.0368,1.0611,1.0793,1.0974,1.1156,1.1027,1.055,1.0368,1.0179,0.9943,0.9883,0.9822,0.9822,0.9842,0.9849,0.9963,1.0004,1.0168,1.0432,1.0521,1.0568,1.0643,1.0609,1.046,1.031,1.0161,1.0205,1.0647,1.0732,1.1103,1.1701,1.1953,1.2105,1.2346,1.2645,1.2686,1.2767,1.2702,1.2629,1.2596,1.2604,1.2878,1.3859,1.4952,1.6188,1.7558,1.8419,1.8676,1.8996,1.9352,1.9836,2.0383,2.0886,2.1253,1.059,1.0366,0.9978,0.9693,0.9419,0.88,0.8478,0.8386,0.8187,0.8088,0.7988,0.7988,0.7988,0.7988,0.7988,0.7961,0.7928,0.7968,0.7957,0.7848,0.7867,0.7997,0.8065,0.8153,0.8303,0.8506,0.8798,0.9106,0.9313,0.9161,0.9217,0.943,0.921,0.9265,0.9691,0.9486,0.9374,0.9345,0.9053,0.8747,0.8484,0.8289,0.8235,0.8244,0.8237,0.8383,0.8622,0.8808,0.8909,0.892,0.894,0.9076,0.9313,0.9381,0.9523,0.9774,0.9822,0.9822,0.9822,0.9822,1.0065,1.049,1.0543,1.0732,1.1035,1.1027,1.0785,1.0368,1.0308,1.0186,0.9883,0.9822,0.9822,0.9822,0.9822,0.9822,0.997,1.0145,1.0331,1.0358,1.0521,1.0656,1.0677,1.0582,1.0426,1.0283,1.0134,1.017,1.0594,1.0604,1.0732,1.1355,1.1588,1.1941,1.2259,1.2556,1.2751,1.2783,1.271,1.2661,1.2613,1.2637,1.2967,1.3655,1.4742,1.5832,1.728,1.7958,1.8086,1.8676,1.9148,1.9702,2.0298,2.0724,2.1132,1.0413,1.0124,0.9685,0.9421,0.9189,0.8528,0.8237,0.8237,0.8088,0.7988,0.7988,0.7988,0.7988,0.7988,0.7988,0.7988,0.7988,0.7988,0.7934,0.7916,0.7934,0.8126,0.8275,0.8397,0.8554,0.8771,0.8838,0.8995,0.9161,0.9051,0.8995,0.9154,0.8941,0.9016,0.9275,0.9086,0.8941,0.9012,0.8761,0.8473,0.8292,0.8119,0.8065,0.8113,0.8126,0.8275,0.854,0.8733,0.885,0.8899,0.8988,0.9137,0.9361,0.9435,0.9578,0.9761,0.9822,0.9822,0.9822,0.9822,1.0058,1.0611,1.049,1.055,1.0914,1.0785,1.0482,1.0186,1.0126,0.9997,0.9822,0.9822,0.9822,0.9822,0.9822,0.9829,0.9977,1.0209,1.0344,1.0378,1.0521,1.0616,1.0609,1.0507,1.0358,1.0215,1.0059,1.0074,1.0451,1.0429,1.0769,1.1172,1.1635,1.1964,1.2186,1.2466,1.2742,1.2726,1.2743,1.2718,1.2686,1.2702,1.2872,1.3604,1.4586,1.5171,1.6462,1.6786,1.7044,1.7893,1.8816,1.9407,1.9989,2.0633,2.1117,1.0091,0.9717,0.9186,0.8943,0.8841,0.8311,0.8038,0.7988,0.7988,0.7988,0.7988,0.7988,0.7988,0.7988,0.7988,0.7988,0.7988,0.7988,0.7988,0.7982,0.8015,0.8167,0.8408,0.8587,0.8771,0.8844,0.8933,0.894,0.894,0.894,0.894,0.8927,0.8825,0.8899,0.9061,0.8733,0.8657,0.8793,0.8484,0.8292,0.8235,0.8113,0.8106,0.8248,0.8313,0.8391,0.8642,0.8763,0.8791,0.8933,0.9062,0.9262,0.9374,0.9523,0.9666,0.9808,0.9822,0.9822,0.9822,0.9822,1.0058,1.0611,1.0429,1.0436,1.0701,1.0504,1.02,0.9917,0.9896,0.9822,0.9822,0.9822,0.9822,0.9822,0.9822,0.989,0.9963,1.0017,1.0222,1.0426,1.0493,1.0507,1.0514,1.0385,1.0243,1.0086,0.9944,1.0039,1.0193,1.0404,1.0772,1.1145,1.1462,1.1813,1.2024,1.2506,1.2766,1.275,1.2775,1.2767,1.2759,1.271,1.2751,1.3478,1.4119,1.4707,1.5359,1.5879,1.6592,1.7507,1.8337,1.8959,1.9577,2.0199,2.0818,0.9871,0.9724,0.914,0.8898,0.8803,0.8261,0.7988,0.7988,0.7988,0.7988,0.7988,0.7988,0.7988,0.7988,0.7988,0.7988,0.7995,0.7988,0.7988,0.8008,0.816,0.8357,0.8581,0.8777,0.8893,0.8878,0.894,0.894,0.894,0.894,0.894,0.894,0.8831,0.8866,0.89,0.8661,0.8545,0.8549,0.8279,0.8069,0.8062,0.8035,0.8119,0.8255,0.8333,0.8425,0.8696,0.8818,0.8893,0.8885,0.9076,0.9275,0.9374,0.953,0.968,0.9788,0.9822,0.9822,0.9822,0.9829,1.0004,1.0308,1.0214,1.0114,1.0533,1.0189,0.9951,0.9869,0.9835,0.9822,0.9822,0.9822,0.9822,0.9822,0.9829,0.9897,0.9977,1.0154,1.0297,1.046,1.0588,1.0582,1.048,1.0351,1.0209,1.0059,0.9924,0.9883,1.0126,1.0133,1.0346,1.0743,1.1069,1.1494,1.1918,1.2465,1.2758,1.2766,1.2758,1.275,1.2742,1.2791,1.2791,1.3087,1.335,1.3809,1.4651,1.5368,1.6278,1.7055,1.8056,1.8782,1.9017,1.9468,2.0166,0.9497,0.9309,0.8899,0.8706,0.8622,0.819,0.7988,0.7988,0.7988,0.7988,0.7988,0.7988,0.7988,0.7988,0.7988,0.8029,0.8126,0.8022,0.8022,0.816,0.8289,0.8486,0.8696,0.8866,0.894,0.894,0.894,0.894,0.894,0.894,0.894,0.8865,0.8817,0.879,0.8811,0.8615,0.8538,0.8504,0.8303,0.8228,0.8228,0.8228,0.8309,0.8425,0.8459,0.8574,0.8791,0.8893,0.894,0.8981,0.913,0.9286,0.9388,0.9585,0.9734,0.9815,0.9822,0.9822,0.9836,0.9876,1.004,1.0238,1.0149,1.0239,1.0475,1.0198,0.9923,1.0107,0.9944,0.9876,0.9897,0.9863,0.9829,0.9829,0.9876,0.9916,1.0127,1.0222,1.0371,1.0521,1.0602,1.0568,1.0426,1.0283,1.0127,0.9923,0.9883,0.9896,1.0004,0.989,1.0026,1.0578,1.1043,1.1532,1.2022,1.2513,1.2692,1.27,1.2766,1.2766,1.2766,1.2766,1.2832,1.2832,1.2832,1.303,1.3875,1.4726,1.5564,1.6537,1.7636,1.83,1.837,1.8854,1.9569,0.9133,0.8716,0.8574,0.8431,0.8368,0.814,0.8029,0.8015,0.8002,0.7988,0.7988,0.7988,0.7988,0.7988,0.7988,0.8119,0.8248,0.8106,0.8167,0.8275,0.847,0.8567,0.8757,0.8879,0.8933,0.894,0.894,0.894,0.894,0.894,0.894,0.8865,0.8811,0.8757,0.8757,0.8601,0.852,0.852,0.8465,0.8425,0.8425,0.8431,0.8499,0.8628,0.8703,0.8764,0.8879,0.894,0.8892,0.896,0.9232,0.9354,0.9415,0.9659,0.9802,0.9815,0.9822,0.9822,0.9842,0.9883,1.0101,1.0294,1.0301,1.0404,1.0545,1.0239,1.0011,1.0188,0.9978,0.9903,0.9883,0.9835,0.9815,0.989,0.993,1.0134,1.0256,1.0304,1.0412,1.0663,1.0588,1.0466,1.0304,1.0154,0.9957,0.9917,0.9836,0.9829,0.9903,0.9883,1.0253,1.0895,1.1337,1.1705,1.2133,1.2634,1.2634,1.2634,1.2766,1.2766,1.2766,1.2766,1.2766,1.2766,1.2766,1.284,1.303,1.394,1.4931,1.5564,1.6473,1.7021,1.7499,1.8351,1.9059,0.892,0.8824,0.873,0.8642,0.8574,0.8336,0.8221,0.8208,0.8092,0.8008,0.7988,0.7988,0.7995,0.7988,0.7995,0.8126,0.8241,0.8147,0.818,0.8425,0.8459,0.8648,0.8777,0.8871,0.8933,0.894,0.894,0.894,0.894,0.894,0.894,0.8871,0.8844,0.8831,0.8859,0.8737,0.8662,0.8642,0.8554,0.8513,0.8513,0.8513,0.8581,0.8716,0.8825,0.8893,0.8871,0.894,0.8994,0.9117,0.9279,0.9401,0.9449,0.9666,0.9808,0.9822,0.9829,0.9829,0.9849,0.9909,0.9997,1.0156,1.0285,1.034,1.0397,1.021,1.0017,1.0073,0.993,0.9863,0.9835,0.9903,0.9916,0.995,1.0134,1.0283,1.0405,1.0439,1.0527,1.0649,1.067,1.0568,1.0317,1.0249,1.0086,0.989,0.9829,0.9822,0.9863,0.9856,1.0384,1.1017,1.1276,1.1573,1.2042,1.2503,1.2568,1.2634,1.2766,1.2766,1.2766,1.2766,1.2766,1.2766,1.2766,1.284,1.284,1.3656,1.4772,1.5071,1.5277,1.5876,1.6532,1.7569,1.8654,0.912,0.9363,0.8906,0.8669,0.8587,0.8438,0.8381,0.8333,0.8262,0.8116,0.8029,0.8106,0.8106,0.7995,0.7995,0.8119,0.8248,0.8269,0.8323,0.8479,0.8554,0.8716,0.8886,0.894,0.894,0.894,0.894,0.894,0.894,0.894,0.894,0.894,0.894,0.8871,0.894,0.8852,0.8825,0.8757,0.8743,0.8696,0.8696,0.8696,0.8723,0.8804,0.8899,0.894,0.894,0.9008,0.9076,0.9241,0.9361,0.949,0.9517,0.9693,0.9808,0.9829,0.9897,0.9862,0.9909,1.012,1.0263,1.0256,1.0399,1.046,1.0426,1.029,1.0256,1.0193,1.0071,0.993,0.9869,0.9923,0.9984,1.0031,1.0256,1.0405,1.0473,1.0493,1.0548,1.0643,1.0582,1.0453,1.0324,1.0263,1.0093,0.9863,0.9862,0.9862,0.9802,0.993,1.0461,1.0883,1.1105,1.1438,1.1964,1.2305,1.2437,1.2568,1.2766,1.2766,1.2766,1.2766,1.2766,1.2766,1.2766,1.2766,1.2972,1.3796,1.4152,1.4077,1.4271,1.4803,1.5663,1.6828,1.7934,0.9406,0.9815,0.9176,0.8776,0.856,0.8526,0.8459,0.8377,0.8438,0.833,0.8167,0.8255,0.8241,0.8089,0.8042,0.816,0.8275,0.8404,0.8479,0.8547,0.8635,0.8777,0.8906,0.894,0.894,0.894,0.894,0.894,0.894,0.894,0.894,0.894,0.894,0.894,0.894,0.894,0.892,0.8851,0.8844,0.8838,0.8899,0.8899,0.8851,0.8865,0.8871,0.8967,0.9001,0.9083,0.9228,0.9289,0.949,0.9625,0.97,0.9741,0.9842,0.9795,0.9971,1.0039,1.012,1.0304,1.0466,1.05,1.0622,1.0656,1.0575,1.0432,1.0392,1.0365,1.0199,1.0038,1.0114,1.0154,1.0098,1.0152,1.0405,1.0507,1.0527,1.0527,1.0609,1.0656,1.0602,1.048,1.0324,1.0215,1.0025,0.9897,0.9916,0.995,0.9883,1.0047,1.0538,1.0955,1.1192,1.1417,1.1871,1.2041,1.2239,1.2568,1.27,1.2766,1.2766,1.2766,1.2766,1.2766,1.2766,1.2774,1.2914,1.3409,1.3501,1.312,1.3495,1.427,1.5196,1.6137,1.7382,0.9636,0.912,0.9717,0.9537,0.89,0.873,0.8655,0.8621,0.8533,0.8465,0.8411,0.8431,0.8418,0.837,0.8269,0.8255,0.8368,0.8425,0.8547,0.8635,0.8716,0.8811,0.8913,0.894,0.894,0.894,0.894,0.894,0.894,0.894,0.894,0.894,0.894,0.894,0.894,0.894,0.894,0.894,0.894,0.894,0.894,0.894,0.894,0.894,0.8898,0.9008,0.9096,0.9207,0.9266,0.9517,0.9693,0.9781,0.9917,0.989,0.9849,0.993,0.9997,1.0148,1.0249,1.0392,1.0487,1.0527,1.0636,1.0582,1.0466,1.0412,1.0392,1.0276,1.029,1.0283,1.0405,1.0385,1.0473,1.0561,1.0609,1.067,1.067,1.067,1.067,1.0697,1.0629,1.0548,1.0392,1.0249,1.0114,1.0012,1.0025,0.9984,0.995,1.0176,1.0608,1.0955,1.1308,1.1512,1.1776,1.1843,1.1975,1.2437,1.2642,1.2766,1.2766,1.2766,1.2774,1.2815,1.2798,1.2782,1.3005,1.3186,1.3253,1.3126,1.3494,1.3874,1.4808,1.5908,1.7403,1.0633,1.0907,1.0468,0.9981,0.9526,0.9023,0.8777,0.8716,0.871,0.8628,0.852,0.8531,0.8531,0.8497,0.8388,0.8354,0.8391,0.8445,0.8567,0.8689,0.8791,0.8804,0.8885,0.894,0.894,0.894,0.894,0.8885,0.894,0.894,0.894,0.894,0.894,0.894,0.894,0.894,0.894,0.894,0.894,0.894,0.894,0.894,0.8885,0.8898,0.9015,0.9083,0.9214,0.934,0.949,0.9693,0.9802,0.995,1.0093,1.012,1.0086,1.0168,1.0229,1.0297,1.0399,1.0521,1.0609,1.0616,1.0683,1.0656,1.0541,1.05,1.0419,1.0351,1.0317,1.0446,1.0582,1.0548,1.0575,1.0677,1.0717,1.0717,1.0717,1.0717,1.0717,1.0711,1.0616,1.0527,1.0466,1.0331,1.0215,1.0148,1.01,1.01,1.0038,1.0313,1.069,1.0897,1.122,1.1476,1.171,1.1776,1.2041,1.2371,1.2642,1.2766,1.2766,1.2766,1.2905,1.2978,1.2946,1.2889,1.3003,1.3226,1.3216,1.323,1.3546,1.3972,1.4649,1.5654,1.7157,1.1618,1.25,1.1291,1.0523,1.0091,0.9485,0.8975,0.8798,0.8879,0.8743,0.8594,0.8581,0.8594,0.8533,0.8431,0.8391,0.8513,0.8506,0.8587,0.871,0.8872,0.8878,0.8878,0.8885,0.8905,0.9008,0.9001,0.8912,0.8885,0.894,0.894,0.8954,0.8954,0.8954,0.8892,0.8981,0.8967,0.8885,0.894,0.894,0.8885,0.8967,0.8981,0.8994,0.9123,0.9282,0.9412,0.9517,0.9727,0.9903,1.0066,1.0195,1.0304,1.0351,1.0371,1.0385,1.0453,1.0493,1.0568,1.0622,1.0697,1.0697,1.0711,1.0697,1.0636,1.0541,1.05,1.0527,1.0588,1.0663,1.0785,1.0683,1.069,1.0765,1.0778,1.0717,1.0717,1.0717,1.0717,1.0677,1.0588,1.0534,1.0493,1.0439,1.0324,1.027,1.0222,1.0337,1.0351,1.0432,1.0692,1.0902,1.1162,1.1417,1.1644,1.1784,1.2107,1.2568,1.27,1.2766,1.2766,1.2766,1.2929,1.3027,1.3003,1.2978,1.3124,1.3262,1.3311,1.3441,1.3685,1.4144,1.4965,1.5676,1.6806,1.1782,1.1846,1.2327,1.1673,1.0359,1.0147,0.9588,0.8968,0.8982,0.8871,0.8845,0.8811,0.8845,0.8784,0.8567,0.8554,0.8608,0.8594,0.8676,0.8838,0.8947,0.8974,0.8954,0.894,0.9042,0.911,0.9187,0.9049,0.9015,0.8988,0.896,0.8994,0.9076,0.9076,0.9015,0.9089,0.9055,0.8967,0.8947,0.894,0.896,0.9049,0.9103,0.915,0.9286,0.9462,0.9639,0.9774,0.9937,1.0188,1.0344,1.0432,1.0487,1.0602,1.0656,1.0629,1.0588,1.0555,1.0656,1.0704,1.0717,1.0717,1.0717,1.0649,1.0602,1.0582,1.0595,1.0697,1.0799,1.0914,1.1002,1.0948,1.0982,1.0921,1.0839,1.0758,1.0717,1.0717,1.0717,1.0717,1.0649,1.0602,1.0555,1.05,1.0439,1.0392,1.0385,1.0493,1.0561,1.0602,1.0643,1.0781,1.1059,1.138,1.1777,1.1903,1.2293,1.274,1.2807,1.2798,1.2766,1.279,1.2954,1.3019,1.3027,1.3149,1.3344,1.3457,1.3482,1.3587,1.3758,1.4469,1.5354,1.6018,1.6583,1.3078,1.3305,1.3197,1.2599,1.1728,1.1236,1.0468,0.9761,0.9651,0.9375,0.8975,0.8838,0.8811,0.8777,0.8648,0.8703,0.8798,0.875,0.8852,0.9015,0.9062,0.9103,0.9157,0.9117,0.9144,0.9252,0.9337,0.9266,0.9198,0.9191,0.9191,0.9191,0.9239,0.9266,0.9164,0.9245,0.9245,0.9184,0.911,0.9022,0.9001,0.9069,0.9214,0.9234,0.9462,0.968,0.9829,1.0019,1.0168,1.0378,1.0473,1.0534,1.0602,1.0677,1.0717,1.0711,1.0663,1.0656,1.0704,1.0717,1.0717,1.0717,1.0717,1.069,1.0649,1.0697,1.0758,1.0772,1.0982,1.1097,1.1124,1.1029,1.0941,1.0955,1.086,1.0792,1.0731,1.0717,1.0717,1.0717,1.0731,1.0717,1.0704,1.067,1.0629,1.0561,1.0575,1.067,1.067,1.0629,1.067,1.0704,1.1049,1.1408,1.1829,1.2141,1.2468,1.2861,1.2994,1.2962,1.279,1.2815,1.3019,1.3149,1.323,1.3384,1.3579,1.362,1.3612,1.3693,1.379,1.4336,1.4884,1.5523,1.631,1.4331,1.46,1.3835,1.3305,1.2827,1.211,1.1291,1.0468,1.0147,0.9706,0.9182,0.8879,0.8757,0.8696,0.8676,0.8703,0.8859,0.8824,0.9001,0.9159,0.9262,0.9323,0.9293,0.9259,0.9293,0.9435,0.9442,0.9456,0.949,0.9483,0.9456,0.9395,0.9408,0.9395,0.9388,0.9401,0.9395,0.9259,0.9234,0.9096,0.9049,0.9144,0.9309,0.9415,0.9652,0.9849,1.0012,1.0181,1.0392,1.0521,1.0555,1.0616,1.069,1.0711,1.0717,1.0717,1.0697,1.0704,1.0717,1.0717,1.0717,1.0717,1.0731,1.0731,1.0792,1.0826,1.0914,1.0995,1.1138,1.1206,1.1192,1.1097,1.105,1.0975,1.0853,1.0799,1.0772,1.0799,1.0853,1.0914,1.0934,1.0934,1.0914,1.0873,1.0819,1.0738,1.0772,1.0839,1.0806,1.079,1.0829,1.0937,1.1063,1.1504,1.2067,1.2471,1.2748,1.2982,1.3057,1.3076,1.2978,1.3027,1.3173,1.3295,1.3409,1.3563,1.3725,1.3734,1.3742,1.3798,1.3847,1.3872,1.4252,1.4964,1.5744,1.5202,1.4934,1.4353,1.365,1.2935,1.2491,1.1837,1.1017,1.0257,0.9816,0.9485,0.9133,0.8777,0.873,0.8642,0.8648,0.8743,0.873,0.894,0.915,0.9344,0.9367,0.9401,0.9422,0.9442,0.9571,0.9591,0.9659,0.9741,0.9713,0.9591,0.9435,0.9544,0.949,0.949,0.9537,0.9456,0.9327,0.9289,0.9255,0.9198,0.9306,0.949,0.972,0.9937,1.0154,1.0412,1.046,1.0527,1.067,1.067,1.067,1.0711,1.0717,1.0717,1.0717,1.0717,1.0731,1.0751,1.0731,1.0717,1.0717,1.0744,1.0799,1.0813,1.0867,1.1016,1.1151,1.1287,1.1348,1.1321,1.1246,1.1124,1.105,1.0941,1.0887,1.0887,1.0928,1.0989,1.1097,1.1118,1.1084,1.1084,1.1043,1.1009,1.0934,1.1015,1.1083,1.1144,1.1082,1.1185,1.1231,1.1276,1.1659,1.2381,1.2712,1.2926,1.3102,1.3186,1.3189,1.3108,1.3206,1.3295,1.3449,1.3563,1.3717,1.3839,1.3823,1.3831,1.3872,1.3904,1.3904,1.4047,1.4608,1.5177,1.5309,1.4987,1.4611,1.418,1.365,1.3315,1.2718,1.1837,1.0962,1.0029,0.9265,0.8989,0.8851,0.8838,0.8811,0.8791,0.8859,0.8954,0.9103,0.9239,0.9361,0.9483,0.9544,0.9585,0.9598,0.9707,0.9741,0.9754,0.9802,0.9822,0.9781,0.97,0.97,0.9707,0.97,0.968,0.9585,0.949,0.9415,0.9395,0.9347,0.953,0.9707,0.9808,1.0188,1.0344,1.0487,1.0588,1.0656,1.0704,1.0717,1.0717,1.0717,1.0717,1.0717,1.0724,1.0724,1.0772,1.0819,1.0718,1.0724,1.0744,1.0806,1.0894,1.0921,1.1097,1.1212,1.1335,1.143,1.1491,1.1382,1.126,1.1145,1.1104,1.105,1.0975,1.1016,1.1063,1.1124,1.1219,1.1212,1.1248,1.1261,1.1206,1.1241,1.12,1.1289,1.137,1.1342,1.1354,1.1428,1.1592,1.1651,1.1985,1.2663,1.2938,1.313,1.3247,1.3425,1.3368,1.3319,1.3279,1.3384,1.3547,1.3677,1.3758,1.3831,1.388,1.3904,1.3904,1.3904,1.3904,1.4118,1.4403,1.475,1.5186,1.4869,1.46,1.4342,1.4029,1.3813,1.3152,1.2219,1.14,1.0249,0.894,0.894,0.8851,0.8831,0.8866,0.8852,0.8879,0.8994,0.9184,0.9327,0.9449,0.9598,0.9707,0.9747,0.972,0.9808,0.9822,0.9822,0.9822,0.9822,0.9802,0.9802,0.9822,0.9808,0.9808,0.9815,0.9747,0.9646,0.9598,0.9605,0.9544,0.9693,0.9944,1.0019,1.0337,1.0487,1.0568,1.0656,1.0697,1.0717,1.0717,1.0717,1.0717,1.0717,1.0717,1.0731,1.0772,1.0839,1.082,1.0914,1.0846,1.0907,1.0955,1.1029,1.1124,1.1274,1.1355,1.1463,1.1558,1.1572,1.1436,1.1301,1.1302,1.1199,1.1029,1.09,1.1145,1.1233,1.128,1.1341,1.1335,1.1362,1.1375,1.1452,1.1413,1.1427,1.1482,1.146,1.1368,1.1493,1.1637,1.1777,1.2037,1.2504,1.2988,1.3189,1.3416,1.3663,1.3742,1.3644,1.3587,1.3522,1.3522,1.3693,1.3782,1.3798,1.3831,1.3888,1.3904,1.3904,1.3904,1.3904,1.3904,1.4118,1.4332,1.493,1.46,1.4331,1.4062,1.3748,1.3694,1.3044,1.2064,1.1291,1.0202,0.8995,0.894,0.8817,0.873,0.8791,0.8811,0.8852,0.8947,0.9137,0.9381,0.9517,0.9673,0.9761,0.9802,0.9788,0.9808,0.9822,0.9822,0.9822,0.9822,0.9822,0.9822,0.9822,0.9822,0.9822,0.9822,0.9747,0.9646,0.9646,0.9713,0.9808,0.989,1.0107,1.031,1.0466,1.0582,1.0663,1.0697,1.0717,1.0717,1.0717,1.0717,1.0717,1.0717,1.0724,1.0751,1.086,1.0867,1.09,1.1084,1.1131,1.1104,1.1118,1.1199,1.1321,1.1409,1.1457,1.1552,1.1606,1.1626,1.1511,1.1389,1.1355,1.1314,1.1165,1.1049,1.1301,1.1389,1.143,1.1457,1.1538,1.1599,1.1599,1.163,1.1691,1.165,1.1684,1.1632,1.1489,1.1687,1.1925,1.2082,1.2383,1.2964,1.3386,1.352,1.3703,1.3977,1.4026,1.3904,1.3839,1.3782,1.3815,1.388,1.3863,1.3847,1.3872,1.3904,1.3904,1.3904,1.3904,1.3904,1.3904,1.3904,1.4118,1.5334,1.488,1.4761,1.4342,1.3694,1.3478,1.298,1.211,1.0852,0.9761,0.9051,0.894,0.8865,0.8817,0.8811,0.8899,0.9001,0.9091,0.9239,0.951,0.9591,0.9686,0.9781,0.9822,0.9822,0.9822,0.9822,0.9822,0.9822,0.9822,0.9822,0.9822,0.9822,0.9822,0.9822,0.9829,0.9761,0.9829,0.9862,0.9909,1.0114,1.0209,1.0324,1.05,1.0582,1.0656,1.0717,1.0717,1.0717,1.0717,1.0717,1.0724,1.0731,1.0738,1.0778,1.0839,1.0887,1.0981,1.1206,1.1355,1.1348,1.128,1.1267,1.1335,1.1389,1.1497,1.1565,1.1599,1.1613,1.1653,1.1681,1.1579,1.1552,1.1626,1.1545,1.147,1.1538,1.1538,1.1558,1.1565,1.1613,1.1626,1.1633,1.1756,1.1853,1.1797,1.1761,1.1603,1.1432,1.1925,1.2298,1.2452,1.2734,1.3316,1.3728,1.3873,1.3986,1.4237,1.4221,1.4099,1.4042,1.3985,1.392,1.3896,1.3896,1.3904,1.3904,1.3904,1.3904,1.3904,1.3904,1.3904,1.3904,1.3904,1.3975,1.517,1.4756,1.4578,1.4018,1.3315,1.3207,1.2609,1.1509,1.0147,0.9265,0.894,0.894,0.8933,0.8933,0.8892,0.9015,0.92,0.9214,0.9371,0.9578,0.9612,0.97,0.9781,0.9822,0.9822,0.9822,0.9822,0.9822,0.9822,0.9822,0.9822,0.9822,0.9822,0.9822,0.9822,0.9836,0.989,0.9909,0.9963,1.0127,1.029,1.0419,1.05,1.0588,1.0656,1.0717,1.0717,1.0717,1.0717,1.0717,1.0724,1.0751,1.0705,1.0745,1.088,1.0975,1.1104,1.1226,1.143,1.1525,1.1484,1.1382,1.143,1.1463,1.1477,1.1558,1.1592,1.1613,1.1619,1.1708,1.1782,1.1694,1.1701,1.1769,1.1735,1.1653,1.1606,1.1606,1.1606,1.1613,1.1619,1.1633,1.1667,1.1907,1.2066,1.1952,1.1902,1.1736,1.1596,1.2052,1.2618,1.2773,1.3029,1.3618,1.4083,1.431,1.4424,1.4513,1.4416,1.4278,1.4156,1.4083,1.4002,1.392,1.3912,1.3904,1.3904,1.3904,1.3904,1.3904,1.3904,1.3904,1.3904,1.3904,1.3904,1.4444,1.4173,1.3858,1.3305,1.2599,1.2772,1.1837,1.0194,0.932,0.894,0.894,0.894,0.894,0.8885,0.8947,0.9042,0.9234,0.9255,0.9395,0.9564,0.9652,0.9734,0.9788,0.9822,0.9822,0.9822,0.9822,0.9822,0.9822,0.9822,0.9822,0.9822,0.9822,0.9842,0.9788,0.9883,0.9958,0.9997,1.012,1.0256,1.046,1.0514,1.0588,1.0656,1.0711,1.0717,1.0717,1.0717,1.0717,1.0724,1.0738,1.0759,1.0826,1.088,1.1043,1.1158,1.1301,1.145,1.1552,1.1606,1.1606,1.1538,1.1572,1.1606,1.1606,1.1606,1.1613,1.1619,1.1619,1.1728,1.1803,1.1775,1.1748,1.1762,1.1755,1.1687,1.1633,1.1613,1.1613,1.1619,1.1619,1.1647,1.1814,1.2011,1.2323,1.2122,1.2094,1.2318,1.2197,1.2101,1.262,1.3122,1.3468,1.393,1.4318,1.4562,1.4659,1.4708,1.4578,1.4448,1.4318,1.414,1.401,1.3928,1.3912,1.3904,1.3904,1.3904,1.3904,1.3904,1.3904,1.3904,1.3904,1.3904,1.3904,1.4401,1.393,1.4059,1.3816,1.3251,1.2327,1.1291,1.0147,0.9265,0.894,0.894,0.894,0.8905,0.8947,0.9042,0.9178,0.9306,0.9442,0.9591,0.97,0.9741,0.9781,0.9808,0.9822,0.9822,0.9822,0.9822,0.9822,0.9822,0.9822,0.9822,0.9822,0.9822,0.9808,0.9876,0.9978,1.008,1.0168,1.0209,1.0385,1.0561,1.0629,1.0683,1.0704,1.0717,1.0717,1.0717,1.0717,1.0717,1.0724,1.0826,1.0853,1.0867,1.1043,1.1165,1.1321,1.1457,1.1579,1.1613,1.1619,1.1619,1.1619,1.1619,1.1619,1.1619,1.1619,1.1619,1.1619,1.1653,1.1755,1.1904,1.1925,1.1918,1.1925,1.1891,1.1809,1.1735,1.1626,1.1626,1.1626,1.1626,1.1794,1.1955,1.2349,1.259,1.2344,1.2352,1.2588,1.276,1.2577,1.2848,1.3357,1.3746,1.4204,1.4521,1.4757,1.483,1.4871,1.4732,1.4562,1.4359,1.418,1.4018,1.3928,1.3904,1.3904,1.3904,1.3904,1.3904,1.3904,1.3904,1.3904,1.3904,1.3904,1.3904,1.4157,1.3721,1.375,1.3369,1.2472,1.1126,1.0147,0.9658,0.9217,0.9001,0.8898,0.9013,0.9083,0.9055,0.9178,0.9327,0.9476,0.9544,0.9666,0.9774,0.9822,0.9815,0.9822,0.9822,0.9822,0.9822,0.9822,0.9822,0.9822,0.9822,0.9822,0.9822,0.9822,0.9917,0.9936,0.999,1.0168,1.0283,1.0399,1.0514,1.0622,1.0717,1.0717,1.0717,1.0717,1.0717,1.0717,1.0717,1.0724,1.0744,1.0799,1.0982,1.1056,1.1219,1.1355,1.1491,1.1545,1.1606,1.1619,1.1619,1.1619,1.1619,1.1619,1.1619,1.1619,1.1619,1.1619,1.1619,1.1694,1.1789,1.1965,1.2108,1.2128,1.2149,1.2047,1.1945,1.1816,1.1667,1.164,1.1633,1.1766,1.1935,1.2223,1.2633,1.2875,1.278,1.2773,1.2922,1.3039,1.3011,1.3277,1.3833,1.4139,1.4473,1.47,1.4862,1.4871,1.4895,1.4846,1.4659,1.4424,1.4261,1.4131,1.401,1.3904,1.3904,1.3904,1.3904,1.3904,1.3912,1.392,1.3912,1.3912,1.3904,1.3904,1.3892,1.3407,1.3081,1.22,1.0929,0.9677,0.9085,0.896,0.9159,0.9096,0.9035,0.9232,0.9252,0.9205,0.9391,0.9462,0.9564,0.9632,0.9713,0.9822,0.9822,0.9822,0.9822,0.9822,0.9822,0.9822,0.9822,0.9822,0.9822,0.9822,0.9822,0.9822,0.9856,0.9951,1.0086,1.0141,1.0283,1.0473,1.0527,1.0588,1.067,1.0717,1.0717,1.0717,1.0717,1.0717,1.0717,1.0724,1.0724,1.0785,1.0887,1.1036,1.1253,1.1416,1.1552,1.1592,1.1613,1.1613,1.1619,1.1619,1.1619,1.1619,1.1619,1.1619,1.1619,1.1619,1.1619,1.1681,1.1755,1.1898,1.2067,1.2176,1.2223,1.2189,1.2108,1.1986,1.1837,1.1714,1.1653,1.1674,1.1742,1.193,1.2473,1.282,1.2969,1.3014,1.3214,1.3283,1.3336,1.3323,1.3657,1.4171,1.4326,1.4546,1.4797,1.4911,1.4871,1.4862,1.4846,1.4692,1.4408,1.4302,1.4253,1.4075,1.3904,1.3904,1.3904,1.3904,1.392,1.3969,1.3969,1.3937,1.3937,1.3969,1.392,1.3489,1.3125,1.2453,1.1432,1.0315,0.9892,0.937,0.896,0.9218,0.9225,0.9137,0.9241,0.933,0.9354,0.9483,0.9598,0.9625,0.9707,0.9721,0.9815,0.9822,0.9822,0.9822,0.9822,0.9822,0.9822,0.9822,0.9822,0.9822,0.9822,0.9822,0.9836,0.9903,0.9984,1.0202,1.0276,1.0446,1.0622,1.0643,1.0656,1.0704,1.0717,1.0717,1.0724,1.0731,1.0744,1.0744,1.0744,1.0806,1.0887,1.1036,1.124,1.1497,1.1579,1.1613,1.1619,1.1619,1.1619,1.1619,1.1619,1.1619,1.1619,1.1619,1.1619,1.1619,1.1619,1.166,1.1742,1.1864,1.2026,1.2149,1.2237,1.2298,1.2237,1.2169,1.2013,1.1864,1.1775,1.1694,1.1748,1.1809,1.2187,1.2674,1.2903,1.3054,1.3296,1.3498,1.3687,1.3764,1.384,1.3929,1.4309,1.4334,1.4562,1.483,1.5037,1.4988,1.4814,1.4757,1.4578,1.4383,1.4221,1.4091,1.4002,1.3904,1.3904,1.3904,1.3912,1.3937,1.4018,1.4075,1.4066,1.414,1.4188,1.405,1.3273,1.248,1.1281,1.0396,0.9754,0.9451,0.9083,0.8832,0.9055,0.9178,0.9262,0.9398,0.9462,0.9517,0.9639,0.9693,0.9707,0.9714,0.9808,0.9815,0.9822,0.9822,0.9822,0.9822,0.9822,0.9822,0.9822,0.9822,0.9822,0.9822,0.9829,0.9856,0.9916,1.0071,1.0283,1.0426,1.0582,1.0704,1.0731,1.0738,1.0738,1.0731,1.0772,1.0785,1.0759,1.0839,1.0907,1.0914,1.0962,1.1063,1.1185,1.1355,1.1538,1.1606,1.1619,1.1619,1.1619,1.1619,1.1619,1.1626,1.1626,1.1619,1.1626,1.1633,1.1728,1.1735,1.1742,1.1757,1.2033,1.2196,1.225,1.2325,1.2386,1.2372,1.2264,1.2128,1.1979,1.185,1.185,1.1918,1.2074,1.2339,1.2726,1.2963,1.3177,1.3695,1.3896,1.3976,1.4136,1.4186,1.4366,1.4481,1.4529,1.4635,1.4879,1.5045,1.5037,1.4838,1.4724,1.4578,1.4424,1.4123,1.3912,1.3977,1.3985,1.3904,1.3904,1.3977,1.4026,1.4107,1.4172,1.4221,1.431,1.4391,1.4286,1.3039,1.1707,1.0088,0.932,0.9146,0.8734,0.8479,0.8526,0.8825,0.9035,0.9228,0.9571,0.9693,0.972,0.9754,0.9795,0.9815,0.9815,0.9822,0.9822,0.9822,0.9822,0.9822,0.9822,0.9822,0.9822,0.9822,0.9822,0.9822,0.9822,0.9836,0.9869,1.0005,1.0168,1.0324,1.0487,1.067,1.0799,1.0839,1.0806,1.0778,1.0758,1.0833,1.084,1.0907,1.1043,1.1124,1.1227,1.1227,1.1253,1.1335,1.147,1.1558,1.1619,1.1619,1.1619,1.1619,1.1619,1.1626,1.1653,1.164,1.1633,1.1647,1.1714,1.1823,1.1877,1.181,1.1993,1.2189,1.2298,1.2352,1.2427,1.2488,1.2474,1.2352,1.223,1.2081,1.1952,1.1999,1.2067,1.2319,1.2498,1.2741,1.2986,1.341,1.3854,1.4156,1.4311,1.4412,1.4412,1.4503,1.4651,1.4724,1.4846,1.5037,1.5045,1.5045,1.5004,1.4814,1.4659,1.4489,1.427,1.414,1.4156,1.4131,1.4066,1.4075,1.4148,1.4188,1.4253,1.427,1.4351,1.4521,1.4578,1.4529,1.2603,1.0935,0.9747,0.8892,0.8362,0.8429,0.8418,0.8411,0.8927,0.9069,0.913,0.9435,0.968,0.9781,0.9802,0.9822,0.9822,0.9822,0.9822,0.9822,0.9822,0.9822,0.9822,0.9822,0.9822,0.9822,0.9822,0.9822,0.9822,0.9829,0.9829,0.993,1.0161,1.0365,1.0616,1.0765,1.0894,1.0989,1.1029,1.1023,1.1016,1.0982,1.0853,1.0982,1.1063,1.1111,1.1227,1.1227,1.124,1.1348,1.1477,1.1565,1.1599,1.1619,1.1626,1.1653,1.1653,1.1667,1.1694,1.1755,1.1762,1.1714,1.1762,1.1884,1.1993,1.2088,1.2115,1.2182,1.2332,1.2393,1.2461,1.2583,1.2644,1.2535,1.2413,1.2284,1.2149,1.2094,1.2101,1.2182,1.2271,1.2588,1.2902,1.3182,1.3491,1.3938,1.4242,1.4338,1.4697,1.4757,1.4724,1.4789,1.4879,1.4919,1.5045,1.5045,1.5045,1.5028,1.4919,1.4797,1.4651,1.4497,1.4408,1.4375,1.4359,1.4318,1.4335,1.431,1.4424,1.4473,1.4416,1.4473,1.4659,1.4757,1.4708]}]]